[[{"header":{"parameterUnit":"m.s-1","parameterCategory":1,"la1":30.6,"la2":28.766,"lo1":-90.7593,"lo2":-88.6598,"dy":0.0162,"dx":0.0183,"nx":116,"ny":114,"refTime":"2023-07-18T06:00:00:Z","depth":0,"parameterNumber":2,"parameterNumberName":"U-component_of_WINDS"},"data":[0.0,0.0,0.0,0.0,0.0,0.0,0.0,0.0,0.0,0.0,0.0,0.0,0.0,0.0,0.0,0.0,0.0,0.0,0.0,0.0,0.0,0.0,0.0,0.0,0.0,0.0,0.0,0.0,0.0,0.0,0.0,0.0,0.0,0.0,0.0,0.0,0.0,0.0,0.0,0.0,0.0,0.0,0.0,0.0,0.0,0.0,0.0,0.0,0.0,0.0,0.0,0.0,0.0,0.0,0.0,0.0,0.0,0.0,0.0,0.0,0.0,0.0,0.0,0.0,0.0,0.0,0.0,0.0,0.0,0.0,0.0,0.0,0.0,0.0,0.0,0.0,0.0,0.0,0.0,0.0,0.0,0.0,0.0,0.0,0.0,0.0,0.0,0.0,0.0,0.0,0.0,0.0,0.0,0.0,0.0,0.0,0.0,0.0,0.0,0.0,0.0,0.0,0.0,0.0,0.0,0.0,0.0,0.0,0.0,0.0,0.0,0.0,0.0,0.0,0.0,0.0,0.0,0.0,0.0,0.0,0.0,0.0,0.0,0.0,0.0,0.0,0.0,0.0,0.0,0.0,0.0,0.0,0.0,0.0,0.0,0.0,0.0,0.0,0.0,0.0,0.0,0.0,0.0,0.0,0.0,0.0,0.0,0.0,0.0,0.0,0.0,0.0,0.0,0.0,0.0,0.0,0.0,0.0,0.0,0.0,0.0,0.0,0.0,0.0,0.0,0.0,0.0,0.0,0.0,0.0,0.0,0.0,0.0,0.0,0.0,0.0,0.0,0.0,0.0,0.0,0.0,0.0,0.0,0.0,0.0,0.0,0.0,0.0,0.0,0.0,0.0,0.0,0.0,0.0,0.0,0.0,0.0,0.0,0.0,0.0,0.0,0.0,0.0,0.0,0.0,0.0,0.0,0.0,0.0,0.0,0.0,0.0,0.0,0.0,0.0,0.0,0.0,0.0,0.0,0.0,0.0,0.0,0.0,0.0,0.0,0.0,0.0,0.0,0.0,0.0,0.0,0.0,0.0,0.0,0.0,0.0,0.0,0.0,0.0,0.0,0.0,0.0,0.0,0.0,0.0,0.0,0.0,0.0,0.0,0.0,0.0,0.0,0.0,0.0,0.0,0.0,0.0,0.0,0.0,0.0,0.0,0.0,0.0,0.0,0.0,0.0,0.0,0.0,0.0,0.0,0.0,0.0,0.0,0.0,0.0,0.0,0.0,0.0,0.0,0.0,0.0,0.0,0.0,0.0,0.0,0.0,0.0,0.0,0.0,0.0,0.0,0.0,0.0,0.0,0.0,0.0,0.0,0.0,0.0,0.0,0.0,0.0,0.0,0.0,0.0,0.0,0.0,0.0,0.0,0.0,0.0,0.0,0.0,0.0,0.0,0.0,0.0,0.0,0.0,0.0,0.0,0.0,0.0,0.0,0.0,0.0,0.0,0.0,0.0,0.0,0.0,0.0,0.0,0.0,0.0,0.0,0.0,0.0,0.0,0.0,0.0,0.0,0.0,0.0,0.0,0.0,0.0,0.0,0.0,0.0,0.0,0.0,0.0,0.0,0.0,0.0,0.0,0.0,0.0,0.0,0.0,0.0,0.0,0.0,0.0,0.0,0.0,0.0,0.0,0.0,0.0,0.0,0.0,0.0,0.0,0.0,0.0,0.0,0.0,0.0,0.0,0.0,0.0,0.0,0.0,0.0,0.0,0.0,0.0,0.0,0.0,0.0,0.0,0.0,0.0,0.0,0.0,0.0,0.0,0.0,0.0,0.0,0.0,0.0,0.0,0.0,0.0,0.0,0.0,0.0,0.0,0.0,0.0,0.0,0.0,0.0,0.0,0.0,0.0,0.0,0.0,0.0,0.0,0.0,0.0,0.0,0.0,0.0,0.0,0.0,0.0,0.0,0.0,0.0,0.0,0.0,0.0,0.0,0.0,0.0,0.0,0.0,0.0,0.0,0.0,0.0,0.0,0.0,0.0,0.0,0.0,0.0,0.0,0.0,0.0,0.0,0.0,0.0,0.0,0.0,0.0,0.0,0.0,0.0,0.0,0.0,0.0,0.0,0.0,0.0,0.0,0.0,0.0,0.0,0.0,0.0,0.0,0.0,0.0,0.0,0.0,0.0,0.0,0.0,0.0,0.0,0.0,0.0,0.0,0.0,0.0,0.0,0.0,0.0,0.0,0.0,0.0,0.0,0.0,0.0,0.0,0.0,0.0,0.0,0.0,0.0,0.0,0.0,0.0,0.0,0.0,0.0,0.0,0.0,0.0,0.0,0.0,0.0,0.0,0.0,0.0,0.0,0.0,0.0,0.0,0.0,0.0,0.0,0.0,0.0,0.0,0.0,0.0,0.0,0.0,0.0,0.0,0.0,0.0,0.0,0.0,0.0,0.0,0.0,0.0,0.0,0.0,0.0,0.0,0.0,0.0,0.0,0.0,0.0,0.0,0.0,0.0,0.0,0.0,0.0,0.0,0.0,0.0,0.0,0.0,0.0,0.0,0.0,0.0,0.0,0.0,0.0,0.0,0.0,0.0,0.0,0.0,0.0,0.0,0.0,0.0,0.0,0.0,0.0,0.0,0.0,0.0,0.0,0.0,0.0,0.0,0.0,0.0,0.0,0.0,0.0,0.0,0.0,0.0,0.0,0.0,0.0,0.0,0.0,0.0,0.0,0.0,0.0,0.0,0.0,0.0,0.0,0.0,0.0,0.0,0.0,0.0,0.0,0.0,0.0,0.0,0.0,0.0,0.0,0.0,0.0,0.0,0.0,0.0,0.0,0.0,0.0,0.0,0.0,0.0,0.0,0.0,0.0,0.0,0.0,0.0,0.0,0.0,0.0,0.0,0.0,0.0,0.0,0.0,0.0,0.0,0.0,0.0,0.0,0.0,0.0,0.0,0.0,0.0,0.0,0.0,0.0,0.0,0.0,0.0,0.0,0.0,0.0,0.0,0.0,0.0,0.0,0.0,0.0,0.0,0.0,0.0,0.0,0.0,0.0,0.0,0.0,0.0,0.0,0.0,0.0,0.0,0.0,0.0,0.0,0.0,0.0,0.0,0.0,0.0,0.0,0.0,0.0,0.0,0.0,0.0,0.0,0.0,0.0,0.0,0.0,0.0,0.0,0.0,0.0,0.0,0.0,0.0,0.0,0.0,0.0,0.0,0.0,0.0,0.0,0.0,0.0,0.0,0.0,0.0,0.0,0.0,0.0,0.0,0.0,0.0,0.0,0.0,0.0,0.0,0.0,0.0,0.0,0.0,0.0,0.0,0.0,0.0,0.0,0.0,0.0,0.0,0.0,0.0,0.0,0.0,0.0,0.0,0.0,0.0,0.0,0.0,0.0,0.0,0.0,0.0,0.0,0.0,0.0,0.0,0.0,0.0,0.0,0.0,0.0,0.0,0.0,0.0,0.0,0.0,0.0,0.0,0.0,0.0,0.0,0.0,0.0,0.0,0.0,0.0,0.0,0.0,0.0,0.0,0.0,0.0,0.0,0.0,0.0,0.0,0.0,0.0,0.0,0.0,0.0,0.0,0.0,0.0,0.0,0.0,0.0,0.0,0.0,0.0,0.0,0.0,0.0,0.0,0.0,0.0,0.0,0.0,0.0,0.0,0.0,0.0,0.0,0.0,0.0,0.0,0.0,0.0,0.0,0.0,0.0,0.0,0.0,0.0,0.0,0.0,0.0,0.0,0.0,0.0,0.0,0.0,0.0,0.0,0.0,0.0,0.0,0.0,0.0,0.0,0.0,0.0,0.0,0.0,0.0,0.0,0.0,0.0,0.0,0.0,0.0,0.0,0.0,0.0,0.0,0.0,0.0,0.0,0.0,0.0,0.0,0.0,0.0,0.0,0.0,0.0,0.0,0.0,0.0,0.0,0.0,0.0,0.0,0.0,0.0,0.0,0.0,0.0,0.0,0.0,0.0,0.0,0.0,0.0,0.0,0.0,0.0,0.0,0.0,0.0,0.0,0.0,0.0,0.0,0.0,0.0,0.0,0.0,0.0,0.0,0.0,0.0,0.0,0.0,0.0,0.0,0.0,0.0,0.0,0.0,0.0,0.0,0.0,0.0,0.0,0.0,0.0,0.0,0.0,0.0,0.0,0.0,0.0,0.0,0.0,0.0,0.0,0.0,0.0,0.0,0.0,0.0,0.0,0.0,0.0,0.0,0.0,0.0,0.0,0.0,0.0,0.0,0.0,0.0,0.0,0.0,0.0,0.0,0.0,0.0,0.0,0.0,0.0,0.0,0.0,0.0,0.0,0.0,0.0,0.0,0.0,0.0,0.0,0.0,0.0,0.0,0.0,0.0,0.0,0.0,0.0,0.0,0.0,0.0,0.0,0.0,0.0,0.0,0.0,0.0,0.0,0.0,0.0,0.0,0.0,0.0,0.0,0.0,0.0,0.0,0.0,0.0,0.0,0.0,0.0,0.0,0.0,0.0,0.0,0.0,0.0,0.0,0.0,0.0,0.0,0.0,0.0,0.0,0.0,0.0,0.0,0.0,0.0,0.0,0.0,0.0,0.0,0.0,0.0,0.0,0.0,0.0,0.0,0.0,0.0,0.0,0.0,0.0,0.0,0.0,0.0,0.0,0.0,0.0,0.0,0.0,0.0,0.0,0.0,0.0,0.0,0.0,0.0,0.0,0.0,0.0,0.0,0.0,0.0,0.0,0.0,0.0,0.0,0.0,0.0,0.0,0.0,0.0,0.0,0.0,0.0,0.0,0.0,0.0,0.0,0.0,0.0,0.0,0.0,0.0,0.0,0.0,0.0,0.0,0.0,0.0,0.0,0.0,0.0,0.0,0.0,0.0,0.0,0.0,0.0,0.0,0.0,0.0,0.0,0.0,0.0,0.0,0.0,0.0,0.0,0.0,0.0,0.0,0.0,0.0,0.0,0.0,0.0,0.0,0.0,0.0,0.0,0.0,0.0,0.0,0.0,0.0,0.0,0.0,0.0,0.0,0.0,0.0,0.0,0.0,0.0,0.0,0.0,0.0,0.0,0.0,0.0,0.0,0.0,0.0,0.0,0.0,0.0,0.0,0.0,0.0,0.0,0.0,0.0,0.0,0.0,0.0,0.0,0.0,0.0,0.0,0.0,0.0,0.0,0.0,0.0,0.0,0.0,0.0,0.0,0.0,0.0,0.0,0.0,0.0,0.0,0.0,0.0,0.0,0.0,0.0,0.0,0.0,0.0,0.0,0.0,0.0,0.0,0.0,0.0,0.0,0.0,0.0,0.0,0.0,0.0,0.0,0.0,0.0,0.0,0.0,0.0,0.0,0.0,0.0,0.0,0.0,0.0,0.0,0.0,0.0,0.0,0.0,0.0,0.0,0.0,0.0,0.0,0.0,0.0,0.0,0.0,0.0,0.0,0.0,0.0,0.0,0.0,0.0,0.0,0.0,0.0,0.0,0.0,0.0,0.0,0.0,0.0,0.0,0.0,0.0,0.0,0.0,0.0,0.0,0.0,0.0,0.0,0.0,0.0,0.0,0.0,0.0,0.0,0.0,0.0,0.0,0.0,0.0,0.0,0.0,0.0,0.0,0.0,0.0,0.0,0.0,0.0,0.0,0.0,0.0,0.0,0.0,0.0,0.0,0.0,0.0,0.0,0.0,0.0,0.0,0.0,0.0,0.0,0.0,0.0,0.0,0.0,0.0,0.0,0.0,0.0,0.0,0.0,0.0,0.0,0.0,0.0,0.0,0.0,0.0,0.0,0.0,0.0,0.0,0.0,0.0,0.0,0.0,0.0,0.0,0.0,0.0,0.0,0.0,0.0,0.0,0.0,0.0,0.0,0.0,0.0,0.0,0.0,0.0,0.0,0.0,0.0,0.0,0.0,0.0,0.0,0.0,0.0,0.0,0.0,0.0,0.0,0.0,0.0,0.0,0.0,0.0,0.0,0.0,0.0,0.0,0.0,0.0,0.0,0.0,0.0,0.0,0.0,0.0,0.0,0.0,0.0,0.0,0.0,0.0,0.0,0.0,0.0,0.0,0.0,0.0,0.0,0.0,0.0,0.0,0.0,0.0,0.0,0.0,0.0,0.0,0.0,0.0,0.0,0.0,0.0,0.0,0.0,0.0,0.0,-2.5672,0.0,0.0,0.0,0.0,0.0,0.0,0.0,0.0,0.0,0.0,0.0,0.0,0.0,0.0,0.0,0.0,0.0,0.0,0.0,0.0,0.0,0.0,0.0,0.0,0.0,0.0,0.0,0.0,0.0,0.0,0.0,0.0,0.0,0.0,0.0,0.0,0.0,0.0,0.0,0.0,0.0,0.0,0.0,0.0,0.0,0.0,0.0,0.0,0.0,0.0,0.0,0.0,0.0,0.0,0.0,0.0,0.0,0.0,0.0,0.0,0.0,0.0,0.0,0.0,0.0,0.0,0.0,0.0,0.0,0.0,0.0,0.0,0.0,0.0,0.0,0.0,0.0,0.0,0.0,0.0,0.0,0.0,0.0,0.0,0.0,0.0,0.0,0.0,0.0,0.0,0.0,0.0,0.0,0.0,0.0,0.0,0.0,0.0,0.0,0.0,0.0,0.0,0.0,0.0,0.0,0.0,0.0,0.0,0.0,0.0,0.0,0.0,0.0,0.0,0.0,0.0,-2.6246,0.0,0.0,0.0,0.0,0.0,0.0,0.0,0.0,0.0,0.0,0.0,0.0,0.0,0.0,0.0,0.0,0.0,0.0,0.0,0.0,0.0,0.0,0.0,0.0,0.0,0.0,0.0,0.0,0.0,0.0,0.0,0.0,0.0,0.0,0.0,0.0,0.0,0.0,0.0,0.0,0.0,0.0,0.0,0.0,0.0,0.0,0.0,0.0,0.0,0.0,0.0,0.0,0.0,0.0,0.0,0.0,0.0,0.0,0.0,0.0,0.0,0.0,0.0,0.0,0.0,0.0,0.0,0.0,0.0,0.0,0.0,0.0,0.0,0.0,0.0,0.0,0.0,0.0,0.0,0.0,0.0,0.0,0.0,0.0,0.0,0.0,0.0,0.0,0.0,0.0,0.0,0.0,0.0,0.0,0.0,0.0,0.0,0.0,0.0,0.0,0.0,0.0,0.0,0.0,0.0,0.0,0.0,0.0,-2.7989,-2.8586,-2.8674,-2.8674,-2.8674,-2.8637,-2.7785,-2.7214,-2.6914,-2.7754,0.0,0.0,0.0,0.0,0.0,0.0,0.0,0.0,0.0,0.0,0.0,0.0,0.0,0.0,0.0,0.0,0.0,0.0,0.0,0.0,0.0,0.0,0.0,0.0,0.0,0.0,0.0,0.0,0.0,0.0,0.0,0.0,0.0,0.0,0.0,0.0,0.0,0.0,-1.8617,-1.9082,-1.9228,-1.9121,-1.9121,0.0,0.0,0.0,0.0,0.0,0.0,0.0,0.0,0.0,0.0,0.0,0.0,0.0,0.0,0.0,0.0,0.0,0.0,0.0,0.0,0.0,0.0,0.0,0.0,0.0,0.0,0.0,0.0,0.0,0.0,0.0,0.0,0.0,0.0,0.0,0.0,0.0,0.0,0.0,0.0,0.0,0.0,0.0,-1.8461,-1.851,0.0,0.0,0.0,0.0,0.0,0.0,0.0,0.0,0.0,0.0,0.0,0.0,0.0,-2.4231,-2.6068,-2.6954,-2.761,-2.8076,-2.9547,-3.052,-3.0959,-3.0959,-3.0959,-3.0959,-3.0826,0.0,-2.7901,-2.8036,0.0,0.0,0.0,0.0,0.0,0.0,0.0,0.0,0.0,0.0,0.0,0.0,0.0,0.0,0.0,0.0,0.0,0.0,0.0,0.0,0.0,0.0,0.0,0.0,0.0,0.0,0.0,0.0,0.0,0.0,0.0,0.0,0.0,0.0,0.0,0.0,-1.8812,-1.9482,-1.9736,-2.043,-2.0752,-2.0781,-2.1403,-2.0772,-1.9277,-1.9082,0.0,0.0,0.0,0.0,0.0,0.0,0.0,0.0,0.0,0.0,0.0,0.0,0.0,0.0,0.0,0.0,0.0,0.0,0.0,0.0,0.0,0.0,0.0,0.0,0.0,0.0,0.0,0.0,0.0,0.0,0.0,0.0,0.0,0.0,0.0,0.0,0.0,0.0,0.0,-1.8252,-1.8598,-1.8598,-1.9023,-1.9287,0.0,0.0,0.0,0.0,0.0,0.0,0.0,0.0,0.0,-2.3566,-2.4667,-2.5672,-2.6546,-2.8932,-3.0114,-3.0049,-3.1393,-3.2114,-3.2382,-3.2382,-3.2382,-3.2382,-3.2382,-3.1599,-3.0369,-2.9767,-2.9139,-2.8561,0.0,0.0,0.0,0.0,-2.8213,-2.79,0.0,0.0,0.0,0.0,0.0,0.0,0.0,0.0,0.0,0.0,0.0,0.0,0.0,0.0,0.0,-1.8542,0.0,0.0,0.0,0.0,0.0,0.0,0.0,0.0,0.0,0.0,0.0,0.0,-1.9658,-2.0303,-2.0752,-2.1523,-2.1885,-2.1926,-2.2849,-2.2195,-2.0399,-2.0417,-2.086,0.0,0.0,0.0,0.0,0.0,0.0,0.0,0.0,0.0,0.0,0.0,0.0,0.0,0.0,0.0,0.0,0.0,0.0,0.0,0.0,0.0,0.0,0.0,0.0,0.0,0.0,0.0,0.0,0.0,0.0,0.0,0.0,0.0,0.0,0.0,0.0,0.0,0.0,-1.85,-1.8812,-1.8909,-1.9453,-1.9746,0.0,0.0,0.0,0.0,0.0,0.0,-2.2129,-2.2296,-2.3066,-2.452,-2.6253,-2.7489,-2.8165,-3.1167,-3.2444,-3.2039,-3.3059,-3.3495,-3.3495,-3.3495,-3.3495,-3.3495,-3.3495,-3.3169,-3.2554,-3.1474,-3.0444,-2.9553,-2.9553,-2.8731,-2.7793,-2.9072,-2.9029,-2.8463,0.0,0.0,0.0,0.0,0.0,0.0,0.0,0.0,0.0,0.0,0.0,0.0,0.0,0.0,-1.8345,-1.831,-1.8059,-1.7554,0.0,0.0,0.0,0.0,0.0,0.0,0.0,0.0,0.0,-1.9248,-2.0155,-2.0762,-2.1171,-2.167,-2.1885,-2.1904,-2.2347,-2.2835,-2.3303,-2.3403,-2.3506,-2.338,0.0,0.0,0.0,0.0,0.0,0.0,0.0,0.0,0.0,0.0,0.0,0.0,0.0,0.0,0.0,0.0,0.0,0.0,0.0,0.0,0.0,0.0,0.0,0.0,0.0,0.0,0.0,0.0,0.0,0.0,0.0,0.0,0.0,0.0,0.0,0.0,0.0,0.0,0.0,-1.9805,-2.0576,0.0,0.0,0.0,0.0,-2.1161,-2.1902,-2.313,-2.4714,-2.4088,-2.5717,-3.0056,-2.923,-2.9992,-3.2753,-3.3446,-3.379,-3.3771,-3.4342,-3.4638,-3.4638,-3.4638,-3.4638,-3.4638,-3.4638,-3.4324,-3.3734,-3.2604,-3.1788,-3.126,-3.126,-3.0906,-3.0465,-3.1072,-3.0906,-3.0528,0.0,0.0,0.0,0.0,0.0,0.0,0.0,0.0,0.0,0.0,0.0,0.0,0.0,-1.7974,-1.8217,-1.8002,-1.8154,-1.7943,-1.7213,0.0,0.0,0.0,0.0,0.0,0.0,0.0,-1.994,-2.0155,-2.1685,-2.2322,-2.2029,-2.2783,-2.3105,-2.3178,-2.4331,-2.4949,-2.5133,-2.4343,-2.4012,-2.3877,-2.2327,-2.2797,0.0,0.0,0.0,0.0,0.0,0.0,0.0,0.0,0.0,0.0,0.0,0.0,0.0,0.0,0.0,0.0,0.0,0.0,0.0,0.0,0.0,0.0,0.0,0.0,0.0,0.0,0.0,0.0,0.0,0.0,0.0,0.0,0.0,0.0,0.0,0.0,0.0,-2.0312,-2.1747,0.0,-2.2969,-2.3207,-2.3453,-2.3618,-2.4516,-2.4927,-2.4645,-2.6539,-2.8109,-2.9146,-3.0365,-3.1786,-3.3463,-3.4429,-3.5127,-3.5537,-3.568,-3.5768,-3.5768,-3.5768,-3.5768,-3.5768,-3.5768,-3.5466,-3.4881,-3.448,-3.3351,-3.1913,-3.1913,-3.1587,-3.1135,-3.1323,-3.1273,-3.1135,0.0,0.0,0.0,0.0,0.0,0.0,0.0,0.0,0.0,0.0,0.0,-1.7179,-1.7345,-1.8091,-1.8372,-1.7862,-1.8249,-1.8211,-1.7448,0.0,0.0,0.0,0.0,0.0,0.0,-2.0305,-2.1182,-2.1568,-2.2655,-2.3099,-2.2949,-2.3525,-2.3867,-2.4059,-2.5649,-2.6079,-2.5521,-2.5635,-2.5363,-2.4793,-2.3563,-2.3991,-2.5062,0.0,0.0,0.0,0.0,0.0,0.0,0.0,0.0,0.0,0.0,0.0,0.0,0.0,0.0,0.0,0.0,0.0,0.0,0.0,0.0,0.0,0.0,0.0,0.0,0.0,0.0,0.0,0.0,0.0,0.0,0.0,0.0,0.0,0.0,0.0,-2.1518,-2.208,-2.3114,-2.4304,-2.5608,-2.5498,-2.5668,-2.6335,-2.728,-2.7597,-2.7049,-2.9037,-3.0405,-3.0771,-3.2031,-3.3298,-3.458,-3.5419,-3.5994,-3.6405,-3.6405,-3.6405,-3.6417,-3.6606,-3.6581,-3.6417,-3.6606,-3.632,-3.5818,-3.5818,-3.4839,-3.3294,-3.293,-3.2453,-3.1951,-3.1951,-3.1838,-3.1675,0.0,0.0,0.0,0.0,0.0,0.0,0.0,0.0,0.0,0.0,-1.7193,-1.7285,-1.7806,-1.8543,-1.8671,-1.7831,-1.8218,-1.8212,-1.7452,-1.6605,0.0,0.0,0.0,0.0,-2.0935,-2.1182,-2.2021,-2.3554,-2.2934,-2.3022,-2.3834,-2.3863,-2.4053,-2.4519,-2.6141,-2.5998,-2.4677,-2.7457,-2.7753,-2.6273,-2.5232,-2.4809,-2.4709,0.0,0.0,0.0,0.0,0.0,0.0,0.0,0.0,0.0,0.0,0.0,0.0,0.0,0.0,0.0,0.0,0.0,0.0,0.0,0.0,0.0,0.0,0.0,0.0,0.0,0.0,0.0,0.0,0.0,0.0,0.0,0.0,0.0,-2.0984,-2.191,-2.3408,-2.5051,-2.4859,-2.5603,-2.83,-2.8123,-2.8196,-2.9159,-3.0034,-3.102,-3.2136,-3.1563,-3.2499,-3.5406,-3.4433,-3.4676,-3.6455,-3.6443,-3.6443,-3.6455,-3.6443,-3.6443,-3.648,-3.6973,-3.6923,-3.6493,-3.696,-3.6933,-3.643,-3.6417,-3.6056,-3.542,-3.4374,-3.3608,-3.3106,-3.3106,-3.2742,-3.224,0.0,0.0,0.0,0.0,0.0,0.0,0.0,0.0,0.0,0.0,-1.6752,-1.6508,-1.7047,-1.6999,-1.683,-1.6597,-1.6975,-1.7361,-1.7655,0.0,0.0,0.0,0.0,0.0,-2.2326,-2.3084,-2.4018,-2.5161,-2.4777,-2.4748,-2.4961,-2.4818,-2.4951,-2.5391,-2.6161,-2.6756,-2.7249,-2.8417,-2.8598,-2.7918,-2.5676,-2.526,-2.5647,0.0,0.0,0.0,0.0,0.0,0.0,0.0,0.0,0.0,0.0,0.0,0.0,0.0,0.0,0.0,0.0,0.0,0.0,0.0,0.0,0.0,0.0,0.0,0.0,0.0,0.0,0.0,0.0,0.0,0.0,0.0,0.0,-2.6076,-2.3387,-2.3949,-2.5133,-2.6441,-2.7452,-2.8499,-2.9634,-3.0423,-3.1158,-3.1806,-3.2441,-3.2673,-3.2429,-3.4031,-3.5234,-3.584,-3.6124,-3.6635,-3.755,-3.7161,-3.7161,-3.755,-3.7149,-3.7161,-3.7563,-3.7713,-3.7701,-3.7538,-3.7287,-3.7098,-3.6923,-3.6568,-3.6317,-3.6069,-3.5366,-3.4512,-3.3671,-3.3671,-3.3319,-3.2955,0.0,0.0,0.0,0.0,0.0,0.0,0.0,0.0,0.0,0.0,-1.7111,-1.6898,-1.6823,-1.7517,-1.7621,-1.6657,-1.7103,-1.7489,-1.7539,0.0,0.0,0.0,0.0,-2.2173,-2.4139,-2.4849,-2.572,-2.676,-2.5687,-2.5569,-2.6443,-2.5888,-2.6,-2.6758,-2.7575,-2.8133,-2.8614,-2.9466,-2.9774,-2.9554,-2.7843,-2.6986,-2.6615,-2.5684,-2.5955,-2.6735,-2.6089,-2.6101,-2.6399,-2.5724,0.0,0.0,0.0,0.0,0.0,0.0,0.0,0.0,0.0,0.0,0.0,0.0,0.0,0.0,0.0,0.0,0.0,0.0,0.0,0.0,0.0,0.0,0.0,0.0,-2.7394,-2.9448,-2.8053,-2.7839,-2.8255,-2.9452,-3.007,-3.099,-3.2653,-3.2959,-3.3431,-3.4308,-3.4879,-3.486,-3.4168,-3.6025,-3.6884,-3.649,-3.7158,-3.7688,-3.8002,-3.7688,-3.7688,-3.8002,-3.7688,-3.7701,-3.8015,-3.8253,-3.8115,-3.7663,-3.7563,-3.7262,-3.6857,-3.6543,-3.6405,0.0,0.0,0.0,0.0,0.0,-3.4035,-3.3859,0.0,0.0,0.0,0.0,0.0,0.0,0.0,0.0,0.0,0.0,0.0,-1.7739,-1.689,-1.8914,-1.9483,-1.7305,-1.7904,-1.8116,0.0,0.0,0.0,-1.9239,-2.1769,-2.4131,-2.619,-2.6459,-2.7133,-2.8307,-2.6177,-2.6173,-2.8059,-2.717,-2.7374,-2.8528,-2.9701,-2.9917,-2.961,-3.0789,-3.1324,-3.1415,-3.1098,-2.9657,-2.7733,-2.8672,-2.8366,-2.7534,-2.8015,-2.7532,-2.6688,-2.6688,0.0,0.0,0.0,0.0,0.0,0.0,0.0,0.0,0.0,0.0,0.0,0.0,0.0,0.0,0.0,0.0,0.0,0.0,0.0,0.0,0.0,0.0,0.0,0.0,-3.0822,-3.2903,-3.3433,-3.2637,-3.233,-3.3311,-3.2619,-3.3194,-3.5991,-3.5259,-3.515,-3.6398,-3.6958,-3.7023,-3.6707,0.0,0.0,0.0,0.0,-3.814,-3.8191,-3.814,-3.814,-3.8191,-3.814,-3.814,-3.8216,-3.873,-3.8466,-3.75,-3.7914,-3.7513,-3.6593,-3.6531,-3.6468,-3.6355,-3.5768,-3.5495,-3.5445,-3.4956,-3.4731,-3.4738,0.0,0.0,0.0,0.0,0.0,0.0,0.0,0.0,0.0,-1.7322,-1.7347,-1.7186,-1.6849,-1.7637,-1.7779,-1.6732,-1.7333,-1.7972,0.0,0.0,-2.0883,-2.2207,-2.3863,-2.5668,-2.7641,-2.7338,-2.7929,-2.9495,-2.8015,-2.7996,-2.9253,-2.9376,-2.9797,-3.0426,-3.1057,-3.1817,-3.2669,-3.3391,-3.3827,-3.4031,-3.4351,-3.262,-2.9769,-2.9684,-2.9187,-2.8599,-2.8725,-2.8348,-2.7783,-2.7783,-2.7356,-2.6728,-2.6323,0.0,0.0,0.0,0.0,0.0,0.0,0.0,0.0,0.0,0.0,0.0,0.0,0.0,0.0,0.0,0.0,0.0,0.0,0.0,0.0,-2.9653,-3.2956,-3.5431,-3.504,-3.599,-3.6358,-3.5527,-3.4916,-3.475,-3.5364,-3.5757,-3.6295,-3.6985,-3.7123,-3.7538,-3.8391,-3.814,-3.8379,-3.9182,-3.8881,-3.8919,-3.9371,-3.8931,-3.8931,-3.9371,0.0,0.0,-3.9371,-3.9484,-3.9421,-3.9195,-3.8856,-3.8316,-3.7651,-3.7211,-3.6807,-3.6355,-3.5768,-3.5495,-3.5483,-3.537,-3.5056,-3.4851,0.0,0.0,0.0,0.0,0.0,0.0,0.0,0.0,0.0,0.0,-1.7117,-1.7063,-1.6604,-1.7367,-1.7583,-1.6867,-1.7383,0.0,0.0,-2.017,-2.1801,-2.3315,-2.5212,-2.6963,-2.8461,-2.8545,-2.8964,-2.9792,-2.8851,-2.914,-3.0509,-3.0429,-3.0916,-3.1805,-3.2106,-3.2848,-3.3993,-3.4267,-3.487,-3.5567,-3.5843,-3.4574,-3.2457,-3.1749,-3.0737,-2.9728,-2.9728,-2.9189,-2.8511,-2.8511,-2.8147,-2.7645,-2.7369,-2.6892,-2.6339,0.0,0.0,0.0,0.0,0.0,0.0,0.0,0.0,0.0,0.0,0.0,0.0,0.0,0.0,-2.875,0.0,0.0,-3.2736,-3.3063,-3.5408,-3.718,-3.7158,-3.8128,-3.8266,-3.68,-3.6358,-3.6101,-3.5819,-3.6411,-3.682,-3.682,-3.7599,-3.8027,-3.8027,-3.8555,-3.8981,-3.927,-3.9283,-3.9421,-3.9697,-3.9421,-3.9421,-3.9697,-3.9421,-3.9433,-3.9685,-3.9408,-3.912,-3.8818,-3.8266,-3.7713,-3.7161,-3.6885,-3.6656,-3.638,-3.6056,-3.5956,-3.5956,-3.5956,-3.578,-3.5617,0.0,0.0,0.0,0.0,0.0,0.0,0.0,0.0,0.0,0.0,-1.7024,-1.7113,-1.6373,-1.7431,-1.8002,0.0,0.0,0.0,0.0,-2.0605,-2.2273,-2.3859,-2.6201,-2.7908,-2.8863,-2.9503,-2.9792,-2.9792,-2.9434,-2.9947,-3.1399,-3.1198,-3.1801,-3.3083,-3.3191,-3.3826,-3.4775,-3.4775,-3.5415,-3.6405,-3.6405,-3.5705,-3.4568,-3.3621,-3.2202,-3.0758,-3.0658,-2.9853,-2.8875,-2.8762,-2.8549,-2.8247,-2.8134,-2.7871,-2.7469,-2.6851,-2.6323,0.0,0.0,0.0,0.0,0.0,0.0,0.0,0.0,0.0,-2.836,-2.9327,-3.0105,-3.1022,-3.2441,-3.3709,-3.5014,-3.6483,-3.7626,-3.8454,-3.8869,-3.9258,-3.8944,-3.7374,-3.7274,-3.7123,-3.6619,-3.6971,-3.7048,-3.6757,-3.8089,-3.8517,-3.7713,-3.8956,-3.9484,-3.9095,-3.9459,-3.9697,-3.9697,-3.9697,-3.9697,-3.9697,-3.9697,-3.9697,-3.9672,-3.912,-3.8617,-3.814,-3.7475,-3.6923,-3.6556,-3.6455,-3.6405,-3.6405,-3.6405,-3.6405,-3.6405,-3.6405,-3.6405,-3.6405,0.0,0.0,0.0,0.0,0.0,0.0,0.0,0.0,0.0,0.0,0.0,0.0,0.0,0.0,0.0,0.0,0.0,0.0,-2.0389,-2.1973,-2.3411,-2.4628,-2.6832,-2.8298,-2.8875,-2.9503,-2.9792,-2.9792,-3.0213,-3.0751,-3.1411,-3.2394,-3.3421,-3.4499,-3.4986,-3.5547,-3.6168,-3.6168,-3.6263,-3.6405,-3.6405,-3.5705,-3.4605,-3.4035,-3.2767,-3.1248,-3.0783,-2.9853,-2.8813,-2.836,-2.8486,-2.8712,-2.826,-2.8398,-2.8499,-2.7494,0.0,-2.6967,-2.6461,-2.6311,-2.6562,-2.757,-2.7921,-2.8411,0.0,0.0,-3.1097,-3.1725,-3.2692,-3.3646,-3.4311,-3.5742,-3.7036,-3.7713,-3.8768,-3.9358,-3.8982,-3.8969,-3.8517,-3.7324,-3.7613,-3.7701,-3.7149,-3.7149,-3.7362,-3.7789,-3.8479,-3.9032,-3.9396,-3.9597,-3.9672,-3.9597,-3.9659,-3.9697,-3.9697,-3.9697,-3.9697,-3.9697,-3.9697,-3.9697,-3.9672,-3.912,-3.8881,-3.8718,-3.7651,-3.7149,-3.7048,-3.6619,-3.6405,-3.6405,-3.6405,-3.6405,-3.6405,-3.6405,-3.6405,-3.6405,0.0,0.0,0.0,0.0,0.0,0.0,0.0,0.0,0.0,0.0,0.0,0.0,0.0,0.0,0.0,0.0,0.0,0.0,-2.1056,-2.2096,-2.3271,-2.4725,-2.6314,-2.7557,-2.8436,-2.9001,-2.9453,-2.9792,-3.0344,-3.0721,-3.0959,-3.2064,-3.3006,-3.3796,-3.4349,-3.5077,-3.5868,-3.5542,-3.5592,-3.5855,-3.5542,-3.4939,-3.4186,-3.3633,-3.219,-3.0382,-2.9842,-2.9088,0.0,0.0,-2.7519,-2.7934,-2.7708,-2.7783,-2.7883,-2.7419,-2.709,0.0,-2.6562,-2.6964,0.0,0.0,-2.9302,-3.0369,-3.1738,-3.2466,-3.3106,-3.3928,-3.4776,-3.5592,-3.6471,-3.7475,-3.8341,0.0,-3.912,-3.9132,-3.8957,-3.858,-3.7839,-3.6408,-3.6709,-3.696,-3.6782,-3.7287,-3.7626,-3.7538,-3.8655,-3.9308,-3.922,-3.9521,-3.9697,-3.9697,-3.9697,-3.9697,-3.9697,-3.9697,-3.9697,-3.9697,-3.9697,-3.9534,-3.9195,-3.863,-3.8015,-3.7436,-3.6958,-3.6757,-3.6732,-3.6505,-3.6405,-3.6405,-3.6405,-3.6405,-3.6405,-3.6405,-3.6405,-3.6405,0.0,0.0,0.0,0.0,0.0,0.0,0.0,0.0,0.0,0.0,0.0,0.0,0.0,0.0,0.0,0.0,0.0,0.0,0.0,-2.1694,-2.2761,-2.4261,-2.5548,-2.6776,-2.7858,-2.8561,-2.9214,-2.9792,-3.0193,-3.047,-3.0633,-3.1411,-3.2152,-3.2855,-3.3257,-3.3972,-3.4793,-3.4437,-3.45,-3.4781,-3.4424,-3.3935,-3.3345,-3.2491,-3.1085,-2.9478,-2.89,-2.8147,0.0,0.0,-2.6399,-2.6816,-2.6816,-2.6964,-2.709,-2.709,-2.6801,-2.6562,-2.6864,0.0,0.0,-2.954,-3.0972,-3.2416,-3.3709,-3.4537,-3.5303,-3.6223,-3.6772,-3.7297,-3.7889,-3.8354,-3.8718,-3.8956,-3.8793,-3.858,-3.8479,-3.7914,-3.6998,-3.5445,-3.5529,-3.5726,-3.5726,-3.681,-3.7513,-3.7412,-3.8693,-3.9358,-3.9107,-3.9484,-3.9697,-3.9697,-3.9546,-3.9534,-3.9697,-3.9546,-3.9546,-3.9697,-3.9697,-3.9484,-3.9082,-3.8341,-3.74,-3.6405,-3.6405,-3.6405,-3.6405,-3.6405,-3.6405,-3.6405,-3.6405,-3.6405,-3.6405,-3.6405,-3.6405,-3.6405,0.0,0.0,0.0,0.0,0.0,0.0,0.0,0.0,0.0,0.0,0.0,0.0,0.0,0.0,0.0,0.0,0.0,0.0,0.0,-2.0891,-2.202,-2.3108,-2.4745,-2.6151,-2.7281,-2.8373,-2.9214,-2.9792,-2.9817,-3.0093,-3.062,-3.0645,-3.1223,-3.224,-3.2252,-3.2591,-3.3156,-3.3174,-3.3174,-3.3156,-3.3174,-3.278,-3.2089,-3.0495,-2.9503,-2.885,-2.8335,0.0,0.0,0.0,-2.5222,-2.5649,-2.5649,-2.6072,0.0,-2.6512,-2.6512,0.0,0.0,0.0,-2.9377,-3.1574,-3.2968,-3.4261,-3.5931,-3.7123,-3.8052,-3.8642,-3.8831,-3.868,-3.8103,-3.8015,-3.7864,-3.7349,-3.7701,-3.7852,-3.7312,-3.6807,-3.5994,-3.4876,-3.4286,-3.3972,0.0,-3.55,-3.6895,-3.7902,-3.8542,-3.912,-3.9647,-3.9685,-3.9697,-3.9697,-3.9182,-3.9145,-3.9685,-3.917,-3.917,-3.9697,-3.9697,-3.9685,-3.9634,-3.8517,-3.74,-3.6405,-3.6405,-3.6405,-3.6405,-3.6405,-3.6405,-3.6405,-3.6405,-3.6405,-3.6405,-3.6405,-3.6405,-3.6405,0.0,0.0,0.0,0.0,0.0,0.0,0.0,0.0,0.0,0.0,0.0,0.0,0.0,0.0,0.0,0.0,0.0,0.0,0.0,-2.0162,-2.0865,-2.1995,-2.2924,-2.3941,-2.5084,-2.5824,-2.6829,-2.8122,-2.8122,-2.8411,-2.8963,-2.9327,-2.9653,-3.0016,-3.0432,-3.0922,-3.1424,-3.1047,-3.1311,-3.1863,-3.0771,-3.0432,-3.0432,-2.8762,-2.7544,-2.664,0.0,0.0,0.0,0.0,0.0,-2.4531,-2.4531,-2.4921,-2.5435,-2.5787,-2.6678,-2.7708,0.0,0.0,-3.1562,-3.3364,-3.4989,-3.642,-3.7739,-3.8605,-3.8969,-3.8417,-3.7726,-3.7061,-3.6436,-3.578,-3.5579,-3.6531,-3.6483,-3.6558,-3.7111,-3.6757,-3.5726,-3.3847,-3.411,0.0,0.0,0.0,0.0,-3.686,-3.8177,-3.9007,-3.9132,-3.9496,-3.9697,-3.9697,-3.9509,-3.9509,-3.9697,-3.9509,-3.9509,-3.9685,-3.8931,-3.8379,-3.8002,-3.7262,-3.6757,-3.6405,-3.6405,-3.6405,-3.6405,-3.6405,-3.6405,-3.6405,-3.6405,-3.6405,-3.6405,-3.6405,-3.6405,-3.6405,0.0,0.0,0.0,0.0,0.0,0.0,0.0,0.0,0.0,0.0,0.0,0.0,0.0,0.0,0.0,0.0,0.0,0.0,0.0,0.0,-1.9936,-2.084,-2.1619,-2.2548,-2.3665,-2.4243,-2.5146,-2.6402,-2.659,-2.6866,-2.7218,-2.7783,-2.8047,-2.8059,-2.8436,-2.88,-2.9114,-2.875,-2.9038,-2.9528,-2.8473,-2.8273,-2.8436,-2.6967,-2.595,0.0,0.0,0.0,0.0,0.0,0.0,0.0,-2.369,-2.4173,-2.4938,-2.5686,-2.7092,-2.8612,0.0,-3.1574,-3.3558,-3.5429,-3.6847,-3.7977,-3.8756,-3.8981,-3.8718,-3.74,-3.627,-3.5215,-3.4204,-3.3646,-3.3583,-3.4494,-3.4625,-3.5052,-3.6144,-3.5655,-3.4859,-3.3784,-3.3935,-3.3784,0.0,0.0,0.0,-3.6355,-3.7726,-3.8655,-3.8906,-3.9396,-3.9697,-3.9697,-3.9496,-3.9496,-3.9697,-3.9496,-3.9396,-3.9396,-3.8668,-3.7914,-3.7174,-3.6857,-3.6593,-3.6405,-3.6405,-3.6405,-3.6405,-3.6405,-3.6405,-3.6405,-3.6405,-3.6405,-3.6405,-3.6405,-3.6405,-3.6405,0.0,0.0,0.0,0.0,0.0,0.0,0.0,0.0,0.0,0.0,0.0,0.0,0.0,0.0,0.0,0.0,0.0,0.0,0.0,0.0,0.0,-1.9736,-2.079,-2.1882,-2.2957,-2.3552,-2.4117,-2.4662,-2.5184,-2.5448,-2.5485,-2.6072,-2.6323,-2.6323,-2.6323,-2.6323,-2.6323,-2.6361,-2.6386,-2.6411,-2.6386,-2.6386,-2.6285,-2.5159,0.0,0.0,0.0,0.0,0.0,0.0,0.0,0.0,0.0,0.0,-2.5121,-2.6285,-2.777,-2.9527,-3.175,-3.3583,-3.5403,-3.7513,-3.8467,-3.8906,-3.8881,-3.8329,-3.7412,-3.5708,-3.45,-3.3194,0.0,0.0,-3.1863,-3.1449,-3.234,-3.347,-3.4613,-3.3884,-3.3608,0.0,0.0,0.0,0.0,0.0,0.0,-3.6367,0.0,-3.8253,-3.8844,-3.9383,-3.9697,-3.9697,-3.9182,-3.917,-3.9685,-3.9145,-3.8906,-3.8831,-3.8844,-3.8253,-3.7149,-3.7149,-3.6908,-3.6405,-3.6405,-3.6405,-3.6405,-3.6405,-3.6405,-3.6405,-3.6405,-3.6405,-3.6405,-3.6405,-3.6405,-3.6405,0.0,0.0,0.0,0.0,0.0,0.0,0.0,0.0,0.0,0.0,0.0,0.0,0.0,0.0,0.0,0.0,0.0,0.0,0.0,0.0,0.0,0.0,0.0,0.0,0.0,0.0,0.0,0.0,0.0,-2.3364,-2.3735,-2.3873,-2.3979,-2.3979,-2.3979,-2.3979,-2.4017,-2.4443,-2.487,-2.5209,0.0,-2.487,-2.5121,0.0,0.0,0.0,0.0,0.0,0.0,0.0,0.0,0.0,0.0,0.0,-2.6373,-2.7858,-2.9767,-3.1775,-3.3596,-3.5592,-3.7412,-3.8404,-3.8806,-3.8755,-3.8329,-3.7161,-3.5658,-3.4048,-3.2177,-3.0583,0.0,0.0,0.0,-3.1148,-3.234,0.0,-3.5082,-3.5441,0.0,0.0,0.0,-3.4768,-3.4537,-3.5378,0.0,0.0,-3.7613,-3.8065,-3.8216,-3.9157,-3.9697,-3.9697,-3.9559,-3.9546,-3.9697,-3.9145,-3.8655,-3.8216,-3.7814,-3.7249,-3.6619,-3.6619,-3.6543,-3.6405,-3.6405,-3.6405,-3.6405,-3.6405,-3.6405,-3.6405,-3.6405,-3.6405,-3.6405,-3.6405,-3.6405,-3.6405,0.0,0.0,0.0,0.0,0.0,0.0,0.0,0.0,0.0,0.0,0.0,0.0,0.0,0.0,0.0,0.0,0.0,0.0,0.0,0.0,0.0,0.0,0.0,0.0,0.0,0.0,0.0,0.0,0.0,0.0,0.0,-2.2297,-2.241,-2.241,-2.241,-2.241,-2.2406,-2.2761,0.0,0.0,0.0,0.0,0.0,0.0,0.0,0.0,0.0,0.0,0.0,0.0,0.0,-2.4921,-2.618,-2.7218,-2.8334,-3.0193,0.0,-3.3684,-3.5341,-3.7061,-3.8517,-3.9094,-3.8868,-3.8216,-3.7174,-3.5655,-3.3847,-3.17,-3.008,0.0,0.0,0.0,0.0,0.0,0.0,0.0,-3.4223,-3.4939,-3.5328,0.0,-3.5931,0.0,-3.583,-3.6584,-3.7211,0.0,-3.8065,-3.8379,-3.8379,-3.922,-3.9697,-3.9697,-3.9697,-3.9697,-3.9697,-3.9383,-3.8818,-3.8002,-3.7688,-3.7123,-3.6405,-3.6405,-3.6405,-3.6405,0.0,-3.6405,-3.6405,-3.6405,-3.6405,-3.6405,-3.6405,-3.6405,-3.6405,-3.6405,-3.6405,-3.6405,0.0,0.0,0.0,0.0,0.0,0.0,0.0,0.0,0.0,0.0,0.0,0.0,0.0,0.0,0.0,0.0,0.0,0.0,0.0,0.0,0.0,0.0,0.0,0.0,0.0,0.0,0.0,0.0,0.0,0.0,0.0,0.0,0.0,0.0,0.0,0.0,0.0,0.0,0.0,0.0,0.0,0.0,0.0,0.0,0.0,0.0,0.0,0.0,0.0,0.0,-2.5335,-2.6101,-2.8298,-2.9541,-3.0545,-3.2754,-3.4186,-3.5391,-3.6973,-3.8178,-3.9082,-3.9484,-3.868,-3.7362,-3.5658,-3.3935,-3.1913,-2.9352,0.0,-2.762,-2.6763,0.0,-2.816,-2.831,0.0,-3.1298,-3.2955,-3.3658,-3.4587,-3.6216,-3.6895,-3.7211,-3.7287,-3.7801,-3.8153,-3.8228,-3.8693,-3.8994,-3.8919,-3.9396,-3.9697,-3.9697,-3.9697,-3.9697,-3.9697,-3.9622,-3.9094,-3.8115,-3.804,-3.7462,-3.6518,-3.6518,-3.648,-3.6405,-3.6405,0.0,-3.6405,-3.6405,-3.6405,-3.6405,-3.6405,-3.6405,-3.6405,-3.6405,-3.6405,-3.6405,0.0,0.0,0.0,0.0,0.0,0.0,0.0,0.0,0.0,0.0,-1.65,0.0,0.0,0.0,0.0,0.0,0.0,0.0,0.0,0.0,0.0,0.0,0.0,0.0,0.0,0.0,0.0,0.0,0.0,0.0,0.0,0.0,0.0,0.0,0.0,0.0,0.0,0.0,0.0,0.0,0.0,0.0,0.0,0.0,0.0,0.0,0.0,0.0,0.0,0.0,-2.6273,-2.6738,-2.8938,-3.0633,-3.2227,-3.4417,-3.5893,-3.7023,-3.8241,-3.9057,-3.9471,-3.9158,-3.7839,-3.6245,-3.4562,-3.2202,0.0,0.0,0.0,-2.6864,-2.7128,-2.767,0.0,-2.9352,0.0,0.0,0.0,0.0,-3.5027,0.0,0.0,0.0,0.0,0.0,0.0,0.0,0.0,-3.9346,-3.8944,-3.9396,-3.9697,-3.9697,-3.9697,-3.9697,-3.9697,-3.9245,-3.8919,-3.8718,-3.8228,-3.7663,-3.7048,-3.7048,-3.6832,-3.6405,-3.6405,0.0,-3.6405,-3.6405,-3.6405,-3.6405,-3.6405,-3.6405,-3.6405,-3.6405,-3.6405,-3.6405,0.0,0.0,0.0,0.0,0.0,0.0,0.0,0.0,0.0,0.0,-1.65,-1.65,0.0,0.0,0.0,0.0,0.0,0.0,0.0,0.0,0.0,0.0,0.0,0.0,0.0,0.0,0.0,0.0,0.0,0.0,0.0,0.0,0.0,0.0,0.0,0.0,0.0,0.0,0.0,0.0,0.0,0.0,0.0,0.0,0.0,0.0,0.0,0.0,0.0,0.0,-2.5787,-2.6603,-2.998,-3.1788,-3.3093,-3.5316,-3.6546,-3.7425,-3.8567,-3.927,-3.9559,-3.9007,-3.7186,-3.509,-3.3407,0.0,0.0,0.0,0.0,-2.6575,-2.6839,0.0,0.0,0.0,0.0,0.0,0.0,0.0,0.0,0.0,0.0,0.0,0.0,0.0,0.0,0.0,0.0,-3.9584,-3.932,-3.9546,-3.9697,-3.9697,-3.9697,-3.9697,-3.9697,-3.9433,-3.9157,-3.8906,-3.8278,-3.7713,-3.7174,-3.6885,-3.6656,-3.6405,-3.6405,0.0,-3.6405,-3.6405,-3.6405,-3.6405,-3.6405,-3.6405,-3.6405,-3.6405,-3.6405,-3.6405,0.0,0.0,0.0,0.0,0.0,0.0,0.0,-1.693,-1.6637,-1.6522,-1.65,-1.65,-1.65,-1.65,0.0,0.0,0.0,0.0,0.0,0.0,0.0,0.0,0.0,0.0,0.0,0.0,0.0,0.0,0.0,0.0,0.0,0.0,0.0,0.0,0.0,0.0,0.0,0.0,0.0,0.0,0.0,0.0,0.0,0.0,0.0,0.0,0.0,0.0,0.0,0.0,-2.5096,-2.6101,-2.9942,-3.1876,-3.3149,-3.5123,-3.643,-3.74,-3.8417,-3.9182,-3.9496,-3.8705,-3.6508,-3.4085,-3.2277,-2.9829,0.0,0.0,-2.6499,-2.6524,-2.665,0.0,0.0,0.0,0.0,0.0,0.0,0.0,0.0,0.0,0.0,0.0,0.0,0.0,0.0,0.0,0.0,0.0,-3.9697,-3.9697,-3.9697,-3.9697,-3.9697,-3.9697,-3.9697,-3.9697,-3.9484,-3.9095,-3.858,-3.8015,-3.7349,-3.691,-3.6631,-3.6405,-3.6405,0.0,0.0,-3.6405,-3.6405,-3.6405,-3.6405,-3.6405,-3.6405,-3.6405,-3.6405,-3.6405,0.0,0.0,0.0,0.0,0.0,0.0,0.0,-1.725,-1.7055,-1.6552,-1.65,-1.65,-1.65,-1.65,0.0,0.0,0.0,0.0,0.0,0.0,0.0,0.0,0.0,0.0,0.0,0.0,0.0,0.0,0.0,0.0,0.0,0.0,0.0,0.0,0.0,0.0,0.0,0.0,0.0,0.0,0.0,0.0,0.0,0.0,0.0,0.0,0.0,0.0,0.0,0.0,0.0,-2.5189,-2.713,-2.949,-3.1788,-3.3061,0.0,0.0,-3.7914,-3.8868,-3.932,-3.7739,-3.5642,-3.3407,-3.126,0.0,0.0,0.0,-2.6499,-2.665,-2.7153,-2.7657,0.0,0.0,0.0,0.0,0.0,0.0,0.0,0.0,0.0,0.0,0.0,0.0,0.0,0.0,0.0,0.0,-3.9697,-3.9697,-3.9697,-3.9697,-3.9697,-3.9697,-3.9697,-3.9697,-3.9672,-3.9622,-3.9572,-3.8981,-3.7927,-3.7877,-3.7312,-3.6405,-3.6405,0.0,0.0,-3.6405,-3.6405,-3.6405,-3.6405,-3.6405,-3.6405,-3.6405,-3.6405,-3.6405,0.0,0.0,0.0,0.0,0.0,0.0,0.0,-1.7706,-1.7209,-1.7013,-1.6689,-1.65,-1.65,-1.65,-1.65,0.0,0.0,0.0,0.0,0.0,0.0,0.0,0.0,0.0,0.0,0.0,0.0,0.0,0.0,0.0,0.0,0.0,0.0,0.0,0.0,0.0,0.0,0.0,0.0,0.0,0.0,0.0,0.0,0.0,0.0,0.0,0.0,0.0,0.0,0.0,0.0,0.0,-2.455,-2.6,0.0,0.0,-3.3068,-3.4977,-3.6194,-3.7575,-3.8366,-3.7048,-3.4788,-3.2491,-3.0959,0.0,0.0,-2.6537,-2.6499,-2.6562,-2.6788,-2.7002,-2.7406,0.0,0.0,0.0,0.0,0.0,0.0,0.0,0.0,0.0,0.0,0.0,0.0,0.0,0.0,0.0,-3.9697,-3.9697,-3.9697,-3.9697,-3.9697,-3.9697,-3.9697,-3.9697,-3.9697,-3.9697,-3.9358,-3.8781,-3.8002,-3.7663,-3.7098,-3.6405,-3.6405,0.0,0.0,-3.6405,-3.6405,-3.6405,-3.6405,-3.6405,-3.6405,-3.6405,-3.6405,-3.6405,0.0,0.0,0.0,0.0,0.0,0.0,-1.893,-1.8125,-1.7483,-1.7333,-1.6837,-1.65,-1.65,-1.65,-1.65,-1.65,0.0,0.0,0.0,0.0,0.0,0.0,0.0,0.0,0.0,0.0,0.0,0.0,0.0,0.0,0.0,0.0,0.0,0.0,0.0,0.0,0.0,0.0,0.0,0.0,0.0,0.0,0.0,0.0,0.0,0.0,0.0,0.0,0.0,0.0,0.0,0.0,0.0,0.0,0.0,0.0,-3.0658,-3.2641,-3.396,-3.5768,-3.6973,-3.573,-3.3684,-3.165,0.0,0.0,0.0,-2.6499,-2.6499,-2.6499,-2.6499,-2.6625,-2.7052,0.0,0.0,0.0,0.0,0.0,0.0,0.0,0.0,0.0,0.0,0.0,0.0,0.0,0.0,0.0,-4.0224,-4.0262,-4.007,-3.9697,-3.9697,-3.9697,-3.9697,-3.9697,-3.9697,-3.9685,-3.9295,-3.873,-3.799,-3.76,-3.7036,-3.6405,-3.6405,0.0,0.0,-3.6405,-3.6405,-3.6405,-3.6405,-3.6405,-3.6405,-3.6405,-3.6405,-3.6405,0.0,0.0,0.0,0.0,0.0,0.0,0.0,-1.8438,-1.7907,-1.7374,-1.6837,-1.65,-1.65,-1.65,-1.65,-1.65,0.0,0.0,0.0,0.0,0.0,0.0,0.0,0.0,0.0,0.0,0.0,-1.8216,0.0,0.0,0.0,0.0,0.0,0.0,0.0,0.0,0.0,0.0,0.0,0.0,0.0,0.0,0.0,0.0,0.0,0.0,0.0,0.0,0.0,0.0,0.0,0.0,0.0,0.0,0.0,0.0,-2.8021,-3.0758,-3.1286,-3.3458,-3.5132,-3.352,-3.2252,-3.0972,0.0,0.0,0.0,-2.6499,-2.6499,-2.6499,-2.6499,-2.6939,-2.7457,-2.8009,-2.8561,0.0,0.0,0.0,0.0,0.0,0.0,0.0,0.0,0.0,0.0,0.0,0.0,0.0,-4.1505,-4.1604,-4.0982,-3.9736,-3.9697,-3.9697,-3.9697,-3.9697,-3.9697,-3.9697,-3.9685,-3.9094,-3.8002,-3.8002,-3.74,0.0,0.0,0.0,0.0,-3.6405,-3.6405,-3.6405,-3.6405,-3.6405,-3.6405,-3.6405,-3.6405,-3.6405,0.0,0.0,0.0,0.0,0.0,0.0,0.0,-1.8987,-1.8458,-1.7927,-1.7394,-1.7055,-1.7055,-1.7055,-1.7055,-1.7055,0.0,0.0,0.0,0.0,0.0,0.0,0.0,0.0,0.0,0.0,-1.725,-1.8204,-1.838,-1.8844,0.0,0.0,0.0,0.0,0.0,0.0,0.0,0.0,0.0,0.0,0.0,0.0,0.0,0.0,0.0,0.0,0.0,0.0,0.0,0.0,0.0,0.0,0.0,0.0,0.0,0.0,0.0,0.0,-3.0057,-3.1363,-3.2164,-3.2245,-3.1423,-3.0173,-2.8673,0.0,-2.8051,-2.7451,-2.7802,-2.8214,-2.8214,-2.7848,-2.8093,-2.9696,-2.9575,0.0,0.0,0.0,0.0,0.0,0.0,0.0,0.0,0.0,0.0,0.0,0.0,0.0,-4.2855,-4.2882,-4.2315,-4.1032,-4.1404,-4.1627,-4.1627,-4.1164,-4.095,-4.0903,-4.014,-3.9362,-3.8575,-3.78,-3.7048,0.0,0.0,0.0,0.0,-3.6405,-3.6405,-3.6405,-3.6405,-3.6405,-3.6405,-3.6405,-3.6405,-3.6405,0.0,0.0,0.0,0.0,0.0,0.0,0.0,-1.9244,-1.8779,-1.8458,-1.7927,-1.7605,-1.7605,-1.7605,-1.7605,-1.7605,0.0,0.0,0.0,0.0,0.0,0.0,0.0,0.0,0.0,-1.65,-1.6839,-1.7576,-1.799,-1.8543,-1.9208,-1.9284,-1.9497,0.0,0.0,0.0,0.0,0.0,0.0,0.0,0.0,0.0,-2.1092,0.0,0.0,0.0,0.0,0.0,0.0,0.0,0.0,0.0,0.0,0.0,0.0,0.0,-2.5368,0.0,0.0,-2.996,-3.0704,-3.1272,-3.0895,0.0,0.0,0.0,-2.8844,-2.8298,-2.862,-2.9002,-2.9002,-2.8556,-2.8754,-3.0504,-3.0324,0.0,0.0,0.0,0.0,0.0,0.0,0.0,0.0,0.0,0.0,0.0,0.0,0.0,-4.3388,-4.3448,-4.3078,-4.2283,-4.2442,-4.2513,-4.2513,-4.1833,-4.1516,-4.1471,-4.0761,-4.014,-3.9551,-3.8839,-3.8225,0.0,0.0,0.0,0.0,-3.6581,-3.6405,-3.6405,-3.6405,-3.6405,-3.6405,-3.6405,-3.6405,-3.6405,0.0,0.0,0.0,0.0,0.0,0.0,0.0,0.0,0.0,0.0,-1.8477,-1.8165,-1.8165,-1.8165,-1.8145,0.0,0.0,0.0,0.0,0.0,0.0,0.0,0.0,0.0,0.0,-1.65,-1.6534,-1.6615,-1.7664,-1.824,-1.8327,-1.9346,-1.9838,-1.9901,-2.0533,-2.083,-2.0894,-2.1496,-2.1414,-2.087,-2.0919,-2.1287,0.0,0.0,0.0,0.0,0.0,0.0,0.0,0.0,0.0,0.0,0.0,0.0,0.0,0.0,0.0,0.0,0.0,0.0,0.0,0.0,0.0,0.0,0.0,0.0,0.0,-2.9097,-2.9129,-2.9205,-2.9247,-2.9198,-2.9586,-3.0874,0.0,0.0,0.0,0.0,0.0,0.0,0.0,0.0,0.0,0.0,0.0,0.0,0.0,0.0,-4.3473,-4.356,-4.356,-4.356,-4.2967,-4.2606,-4.2606,-4.1969,-4.1619,-4.1619,-4.1574,-4.1225,-4.0775,-4.0686,-4.0352,0.0,0.0,0.0,0.0,-3.7116,-3.6602,-3.6564,-3.6615,-3.6602,-3.6564,-3.6615,-3.6602,-3.6564,0.0,0.0,0.0,0.0,0.0,0.0,0.0,0.0,0.0,0.0,0.0,-1.8708,-1.8708,-1.8708,0.0,0.0,0.0,0.0,0.0,0.0,0.0,0.0,0.0,0.0,0.0,-1.65,-1.6939,-1.7796,-1.806,-1.8619,-1.9422,-1.9802,-2.0178,-2.0584,-2.0776,-2.1086,-2.152,-2.2184,-2.2091,-2.152,-2.2044,-2.2034,0.0,0.0,0.0,0.0,-2.2988,-2.3954,0.0,0.0,0.0,0.0,0.0,0.0,0.0,0.0,-2.6628,-2.7291,-2.8209,0.0,-2.8252,-2.9339,0.0,0.0,0.0,0.0,0.0,0.0,0.0,0.0,0.0,0.0,0.0,0.0,0.0,0.0,0.0,0.0,0.0,0.0,0.0,0.0,0.0,0.0,0.0,0.0,0.0,-4.4002,-4.4813,-4.4842,-4.4842,-4.4842,-4.4236,-4.3877,-4.3877,-4.3189,-4.2867,-4.2867,-4.1991,-4.1511,-4.1383,-4.0484,-4.0023,0.0,0.0,0.0,-3.9461,-3.9197,-3.878,-3.8357,-3.8874,-3.8766,-3.8357,-3.8888,-3.8766,-3.8186,0.0,0.0,0.0,0.0,0.0,0.0,0.0,0.0,0.0,0.0,0.0,0.0,0.0,0.0,0.0,0.0,0.0,0.0,0.0,0.0,0.0,0.0,0.0,0.0,-1.6879,-1.6879,-1.7169,-1.7779,-1.8054,-1.8613,-1.9438,-1.9819,-2.0303,-2.0832,-2.1453,-2.2033,-2.2606,-2.295,-2.2748,-2.2193,-2.2543,0.0,0.0,0.0,0.0,0.0,-2.3546,-2.4099,0.0,-2.5365,-2.626,-2.7121,0.0,0.0,0.0,0.0,-2.728,-2.7675,-2.8049,-2.8226,-2.8569,-2.9579,-3.0353,-3.0748,0.0,0.0,0.0,0.0,0.0,0.0,0.0,0.0,0.0,0.0,0.0,0.0,0.0,0.0,0.0,0.0,0.0,0.0,0.0,0.0,0.0,0.0,0.0,-4.4018,-4.4377,-4.4392,-4.4392,-4.4392,-4.4047,-4.4003,-4.4317,-4.3618,-4.314,-4.2895,-4.2537,-4.2063,-4.1506,-4.1177,-4.0861,0.0,0.0,0.0,-3.9732,-3.9227,-3.8765,-3.8489,-3.8833,-3.8751,-3.8489,-3.8833,-3.8751,-3.8292,0.0,0.0,0.0,0.0,0.0,0.0,0.0,0.0,0.0,0.0,0.0,0.0,0.0,0.0,0.0,0.0,0.0,0.0,0.0,0.0,0.0,0.0,0.0,-1.7435,-1.7435,-1.7353,-1.7394,-1.7544,-1.8169,-1.8746,-1.9284,-2.0057,-2.0704,-2.1272,-2.236,-2.312,-2.3595,-2.3595,-2.3312,-2.2844,-2.2844,0.0,0.0,0.0,0.0,0.0,0.0,0.0,0.0,-2.5183,-2.6051,-2.6731,-2.739,0.0,0.0,0.0,0.0,0.0,-2.772,-2.8663,-2.9726,-3.0223,-3.0956,-3.1511,0.0,0.0,0.0,0.0,0.0,0.0,0.0,0.0,0.0,0.0,0.0,0.0,0.0,0.0,0.0,0.0,0.0,0.0,0.0,0.0,0.0,0.0,0.0,-4.329,-4.329,-4.329,-4.329,-4.329,-4.329,-4.3514,-4.4018,-4.3464,-4.291,-4.241,-4.2821,-4.2447,-4.1399,-4.1991,-4.1946,-4.1331,0.0,0.0,-3.9794,-3.8843,-3.8364,-3.8295,-3.8378,-3.8364,-3.8295,-3.8392,-3.8364,-3.8103,0.0,0.0,0.0,0.0,0.0,0.0,0.0,0.0,0.0,0.0,0.0,0.0,0.0,0.0,0.0,0.0,0.0,0.0,0.0,0.0,0.0,0.0,-1.8516,-1.7987,-1.7987,-1.7524,-1.7747,-1.865,-1.9329,-1.9905,-2.0479,-2.1701,-2.2593,-2.3187,-2.3363,-2.3508,-2.3595,-2.3595,-2.3551,-2.3465,-2.3465,0.0,0.0,0.0,0.0,0.0,0.0,0.0,0.0,-2.5339,-2.6051,-2.6731,-2.739,0.0,0.0,0.0,0.0,0.0,-2.8278,-2.8996,-2.9636,-2.9726,-3.0642,-3.1511,0.0,0.0,0.0,0.0,0.0,0.0,0.0,0.0,0.0,0.0,0.0,0.0,0.0,0.0,0.0,0.0,0.0,0.0,0.0,0.0,0.0,0.0,0.0,-4.329,-4.329,-4.329,-4.329,-4.329,-4.329,-4.3105,-4.271,-4.2605,-4.25,-4.2396,-4.1931,-4.1579,-4.1422,-4.1527,-4.1512,-4.1384,0.0,-4.1126,-4.1126,-4.092,-4.0518,-4.0075,-4.0622,-4.0503,-4.0089,-4.0636,-4.0489,-3.9776,0.0,0.0,0.0,0.0,0.0,0.0,0.0,0.0,0.0,0.0,0.0,0.0,0.0,0.0,0.0,0.0,0.0,0.0,0.0,0.0,0.0,-1.969,-1.8949,-1.8535,-1.8535,-1.8302,-1.8588,-1.9445,-1.976,-2.0351,-2.1262,-2.224,-2.3009,-2.3595,-2.3595,-2.3595,-2.3595,-2.3595,-2.3595,-2.3595,0.0,0.0,0.0,0.0,0.0,0.0,0.0,0.0,0.0,0.0,-2.6632,-2.6731,-2.739,0.0,0.0,0.0,0.0,0.0,-2.7989,-2.8813,-2.9606,-2.9606,-3.0836,-3.2034,-3.2034,0.0,0.0,0.0,0.0,0.0,0.0,0.0,0.0,0.0,0.0,0.0,0.0,0.0,0.0,0.0,0.0,0.0,0.0,0.0,0.0,0.0,0.0,0.0,-4.2821,-4.2806,-4.2806,-4.2806,-4.2462,-4.2132,-4.1871,-4.1512,-4.1309,-4.1309,-4.1354,-4.101,-4.0337,-4.0681,-4.0651,-4.0322,0.0,-4.0322,-4.0322,-4.0322,-4.0142,-3.9903,-4.0202,-4.0127,-3.9903,-4.0217,-3.9765,-3.8867,0.0,0.0,0.0,0.0,0.0,0.0,0.0,0.0,0.0,0.0,0.0,0.0,0.0,0.0,0.0,0.0,0.0,0.0,0.0,0.0,-1.9708,-1.9708,-1.9461,-1.9313,-1.9313,-1.9199,-1.9517,-2.0317,-2.0482,-2.1102,-2.2164,-2.2665,-2.3143,-2.3595,-2.3595,-2.3595,-2.3595,-2.3595,-2.3595,-2.361,0.0,0.0,0.0,0.0,0.0,0.0,0.0,0.0,0.0,0.0,0.0,0.0,0.0,0.0,0.0,-2.76,-2.76,-2.766,-2.7989,-2.8828,-2.9681,-2.9968,0.0,-3.2303,-3.2452,0.0,0.0,0.0,0.0,0.0,0.0,0.0,0.0,0.0,0.0,0.0,0.0,0.0,0.0,0.0,0.0,0.0,0.0,0.0,0.0,0.0,0.0,0.0,-4.2201,-4.2171,-4.2171,-4.2171,-4.1677,-4.1309,-4.1145,-4.0651,-4.0397,-4.0397,-4.0756,-4.0397,-3.9439,-3.9948,-3.9903,-3.9388,-3.9388,-3.9388,-3.9388,-3.9388,-3.9388,-3.9388,-3.9388,-3.9388,-3.9388,-3.9388,-3.887,-3.8182,0.0,0.0,0.0,0.0,0.0,0.0,0.0,0.0,0.0,0.0,0.0,0.0,0.0,0.0,0.0,0.0,0.0,0.0,0.0,0.0,-1.9708,-1.9708,-2.0251,-2.0576,-2.0576,-2.0084,-2.0391,-2.156,-2.2192,-2.2835,-2.3455,-2.35,-2.3551,-2.3595,-2.3595,-2.3595,-2.3595,-2.3595,-2.3595,-2.3655,-2.4276,0.0,0.0,0.0,0.0,0.0,0.0,0.0,0.0,0.0,0.0,0.0,0.0,0.0,-2.76,-2.76,-2.76,-2.7869,-2.9127,-2.9532,-2.9864,-3.1062,0.0,0.0,-3.2348,-3.2557,0.0,0.0,0.0,0.0,0.0,0.0,0.0,0.0,0.0,0.0,0.0,0.0,0.0,0.0,0.0,0.0,0.0,0.0,0.0,0.0,0.0,0.0,-4.1444,-4.1444,-4.1444,-4.1444,-4.1452,-4.1085,-4.0472,-4.0427,-4.0397,-4.0382,-3.9828,-3.9514,-3.9388,-3.9433,-3.9433,-3.9388,-3.9388,-3.9388,-3.9388,-3.9388,-3.9388,-3.9388,-3.9388,-3.9388,-3.9388,-3.9388,-3.9337,-3.9265,0.0,0.0,0.0,0.0,0.0,0.0,0.0,0.0,0.0,0.0,0.0,0.0,0.0,0.0,0.0,0.0,0.0,0.0,0.0,0.0,-1.9708,-1.9708,-1.9929,-2.0468,-2.1306,-2.1109,-2.1248,-2.1695,-2.2742,-2.337,-2.3595,-2.3595,-2.3595,-2.3595,-2.3595,-2.3595,-2.3595,-2.3595,-2.3595,-2.3655,-2.4335,-2.4993,0.0,0.0,0.0,0.0,0.0,0.0,0.0,0.0,-2.7225,-2.727,0.0,-2.76,-2.76,-2.76,-2.76,-2.7809,-2.8738,-2.9265,-2.9816,-3.0672,0.0,0.0,0.0,0.0,0.0,0.0,0.0,0.0,0.0,0.0,0.0,0.0,0.0,0.0,0.0,0.0,0.0,0.0,0.0,0.0,0.0,0.0,0.0,0.0,0.0,0.0,-4.0202,-4.0546,-4.0591,-4.0172,-4.0172,-3.9828,-3.9155,-3.9155,-3.8945,-3.8542,-3.8706,-3.8781,-3.8781,-3.8781,-3.902,-3.9388,-3.9388,-3.9388,-3.9388,-3.9388,-3.9388,-3.9388,-3.9388,-3.9388,-3.9388,-3.9388,-3.9388,-3.9388,0.0,0.0,0.0,0.0,0.0,0.0,0.0,0.0,0.0,0.0,0.0,0.0,0.0,0.0,0.0,0.0,0.0,0.0,0.0,-1.9708,-1.9708,-1.9708,-1.9884,-2.0348,-2.1036,-2.168,-2.2099,-2.2293,-2.3176,-2.3595,-2.3595,-2.3595,-2.3595,-2.361,-2.3819,-2.3924,-2.3924,-2.3924,-2.4044,-2.4268,-2.4724,-2.5307,0.0,0.0,0.0,0.0,0.0,0.0,0.0,0.0,-2.76,0.0,0.0,0.0,-2.7645,-2.7854,-2.7929,-2.8109,-2.8966,-2.952,-3.0073,0.0,0.0,0.0,0.0,0.0,0.0,0.0,0.0,0.0,0.0,0.0,0.0,0.0,0.0,0.0,0.0,0.0,0.0,0.0,0.0,0.0,0.0,0.0,0.0,0.0,0.0,0.0,0.0,-3.9215,-3.9245,-3.8796,-3.8781,-3.8556,-3.8078,-3.8078,-3.7764,-3.712,-3.7569,-3.7883,-3.8078,-3.8078,-3.8332,-3.8781,-3.8781,-3.8781,-3.8781,-3.8781,-3.8781,-3.8811,-3.9005,-3.9095,-3.9125,-3.9298,-3.9388,-3.9388,0.0,0.0,0.0,0.0,0.0,0.0,0.0,0.0,0.0,0.0,0.0,0.0,0.0,0.0,0.0,0.0,0.0,0.0,0.0,-1.9708,-1.9708,-1.9708,-2.0348,-2.0393,-1.9738,-2.1684,-2.3002,-2.3595,-2.3595,-2.3595,-2.3595,-2.3595,-2.3595,-2.364,-2.4291,-2.4605,-2.4619,-2.4619,-2.4993,-2.5615,-2.5615,-2.6019,-2.6662,0.0,0.0,0.0,0.0,0.0,0.0,0.0,-2.76,-2.76,0.0,0.0,0.0,-2.8397,-2.8607,-2.8891,-3.0163,-3.0507,0.0,0.0,0.0,0.0,0.0,0.0,0.0,0.0,0.0,0.0,0.0,0.0,0.0,0.0,0.0,0.0,0.0,0.0,0.0,0.0,0.0,0.0,0.0,0.0,0.0,0.0,0.0,0.0,0.0,-3.7404,-3.7404,-3.7404,-3.7404,-3.7404,-3.7404,-3.7404,-3.709,-3.6477,-3.6477,-3.6806,-3.7404,-3.7404,-3.7404,-3.7404,-3.7404,-3.7404,-3.7404,-3.7404,-3.7404,-3.7479,-3.8123,-3.8377,-3.8467,-3.9155,-3.9373,-3.9373,0.0,0.0,0.0,0.0,0.0,0.0,0.0,0.0,0.0,0.0,0.0,0.0,0.0,0.0,0.0,0.0,0.0,0.0,0.0,-1.9708,-1.9708,-1.9708,-2.0162,-2.0618,-2.11,-2.2562,-2.3415,-2.3595,-2.3595,-2.3595,-2.3595,-2.3595,-2.3864,-2.4306,-2.4515,-2.4859,-2.5292,-2.5292,-2.5435,-2.5644,-2.6108,-2.6422,-2.6662,0.0,0.0,0.0,0.0,0.0,0.0,0.0,0.0,0.0,0.0,0.0,0.0,-2.8547,-2.8921,-2.946,-3.0283,-3.0507,0.0,0.0,0.0,0.0,0.0,0.0,0.0,0.0,0.0,0.0,0.0,0.0,0.0,0.0,0.0,0.0,0.0,0.0,0.0,0.0,0.0,0.0,0.0,0.0,0.0,0.0,0.0,0.0,0.0,-3.718,-3.721,-3.6776,-3.718,-3.721,-3.6761,-3.6761,-3.6432,-3.5804,-3.5804,-3.6133,-3.6761,-3.6761,-3.7,-3.7404,-3.7404,-3.7404,-3.7404,-3.7404,-3.7404,-3.7434,-3.7629,-3.7704,-3.7778,-3.8452,-3.8691,-3.8766,0.0,0.0,0.0,0.0,0.0,0.0,0.0,0.0,0.0,0.0,0.0,0.0,0.0,0.0,0.0,0.0,0.0,0.0,0.0,0.0,-2.0017,-2.0208,-2.0541,-2.113,-2.2074,-2.2853,-2.3468,-2.3921,-2.3702,-2.3595,-2.361,-2.4109,-2.4565,-2.4991,-2.5523,-2.5978,-2.6335,-2.6107,-2.6153,-2.6408,-2.6542,-2.6752,-2.7046,0.0,0.0,0.0,0.0,0.0,0.0,0.0,0.0,0.0,0.0,0.0,0.0,-2.8921,-2.9445,-3.0088,-3.0731,0.0,0.0,0.0,0.0,0.0,0.0,0.0,0.0,0.0,0.0,0.0,0.0,0.0,0.0,0.0,0.0,0.0,0.0,0.0,0.0,0.0,0.0,0.0,0.0,0.0,0.0,0.0,0.0,0.0,0.0,-3.6447,-3.6492,-3.6103,-3.6462,-3.6477,-3.6103,-3.6088,-3.5893,-3.5504,-3.5504,-3.5714,-3.6088,-3.6088,-3.6297,-3.6656,-3.6656,-3.6656,-3.6656,-3.6656,-3.6656,-3.6686,-3.6941,-3.7045,-3.712,-3.7764,-3.8003,-3.8063,0.0,0.0,0.0,0.0,0.0,0.0,0.0,0.0,0.0,0.0,0.0,0.0,0.0,0.0,0.0,0.0,0.0,0.0,0.0,0.0,-2.0661,-2.1071,-2.1399,-2.1981,-2.2869,-2.2918,-2.3447,-2.4471,-2.39,-2.3659,-2.3767,-2.4954,-2.5565,-2.5716,0.0,-2.7626,-2.7642,-2.7105,-2.7193,-2.764,-2.7015,-2.711,-2.7625,-2.766,0.0,0.0,0.0,0.0,0.0,0.0,0.0,0.0,0.0,-2.818,-2.8895,-2.9502,-3.0103,-3.0746,0.0,0.0,0.0,0.0,0.0,0.0,0.0,0.0,0.0,0.0,0.0,0.0,0.0,0.0,0.0,0.0,0.0,0.0,0.0,0.0,0.0,0.0,0.0,0.0,0.0,0.0,0.0,0.0,0.0,0.0,0.0,-3.5504,-3.5504,-3.5504,-3.5504,-3.5504,-3.5504,-3.5504,-3.5504,-3.5504,-3.5504,-3.5504,-3.5504,-3.5504,-3.5504,-3.5504,-3.5504,-3.5504,-3.5504,-3.5504,-3.5504,-3.5564,-3.6163,-3.6402,-3.6477,-3.709,-3.733,-3.733,0.0,0.0,0.0,0.0,0.0,0.0,0.0,0.0,0.0,0.0,0.0,0.0,0.0,0.0,0.0,0.0,0.0,0.0,0.0,0.0,-2.1757,-2.1873,-2.2971,-2.3823,-2.4346,-2.4557,-2.4787,-2.5028,-2.4074,-2.4032,0.0,0.0,0.0,-2.6957,0.0,-2.85,-2.8964,-2.8844,-2.8615,-2.8295,-2.8141,-2.7881,-2.7635,-2.814,-2.8018,0.0,0.0,0.0,0.0,0.0,0.0,0.0,-2.8383,-2.9167,-3.0118,-3.0268,-3.0763,-3.1436,0.0,0.0,0.0,0.0,0.0,0.0,0.0,0.0,0.0,0.0,0.0,0.0,0.0,0.0,0.0,0.0,0.0,0.0,0.0,0.0,0.0,0.0,0.0,0.0,0.0,0.0,0.0,0.0,0.0,0.0,-3.5504,-3.5504,-3.5504,-3.5504,-3.5504,-3.5504,-3.5504,-3.5504,-3.5504,0.0,-3.5504,-3.5504,-3.5504,-3.5504,-3.5504,-3.5504,-3.5504,-3.5504,-3.5504,-3.5504,-3.5504,-3.5519,-3.5669,-3.5714,-3.5789,-3.6447,-3.6686,-3.6746,0.0,0.0,0.0,0.0,0.0,0.0,0.0,0.0,0.0,0.0,0.0,0.0,0.0,0.0,0.0,0.0,0.0,0.0,0.0,0.0,0.0,-2.337,-2.41,-2.4652,-2.4993,-2.5123,-2.5316,-2.5596,-2.4772,0.0,0.0,0.0,0.0,-2.8298,0.0,-2.9507,-2.9805,-2.9518,-2.9225,-2.8943,-2.8943,-2.8567,-2.8091,-2.8709,-2.8559,-2.8116,-2.8709,0.0,0.0,0.0,0.0,0.0,0.0,0.0,-3.0506,-3.0513,-3.0957,-3.1585,0.0,0.0,0.0,0.0,0.0,0.0,0.0,0.0,0.0,0.0,0.0,0.0,0.0,0.0,0.0,0.0,0.0,0.0,0.0,0.0,0.0,0.0,0.0,0.0,0.0,0.0,0.0,0.0,0.0,-3.5504,-3.5504,-3.5504,-3.5504,-3.5504,-3.5504,-3.5504,-3.5504,-3.5504,-3.5504,-3.5504,-3.5504,-3.5504,-3.5504,-3.5504,-3.5504,-3.5504,-3.5504,-3.5504,-3.5504,-3.5504,-3.5504,-3.5504,-3.5504,-3.5504,-3.5549,-3.5893,-3.6013,-3.6073,0.0,0.0,0.0,0.0,0.0,0.0,0.0,0.0,0.0,0.0,0.0,0.0,0.0,0.0,0.0,0.0,0.0,0.0,0.0,0.0,0.0,0.0,-2.5125,-2.523,-2.5451,-2.5468,-2.5689,-2.612,0.0,0.0,0.0,0.0,0.0,-2.9473,0.0,-3.0456,-3.0435,-2.9913,-2.9651,-2.9563,-2.9563,-2.9282,-2.8904,-2.9514,-2.9457,-2.9116,-2.9729,-2.9865,-2.9854,-3.0344,0.0,0.0,0.0,0.0,-3.0867,-3.1,-3.144,-3.1896,0.0,0.0,0.0,0.0,0.0,0.0,0.0,0.0,0.0,0.0,0.0,0.0,0.0,0.0,0.0,0.0,0.0,0.0,0.0,0.0,0.0,0.0,0.0,0.0,0.0,0.0,0.0,0.0,0.0,-3.5504,-3.5504,-3.5504,-3.5504,-3.5504,-3.5504,-3.5504,-3.5504,-3.5504,-3.5504,-3.5504,-3.5504,-3.5504,-3.5504,-3.5504,-3.5504,-3.5504,-3.5504,-3.5504,-3.5504,-3.5504,-3.5504,-3.5504,-3.5504,-3.5504,-3.5504,-3.5504,-3.5504,-3.5504,0.0,0.0,0.0,0.0,0.0,0.0,0.0,0.0,0.0,0.0,0.0,0.0,0.0,0.0,0.0,0.0,0.0,0.0,-2.4491,0.0,0.0,-2.6421,-2.6455,-2.6455,-2.6505,-2.6505,-2.6522,-2.6607,0.0,0.0,0.0,0.0,0.0,-3.0029,0.0,0.0,-3.1075,-3.0995,-3.0658,-3.0187,-3.0187,-3.0206,-3.0286,-3.0914,-3.117,-3.1262,-3.1883,-3.1746,-3.123,-3.0741,-3.0856,0.0,0.0,0.0,-3.2358,-3.2996,-3.326,0.0,0.0,0.0,0.0,0.0,0.0,0.0,0.0,0.0,0.0,0.0,0.0,0.0,0.0,0.0,0.0,0.0,0.0,0.0,0.0,0.0,0.0,0.0,0.0,0.0,0.0,0.0,0.0,0.0,-3.5504,-3.5504,-3.5504,-3.5504,-3.5504,-3.5504,-3.5504,-3.5504,-3.5504,-3.5504,-3.5504,-3.5504,-3.5504,-3.5504,-3.5504,-3.5504,-3.5504,-3.5504,-3.5504,-3.5504,-3.5504,-3.5504,-3.5504,-3.5504,-3.5504,-3.5504,-3.5504,-3.5504,-3.5504,-3.5504,0.0,0.0,0.0,0.0,0.0,0.0,0.0,0.0,0.0,0.0,0.0,0.0,0.0,0.0,0.0,-2.505,-2.5118,-2.5287,-2.5709,-2.6031,-2.6353,-2.6691,-2.6691,-2.6691,-2.6691,-2.6691,-2.6691,0.0,0.0,0.0,0.0,-2.9597,-3.0169,0.0,0.0,0.0,0.0,0.0,-3.1291,-3.142,-3.142,-3.1504,-3.1687,-3.2297,-3.2365,-3.2184,-3.2779,-3.2823,-3.2629,-3.2758,-3.2709,-3.2714,-3.3143,0.0,0.0,0.0,-3.3582,0.0,0.0,0.0,0.0,0.0,0.0,0.0,0.0,0.0,0.0,0.0,0.0,0.0,0.0,0.0,0.0,0.0,0.0,0.0,0.0,0.0,0.0,0.0,0.0,0.0,0.0,0.0,0.0,0.0,-3.5504,-3.5504,-3.5504,-3.5504,-3.5504,-3.5504,-3.5504,-3.5504,-3.5504,-3.5504,-3.5504,-3.5504,-3.5504,-3.5504,-3.5504,-3.5504,-3.5504,-3.5504,-3.5504,-3.5504,-3.5504,-3.5504,-3.5504,-3.5504,-3.5504,-3.5504,-3.5504,-3.5504,-3.5504,-3.5504,0.0,0.0,0.0,0.0,0.0,0.0,0.0,0.0,0.0,0.0,0.0,0.0,0.0,0.0,0.0,0.0,-2.5879,-2.6116,-2.6657,-2.6691,-2.6691,-2.6691,-2.6691,-2.6691,-2.6691,-2.6691,0.0,0.0,0.0,0.0,-2.9044,-3.0702,-3.1481,0.0,-3.1681,0.0,0.0,0.0,0.0,0.0,0.0,0.0,0.0,0.0,0.0,-3.3367,-3.3797,-3.3964,-3.4027,-3.4398,-3.4172,-3.3884,-3.4411,-3.426,0.0,0.0,0.0,0.0,0.0,0.0,0.0,0.0,0.0,0.0,0.0,0.0,0.0,0.0,0.0,0.0,0.0,0.0,0.0,0.0,0.0,0.0,0.0,0.0,0.0,0.0,0.0,0.0,0.0,0.0,0.0,0.0,-3.5504,-3.5504,-3.5504,-3.5504,-3.5504,-3.5504,-3.5504,-3.5504,-3.5504,-3.5504,-3.5504,-3.5504,-3.5504,-3.5504,-3.5504,-3.5504,-3.5504,-3.5504,-3.5504,-3.5504,-3.5504,-3.5504,-3.5504,-3.5504,-3.5504,-3.5504,-3.5504,-3.5504,-3.5504,-3.5504,0.0,0.0,0.0,0.0,0.0,0.0,0.0,0.0,0.0,0.0,0.0,0.0,-2.6336,-2.5964,-2.5845,-2.6573,-2.664,-2.6657,-2.6691,-2.6691,-2.6691,-2.6691,-2.6691,0.0,-2.6691,-2.6691,0.0,0.0,0.0,0.0,-2.9044,-3.1227,-3.2242,-3.2276,-3.2966,-3.3288,-3.3288,0.0,0.0,0.0,0.0,0.0,0.0,0.0,0.0,0.0,0.0,0.0,-3.5374,-3.4804,-3.4574,-3.455,-3.46,-3.4592,-3.4688,0.0,0.0,0.0,0.0,0.0,0.0,0.0,0.0,0.0,0.0,0.0,0.0,0.0,0.0,0.0,0.0,0.0,0.0,0.0,0.0,0.0,0.0,0.0,0.0,0.0,0.0,0.0,0.0,0.0,0.0,0.0,-3.5504,-3.5504,-3.5504,-3.5504,-3.5504,-3.5504,-3.5504,-3.5504,-3.5504,-3.5504,-3.5504,-3.5504,-3.5504,-3.5504,-3.5504,-3.5504,-3.5504,-3.5504,-3.5504,-3.5504,-3.5504,-3.5504,-3.5504,-3.5504,-3.5504,-3.5504,-3.5504,-3.5504,-3.5504,-3.5504,0.0,0.0,0.0,0.0,0.0,0.0,0.0,0.0,0.0,0.0,0.0,0.0,0.0,-2.6454,-2.6404,-2.6674,-2.6691,-2.6691,-2.6691,-2.6691,-2.6691,-2.6691,-2.6691,-2.6911,-2.7384,-2.7401,0.0,0.0,0.0,-2.9448,-2.9044,-3.1261,-3.2564,-3.3017,-3.3288,-3.3406,-3.3406,-3.3406,0.0,0.0,0.0,0.0,0.0,0.0,0.0,0.0,0.0,0.0,0.0,-3.6253,-3.6015,-3.5931,-3.5404,-3.523,-3.5293,-3.5515,0.0,0.0,0.0,0.0,0.0,0.0,0.0,0.0,0.0,0.0,0.0,0.0,0.0,0.0,0.0,0.0,0.0,0.0,0.0,0.0,0.0,0.0,0.0,0.0,0.0,0.0,0.0,0.0,0.0,0.0,0.0,-3.6196,-3.6196,-3.575,-3.5504,-3.5504,-3.5504,-3.5504,-3.5504,-3.5504,-3.5504,-3.5504,-3.5504,-3.5504,-3.5504,-3.5504,-3.5504,-3.5504,-3.5504,-3.5504,-3.5504,-3.5504,-3.5504,-3.5504,-3.5504,-3.5504,-3.5504,-3.5504,-3.5504,-3.5504,0.0,0.0,0.0,0.0,0.0,0.0,0.0,0.0,0.0,0.0,0.0,0.0,0.0,0.0,-2.6691,-2.6691,-2.6928,-2.7063,-2.7063,-2.7317,-2.7469,-2.7469,-2.7469,-2.7689,-2.8197,-2.7942,0.0,0.0,0.0,0.0,0.0,-3.1379,-3.2564,-3.3034,-3.3288,-3.3677,0.0,0.0,0.0,-3.4506,0.0,0.0,-3.5616,0.0,0.0,0.0,0.0,0.0,0.0,0.0,0.0,0.0,-3.6248,-3.5802,-3.56,-3.56,0.0,0.0,0.0,0.0,0.0,0.0,0.0,0.0,0.0,0.0,0.0,0.0,0.0,0.0,0.0,0.0,0.0,0.0,0.0,0.0,0.0,0.0,0.0,0.0,0.0,0.0,0.0,0.0,0.0,0.0,0.0,0.0,-3.6994,-3.6538,-3.6133,-3.5863,-3.5863,-3.5863,-3.5863,-3.5863,-3.5863,-3.5863,-3.5619,-3.5504,-3.5504,-3.5504,-3.5504,-3.5504,-3.5504,-3.5504,-3.5504,-3.5504,-3.5504,-3.5504,-3.5504,-3.5504,-3.5504,-3.5504,-3.5504,-3.5504,0.0,0.0,0.0,0.0,0.0,0.0,0.0,0.0,0.0,-2.6046,0.0,0.0,0.0,0.0,0.0,-2.6792,-2.7435,-2.7841,-2.7841,-2.8569,-2.8993,-2.8993,-2.8993,-2.901,-2.9027,-2.8281,0.0,0.0,0.0,0.0,0.0,0.0,-3.2276,-3.2327,-3.3051,-3.4201,-3.5566,0.0,-3.5182,-3.4624,0.0,-3.565,-3.5752,0.0,0.0,0.0,-3.7939,-3.7956,0.0,-3.7939,0.0,0.0,0.0,0.0,0.0,0.0,0.0,0.0,0.0,0.0,0.0,0.0,0.0,0.0,0.0,0.0,0.0,0.0,0.0,0.0,0.0,0.0,0.0,0.0,0.0,0.0,0.0,0.0,0.0,0.0,0.0,0.0,0.0,0.0,0.0,0.0,-3.7851,-3.7835,-3.7835,-3.7806,-3.7456,-3.6661,-3.66,-3.66,-3.6646,-3.66,-3.66,-3.6646,-3.5926,-3.5569,-3.5537,-3.5537,-3.5537,-3.5504,-3.5537,-3.5537,-3.5537,-3.5504,-3.5504,-3.5504,-3.5504,-3.5504,-3.5504,-3.5504,-3.5504,-3.5504,0.0,0.0,0.0,0.0,0.0,0.0,0.0,0.0,0.0,0.0,0.0,0.0,-2.7503,-2.801,-2.8474,-2.8783,-2.8714,-2.8671,-2.8671,-2.8891,-2.8993,-2.8993,-2.8993,-2.9264,-2.9786,-2.9565,0.0,0.0,0.0,0.0,0.0,0.0,0.0,0.0,-3.2513,-3.3406,-3.4793,-3.4793,0.0,0.0,-3.6406,-3.6789,0.0,0.0,0.0,0.0,0.0,-3.9039,-3.9419,0.0,-3.87,-3.8565,0.0,0.0,0.0,0.0,0.0,0.0,-3.56,0.0,0.0,0.0,0.0,0.0,0.0,0.0,0.0,0.0,0.0,0.0,0.0,0.0,0.0,0.0,0.0,0.0,0.0,0.0,0.0,0.0,0.0,0.0,0.0,0.0,0.0,0.0,-3.8924,-3.8608,-3.8608,-3.8092,-3.7706,-3.7485,-3.6904,-3.6873,-3.7456,-3.6873,-3.6873,-3.7456,-3.7265,-3.6844,-3.6306,-3.6306,-3.6006,-3.5537,-3.6054,-3.6306,-3.6244,-3.5733,-3.5504,-3.5504,-3.5504,-3.5504,-3.5504,-3.5504,-3.5504,-3.5504,0.0,0.0,0.0,0.0,0.0,0.0,0.0,0.0,0.0,0.0,0.0,0.0,-2.8865,-2.9263,-2.964,-2.9868,-2.9952,-2.992,-2.9709,-2.9999,-3.0077,-2.9924,-2.9924,-3.0108,-3.0548,-3.026,0.0,0.0,0.0,0.0,0.0,0.0,0.0,0.0,0.0,0.0,0.0,0.0,0.0,0.0,-3.666,0.0,0.0,-3.8244,-3.8819,0.0,0.0,0.0,-4.0028,-3.9605,-3.9242,0.0,0.0,0.0,0.0,0.0,0.0,0.0,0.0,0.0,0.0,0.0,0.0,0.0,-3.8819,-3.8988,0.0,0.0,0.0,0.0,0.0,0.0,0.0,0.0,0.0,0.0,0.0,0.0,0.0,0.0,0.0,0.0,0.0,-4.0096,-4.0096,-4.0096,-3.9662,-3.9394,-3.9394,-3.8663,-3.8246,-3.8246,-3.7803,-3.7787,-3.8246,-3.7803,-3.7803,-3.8262,-3.795,-3.7544,-3.7084,-3.7084,-3.6874,-3.6492,-3.6889,-3.7084,-3.707,-3.6631,-3.6461,-3.643,-3.6101,-3.5943,-3.5926,-3.5619,-3.5504,-3.5504,0.0,0.0,0.0,0.0,0.0,0.0,0.0,0.0,0.0,0.0,-3.0591,-3.0483,-3.0617,-3.0589,-3.0574,-3.0635,-3.1162,-3.136,-3.0942,-3.1498,-3.1715,-3.1351,-3.1349,-3.1349,-3.1349,-3.0702,0.0,0.0,0.0,0.0,0.0,0.0,0.0,0.0,0.0,0.0,0.0,0.0,0.0,-3.5785,-3.6586,-3.7398,0.0,0.0,-3.9537,0.0,-4.0096,-4.0096,-4.0096,-4.0096,-3.9673,0.0,0.0,0.0,0.0,0.0,-3.7499,0.0,0.0,0.0,0.0,0.0,0.0,0.0,-3.8937,-3.8988,-3.8903,0.0,0.0,0.0,0.0,0.0,0.0,0.0,0.0,0.0,0.0,0.0,0.0,0.0,0.0,0.0,-4.0096,-4.0096,-4.0096,-4.0096,-4.0096,-4.0096,-4.0096,-3.9437,-3.9016,-3.9016,-3.8935,-3.8935,-3.9016,-3.8935,-3.8935,-3.9032,-3.8374,-3.8007,-3.7921,-3.7921,-3.7863,-3.7806,-3.7908,-3.7921,-3.7921,-3.8007,-3.7892,-3.7602,-3.698,-3.6676,-3.6523,-3.5863,-3.5683,-3.5733,-2.8638,0.0,0.0,0.0,0.0,0.0,0.0,0.0,0.0,0.0,0.0,-3.1555,-3.2523,-3.2299,-3.222,-3.261,-3.2408,-3.2254,-3.2137,-3.2279,-3.2333,-3.2248,-3.2265,-3.2265,-3.2265,-3.2107,0.0,0.0,0.0,0.0,0.0,0.0,0.0,0.0,0.0,0.0,0.0,0.0,0.0,-3.6643,-3.7381,0.0,-3.969,-3.9842,-3.9977,-4.0096,-4.0096,-4.0096,-4.0096,-4.0096,-4.0011,-3.9893,0.0,0.0,0.0,0.0,0.0,0.0,0.0,0.0,0.0,0.0,0.0,0.0,-3.9723,-3.8954,-3.8278,0.0,0.0,0.0,0.0,0.0,0.0,0.0,0.0,0.0,0.0,0.0,0.0,0.0,0.0,0.0,-4.0096,-4.0096,-4.0096,-4.0096,-4.0096,-4.0096,-4.0096,-3.9952,-3.9876,-3.9876,-3.9236,-3.9193,-3.9876,-3.9219,-3.9236,-3.9859,-3.9731,-3.9305,-3.869,-3.869,-3.8358,-3.7835,-3.8414,-3.869,-3.8745,-3.9385,-3.8553,-3.6873,-3.7368,-3.7174,-3.6584,-3.6446,-3.6783,-3.7265,-2.8932,0.0,0.0,0.0,0.0,0.0,0.0,0.0,0.0,0.0,0.0,0.0,0.0,0.0,0.0,-3.4732,-3.4531,-3.4312,-3.4069,-3.3679,-3.3333,-3.3101,-3.2492,-3.2144,-3.2144,-3.195,0.0,0.0,0.0,0.0,0.0,0.0,0.0,0.0,0.0,0.0,0.0,0.0,-3.5588,-3.7381,-3.7753,0.0,-3.9605,-3.996,-4.0096,-4.0096,-4.0096,-4.0096,-4.0096,-4.0096,-4.0096,0.0,0.0,-3.9859,-3.9554,0.0,-3.9022,-3.8531,0.0,0.0,0.0,-3.9469,0.0,0.0,0.0,-3.8971,-3.8447,-3.8447,0.0,0.0,0.0,0.0,0.0,0.0,0.0,0.0,0.0,0.0,0.0,0.0,0.0,0.0,-4.0096,-4.0096,-4.0096,-4.0096,-4.0096,-4.0096,-4.0096,-4.0096,-4.0096,-4.0096,-3.9714,-3.9688,-4.0113,-3.9705,-3.9705,-4.0096,-4.0096,-3.9901,-3.9489,-3.9489,-3.9305,-3.8968,-3.9332,-3.9489,-3.9516,-3.9927,-3.9183,-3.7787,-3.8173,-3.8088,-3.77,-3.7352,-3.7456,-3.7719,-2.9005,0.0,0.0,0.0,0.0,0.0,0.0,0.0,0.0,0.0,0.0,0.0,0.0,0.0,0.0,0.0,0.0,-3.615,0.0,0.0,0.0,-3.4218,-3.321,-3.2669,-3.2669,-3.2348,-3.2125,0.0,0.0,0.0,0.0,0.0,0.0,0.0,0.0,0.0,0.0,0.0,0.0,-3.7922,0.0,-3.8548,-3.9276,-3.9876,-4.0096,-4.0096,-4.0096,-4.0096,-4.0096,-4.0096,-4.0096,-4.0096,-4.0096,-4.0096,0.0,0.0,0.0,0.0,0.0,0.0,0.0,0.0,0.0,-3.9943,0.0,0.0,0.0,-3.8227,0.0,0.0,0.0,0.0,0.0,0.0,0.0,0.0,0.0,0.0,0.0,0.0,0.0,0.0,0.0,-3.969,-3.974,-3.9893,-3.9893,-3.996,-4.0096,-4.0096,-4.0096,-4.0096,-4.0096,-4.0096,-4.0096,-4.0096,-4.0096,-4.0096,-4.0096,-4.0096,-4.0096,-4.0096,-4.0096,-4.0096,-4.0096,-4.0096,-4.0096,-4.0096,-3.9731,-3.9139,-3.9139,-3.9032,-3.8827,-3.8218,-3.8121,-3.8206,-2.9005,-2.9005,0.0,0.0,0.0,0.0,0.0,0.0,0.0,0.0,0.0,0.0,0.0,0.0,0.0,0.0,0.0,0.0,-3.6208,0.0,0.0,0.0,-3.5868,-3.5783,-3.5783,-3.5753,-3.552,0.0,0.0,0.0,0.0,0.0,0.0,0.0,-3.4771,0.0,0.0,0.0,-3.706,0.0,-3.8616,-3.9334,0.0,-4.0079,-4.0096,-4.0096,-4.0096,-4.0096,-4.0096,0.0,-4.0096,-4.0096,0.0,-4.0096,-4.0096,0.0,0.0,0.0,0.0,0.0,0.0,0.0,-4.0096,0.0,0.0,0.0,-3.8971,-3.8886,0.0,0.0,0.0,0.0,0.0,0.0,0.0,0.0,0.0,0.0,0.0,0.0,0.0,0.0,0.0,-3.8159,-3.8413,-3.9073,-3.9106,-3.9419,-4.0079,-4.0096,-4.0096,-4.0096,-4.0096,-4.0096,-4.0096,-4.0096,-4.0096,-4.0096,-4.0096,-4.0096,-4.0096,-4.0096,-4.0096,-4.0096,-4.0096,-4.0096,-4.0096,-4.0096,-4.0045,-3.9952,-3.9952,-3.9516,-3.8881,-3.8799,-3.9236,-3.9731,-2.9097,-2.9372,0.0,0.0,0.0,0.0,0.0,0.0,0.0,0.0,0.0,0.0,0.0,0.0,0.0,0.0,0.0,-3.7698,0.0,0.0,0.0,0.0,0.0,0.0,-3.59,-3.5645,-3.5267,-3.4783,-3.5004,0.0,0.0,0.0,0.0,0.0,-3.5646,0.0,-3.5881,0.0,0.0,0.0,0.0,0.0,0.0,-4.0096,-4.0096,-4.0096,-4.0096,-4.0096,-4.0096,0.0,-4.0096,0.0,0.0,0.0,0.0,0.0,0.0,0.0,0.0,0.0,0.0,0.0,0.0,0.0,-4.0096,0.0,-3.8988,0.0,0.0,0.0,0.0,0.0,0.0,0.0,0.0,0.0,0.0,0.0,0.0,0.0,0.0,0.0,0.0,0.0,0.0,0.0,-3.8751,-3.9123,-3.9453,-3.9876,-4.0096,-4.0096,-4.0096,-4.0096,-4.0096,-4.0096,-4.0096,-4.0096,-4.0096,-4.0096,-4.0096,-4.0096,-4.0096,-4.0096,-4.0096,-4.0096,-4.0096,-4.0096,-4.0096,-4.0096,-4.0096,-3.9901,-3.961,-3.961,-3.9808,-4.0045,-2.9757,0.0,0.0,0.0,0.0,0.0,0.0,0.0,0.0,0.0,0.0,0.0,-3.7804,-3.834,0.0,0.0,-3.8707,-3.8707,0.0,0.0,-3.7841,0.0,0.0,0.0,0.0,0.0,-3.5774,-3.5436,0.0,0.0,0.0,0.0,0.0,0.0,0.0,-3.6482,-3.7007,0.0,0.0,-3.9005,-3.9208,-3.9622,-4.0096,-4.0096,-4.0096,-4.0096,-4.0096,-4.0096,-4.0096,-4.0096,-4.0096,0.0,-4.0096,0.0,0.0,0.0,0.0,0.0,-4.0096,0.0,0.0,0.0,0.0,0.0,0.0,0.0,0.0,0.0,0.0,0.0,0.0,0.0,0.0,0.0,0.0,0.0,0.0,0.0,0.0,0.0,0.0,0.0,0.0,0.0,0.0,-3.7584,-3.8091,-3.8565,-3.8971,-3.952,-3.9893,-4.0096,-4.0096,-4.0096,-4.0096,-4.0096,-4.0096,-4.0096,-4.0096,-4.0096,-4.0096,-4.0096,-4.0096,-4.0096,-4.0096,-4.0096,-4.0096,-4.0096,-4.0096,-4.0096,-4.0096,-4.0096,-4.0096,-4.0096,-4.0096,-4.0096,-3.1342,-3.1342,0.0,0.0,0.0,0.0,0.0,0.0,0.0,0.0,0.0,0.0,0.0,0.0,0.0,0.0,0.0,-3.8707,-3.8707,0.0,-3.867,0.0,0.0,-3.86,0.0,0.0,0.0,0.0,0.0,0.0,0.0,0.0,0.0,0.0,0.0,-3.6329,-3.7508,-3.775,-3.8311,-3.9056,-3.9791,-4.0079,-4.0096,0.0,-4.0096,-4.0096,-4.0096,0.0,0.0,-4.0096,-4.0096,0.0,0.0,0.0,0.0,0.0,0.0,0.0,0.0,0.0,0.0,-4.0096,0.0,0.0,0.0,0.0,-4.0062,0.0,0.0,0.0,0.0,0.0,0.0,0.0,0.0,0.0,0.0,0.0,0.0,0.0,0.0,0.0,0.0,0.0,0.0,-3.6778,-3.6863,-3.7506,-3.8903,-3.9005,-3.9343,-4.0079,-4.0096,-4.0096,-4.0096,-4.0096,-4.0096,-4.0096,-4.0096,-4.0096,-4.0096,-4.0096,-4.0096,-4.0096,-4.0096,-4.0096,-4.0096,-4.0096,-4.0096,-4.0096,-4.0096,-4.0096,-4.0096,-4.0096,-4.0096,-4.0096,0.0,0.0,0.0,0.0,0.0,0.0,0.0,-3.5298,0.0,0.0,0.0,0.0,0.0,-4.0288,-4.0288,0.0,0.0,-4.0288,-4.0288,-4.0288,0.0,0.0,0.0,-3.9478,0.0,0.0,0.0,0.0,0.0,0.0,0.0,0.0,0.0,0.0,0.0,-3.7259,0.0,0.0,0.0,0.0,0.0,-4.0631,-4.0601,0.0,0.0,-4.0096,-4.0096,-4.0096,0.0,-4.0096,-4.0096,-4.0171,-4.0521,-4.0631,-4.0703,-4.1105,-4.0943,0.0,0.0,0.0,-4.0096,-4.0096,0.0,0.0,0.0,0.0,0.0,0.0,0.0,0.0,0.0,0.0,0.0,0.0,0.0,0.0,0.0,0.0,0.0,0.0,0.0,0.0,0.0,0.0,0.0,-3.5994,-3.6485,-3.7235,-3.8227,-3.8734,-3.9351,-4.0079,-4.0096,-4.0096,-4.0096,-4.0096,-4.0096,-4.0096,-4.0096,-4.0096,-4.0096,-4.0096,-4.0096,-4.0096,-4.0096,-4.0096,-4.0096,-4.0096,-4.0096,-4.0096,-4.0096,-4.0096,-4.0096,-4.0096,-4.0096,-4.0096,-3.4082,0.0,0.0,0.0,0.0,0.0,0.0,0.0,0.0,0.0,-3.9662,0.0,-4.104,0.0,-4.1095,0.0,-4.1095,-4.1095,-4.1095,-4.1095,0.0,-4.1095,-4.0598,0.0,0.0,0.0,0.0,0.0,0.0,-3.8303,0.0,0.0,0.0,0.0,0.0,0.0,0.0,0.0,-3.9546,0.0,0.0,-4.1223,0.0,0.0,-4.057,-4.0417,0.0,-4.0696,-4.0696,-4.0696,-4.0696,-4.0767,-4.111,-4.1223,-4.1291,-4.1686,-4.1534,-4.1223,-4.1223,-4.0984,0.0,-4.0441,-4.0392,0.0,-4.0146,0.0,0.0,0.0,0.0,0.0,0.0,0.0,0.0,0.0,0.0,0.0,0.0,-3.56,0.0,0.0,0.0,0.0,0.0,0.0,-3.56,-3.56,-3.6349,-3.7134,0.0,0.0,-3.9351,-4.0079,-4.0096,-4.0096,-4.0096,-4.0096,-4.0096,-4.0096,-4.0096,-4.0096,-4.0096,-4.0096,-4.0096,-4.0096,-4.0096,-4.0096,-4.0096,-4.0096,-4.0096,-4.0096,-4.0096,-4.0096,-4.0096,-4.0096,-4.0096,-4.0096,0.0,0.0,0.0,0.0,-3.4582,0.0,0.0,0.0,-3.8726,0.0,-4.0178,-4.1168,-4.1205,-4.1224,-4.1224,-4.1224,-4.1224,-4.1224,-4.1224,-4.1224,0.0,0.0,-4.1168,-4.115,-4.115,0.0,0.0,0.0,0.0,0.0,0.0,0.0,0.0,0.0,-3.7703,0.0,-4.0184,-3.9745,-4.0433,-4.1835,-4.1835,-4.1835,-4.1835,-4.1835,-4.149,-4.1064,-4.1599,-4.181,-4.181,-4.181,-4.181,-4.181,-4.1832,-4.1835,-4.1853,-4.1874,-4.1874,-4.1835,-4.1835,-4.1814,-4.1664,-4.1087,-4.0949,0.0,0.0,0.0,-4.0179,0.0,0.0,0.0,0.0,0.0,0.0,0.0,0.0,0.0,0.0,0.0,0.0,0.0,0.0,0.0,0.0,-3.56,-3.56,-3.56,-3.6349,0.0,0.0,0.0,-3.9351,-4.0079,-4.0096,-4.0096,-4.0096,-4.0096,-4.0096,-4.0096,-4.0096,-4.0096,-4.0096,-4.0096,-4.0096,-4.0096,-4.0096,-4.0096,-4.0096,-4.0096,-4.0096,-4.0096,-4.0096,-4.0096,-4.0096,-4.0096,-4.0096,-4.0096,-3.4968,-3.5518,-3.6083,0.0,-3.6229,-3.6248,0.0,0.0,0.0,0.0,-4.1352,-4.2213,-4.2818,-4.2873,-4.2873,-4.2873,-4.2873,0.0,0.0,0.0,0.0,-4.2873,-4.2304,-4.1992,-4.1992,-4.0818,0.0,-3.99,0.0,0.0,-3.8692,0.0,0.0,0.0,0.0,0.0,-4.022,-4.0335,-4.1192,-4.248,-4.248,-4.248,0.0,0.0,-4.2362,-4.2203,-4.1916,-4.181,-4.181,-4.181,-4.181,-4.1874,-4.2322,-4.248,-4.2539,-4.2958,-4.279,-4.248,-4.248,-4.2142,-4.175,-4.1599,-4.1578,-4.1534,0.0,0.0,0.0,0.0,0.0,0.0,0.0,0.0,0.0,0.0,0.0,0.0,0.0,0.0,0.0,-3.56,0.0,0.0,0.0,-3.56,-3.56,-3.56,-3.6349,0.0,0.0,0.0,0.0,-4.0079,-4.0096,-4.0096,-4.0096,-4.0096,-4.0096,-4.0096,-4.0096,-4.0096,-4.0096,-4.0096,-4.0096,-4.0096,-4.0096,-4.0096,-4.0096,-4.0096,-4.0096,-4.0096,-4.0096,-4.0096,-4.0096,-4.0096,-4.0096,-4.0096,-3.6028,0.0,0.0,-3.7936,0.0,0.0,-3.8484,0.0,0.0,-4.093,-4.1809,0.0,-4.2928,-4.3277,-4.3515,-4.3515,-4.3515,0.0,-4.3515,0.0,0.0,-4.3515,-4.3057,-4.2818,-4.2818,-4.1589,0.0,-4.0414,0.0,0.0,-3.8707,0.0,0.0,0.0,0.0,-3.9341,0.0,-4.1016,-4.2029,-4.305,-4.305,0.0,0.0,-4.305,-4.305,-4.3014,-4.2676,-4.2542,-4.2542,-4.2542,-4.2542,-4.26,-4.294,-4.305,-4.3124,-4.341,-4.3304,-4.305,-4.305,-4.2809,-4.2483,-4.2244,-4.2183,-4.2121,-4.1874,-4.181,-4.181,0.0,-4.181,-4.1789,0.0,0.0,0.0,0.0,0.0,0.0,0.0,0.0,0.0,0.0,-3.6129,0.0,0.0,0.0,-3.56,-3.56,0.0,0.0,0.0,0.0,0.0,-4.0079,-4.0096,-4.0096,-4.0096,-4.0096,-4.0096,-4.0096,-4.0096,-4.0096,-4.0096,-4.0096,-4.0096,-4.0096,-4.0096,-4.0096,-4.0096,-4.0096,-4.0096,-4.0096,-4.0096,-4.0096,-4.0096,-4.0096,-4.0096,-4.0096,0.0,0.0,0.0,0.0,0.0,0.0,0.0,-4.0139,0.0,-4.1185,0.0,-4.2451,-4.2451,-4.3075,-4.3515,-4.3515,0.0,-4.3515,-4.3515,-4.3515,-4.3515,-4.3515,-4.3515,-4.3515,-4.3515,-4.2598,-4.1809,0.0,0.0,0.0,0.0,0.0,0.0,0.0,0.0,0.0,0.0,-4.1717,-4.2763,0.0,-4.3515,-4.3515,-4.3515,-4.3515,-4.3515,-4.3515,-4.3515,-4.3515,-4.3515,-4.3515,-4.3515,-4.3515,-4.3515,-4.3515,-4.3515,-4.3515,-4.3515,-4.3515,-4.3515,-4.3515,-4.3392,-4.292,-4.2789,-4.2674,-4.2144,-4.2021,-4.2021,-4.2021,-4.2021,-4.2144,0.0,0.0,0.0,0.0,0.0,0.0,0.0,0.0,0.0,0.0,0.0,0.0,0.0,0.0,0.0,0.0,0.0,0.0,0.0,0.0,0.0,-3.9943,-4.0045,-4.0096,-4.0096,0.0,-4.0096,-4.0096,-4.0096,-4.0096,-4.0096,-4.0096,-4.0096,-4.0096,-4.0096,-4.0096,-4.0096,-4.0096,-4.0096,-4.0096,-4.0096,-4.0096,-4.0096,-4.0096,-4.0096,-4.0096,0.0,0.0,0.0,0.0,0.0,-4.012,-4.0799,-4.146,-4.1937,-4.2066,-4.2782,-4.3277,-4.3277,-4.3423,-4.3515,-4.3515,-4.3515,0.0,0.0,0.0,0.0,-4.3515,-4.3515,-4.3515,-4.3515,-4.2066,-4.1242,0.0,0.0,0.0,0.0,0.0,0.0,0.0,0.0,0.0,-4.1901,-4.2176,0.0,-4.3515,-4.3515,-4.3515,-4.3515,-4.3515,-4.3515,-4.3515,-4.3515,-4.3515,-4.3515,-4.3515,-4.3515,-4.3515,-4.3515,-4.3515,-4.3515,-4.3515,-4.3515,-4.3515,-4.3515,-4.3515,-4.3479,-4.3392,-4.3375,-4.3321,-4.3232,-4.3196,-4.3196,-4.3196,-4.3196,-4.3105,-4.2769,0.0,0.0,0.0,0.0,0.0,0.0,0.0,0.0,0.0,0.0,0.0,0.0,0.0,0.0,0.0,0.0,0.0,0.0,0.0,0.0,0.0,-3.9791,0.0,0.0,0.0,-4.0096,-4.0096,-4.0096,-4.0096,-4.0096,-4.0096,-4.0096,-4.0096,-4.0096,-4.0096,-4.0096,-4.0096,-4.0096,-4.0096,-4.0096,-4.0096,-4.0096,-4.0096,-4.0096,-4.0096,0.0,0.0,0.0,0.0,0.0,0.0,0.0,-4.2415,0.0,-4.2359,-4.2635,-4.2873,-4.2873,-4.324,-4.3515,-4.3515,-4.3112,-4.2873,-4.2873,-4.2873,-4.2873,-4.2873,-4.3277,0.0,-4.3515,-4.2323,-4.1517,-4.1095,0.0,0.0,0.0,0.0,0.0,0.0,0.0,-4.0561,0.0,0.0,0.0,-4.3515,-4.3515,-4.3515,-4.3515,-4.3515,-4.3515,-4.3515,-4.3515,-4.3515,-4.3515,-4.3515,-4.3515,-4.3515,-4.3515,-4.3515,-4.3515,-4.3515,-4.3515,-4.3515,-4.3515,-4.3515,-4.3515,-4.3515,-4.3515,-4.3515,-4.3515,-4.3515,-4.3515,-4.3515,-4.3515,-4.3427,-4.316,-4.2595,0.0,0.0,0.0,0.0,0.0,0.0,0.0,0.0,0.0,0.0,0.0,0.0,0.0,0.0,0.0,0.0,0.0,0.0,0.0,0.0,0.0,0.0,0.0,0.0,0.0,-4.0096,-4.0096,-4.0096,-4.0096,-4.0096,-4.0096,-4.0096,-4.0096,-4.0096,-4.0096,-4.0096,-4.0096,-4.0096,-4.0096,-4.0096,-4.0096,-4.0096,-4.0096,-4.0096,0.0,-3.8964,0.0,0.0,-4.0818,0.0,-4.2194,-4.2983,-4.3276,-4.2635,-4.2561,-4.2561,-4.2561,-4.3112,-4.3515,-4.3515,-4.291,-4.2488,-4.2304,-4.2304,-4.2304,-4.2304,-4.291,-4.3331,-4.3515,-4.2708,-4.1992,0.0,0.0,0.0,0.0,0.0,0.0,0.0,0.0,0.0,0.0,0.0,-4.2763,-4.3515,-4.3515,-4.3515,-4.3515,-4.3515,-4.3515,-4.3515,-4.3515,-4.3515,-4.3515,-4.3515,-4.3515,-4.3515,-4.3515,-4.3515,-4.3515,-4.3515,-4.3515,-4.3515,-4.3515,-4.3515,-4.3515,-4.3515,-4.3515,-4.3515,-4.3515,-4.3515,-4.3515,-4.3515,-4.3515,-4.3515,-4.3515,-4.3515,0.0,0.0,0.0,0.0,0.0,0.0,0.0,0.0,0.0,0.0,0.0,0.0,0.0,0.0,0.0,0.0,0.0,0.0,0.0,0.0,0.0,-4.0096,-4.0096,0.0,-4.0096,-4.0096,-4.0096,-4.0096,-4.0096,-4.0096,-4.0096,-4.0096,-4.0096,-4.0096,-4.0096,-4.0096,-4.0096,-4.0096,-4.0096,-4.0096,-4.0096,-4.0096,-4.0096,-4.0096,0.0,0.0,0.0,0.0,0.0,0.0,-4.2286,-4.2983,-4.3478,-4.3387,-4.3404,-4.3404,-4.3404,-4.346,-4.3515,-4.3515,-4.3441,-4.3075,-4.2359,-4.2304,-4.2304,-4.2304,-4.2378,-4.2745,-4.3478,-4.2708,-4.2268,0.0,0.0,-3.9845,0.0,0.0,0.0,0.0,0.0,0.0,0.0,-4.2268,-4.2763,-4.3515,-4.3515,-4.3515,-4.3515,-4.3515,-4.3515,-4.3515,-4.3515,-4.3515,-4.3515,-4.3515,-4.3515,-4.3515,-4.3515,-4.3515,-4.3515,-4.3515,-4.3515,-4.3515,-4.3515,-4.3515,-4.3515,-4.3515,-4.3515,-4.3515,-4.3515,-4.3515,-4.3515,-4.3515,-4.3515,-4.3515,-4.3515,-4.3515,-4.3515,0.0,0.0,0.0,0.0,0.0,0.0,0.0,0.0,0.0,0.0,-3.7078,0.0,0.0,0.0,0.0,0.0,0.0,0.0,-3.8007,0.0,-4.0096,-4.0096,-4.0096,-4.0096,-4.0096,-4.0096,-4.0096,-4.0096,-4.0096,-4.0096,-4.0096,-4.0096,-4.0096,-4.0096,-4.0096,-4.0096,-4.0096,-4.0096,-4.0096,-4.0096,-4.0096,-4.0096,-4.0096,0.0,0.0,0.0,0.0,0.0,0.0,0.0,-4.3277,-4.3515,-4.3515,-4.3515,-4.3515,-4.3515,-4.3515,-4.3515,-4.3515,-4.3057,-4.2635,-4.2323,-4.1864,-4.1809,-4.2286,-4.2304,-4.2671,-4.3478,-4.3167,-4.2782,0.0,0.0,0.0,0.0,0.0,0.0,0.0,0.0,-4.1699,-4.2323,-4.2818,-4.3221,-4.3515,-4.3515,-4.3515,-4.3515,-4.3515,-4.3515,-4.3515,-4.3515,-4.3515,-4.3515,-4.3515,-4.3515,-4.3515,-4.3515,-4.3515,-4.3515,-4.3515,-4.3515,-4.3515,-4.3515,-4.3515,-4.3515,-4.3515,-4.3515,-4.3515,-4.3515,-4.3515,-4.3515,-4.3515,-4.3515,-4.3515,-4.3515,-4.3515,-4.3515,0.0,0.0,0.0,0.0,0.0,0.0,0.0,0.0,0.0,0.0,0.0,0.0,0.0,0.0,0.0,0.0,0.0,0.0,-3.8548,0.0,-4.0096,-4.0096,-4.0096,-4.0096,-4.0096,-4.0096,-4.0096,-4.0096,-4.0096,-4.0096,-4.0096,-4.0096,-4.0096,-4.0096,-4.0096,-4.0096,-4.0096,-4.0096,-4.0096,-4.0146,-4.0449,-4.0577,-4.0625,-4.1407,0.0,-4.1717,0.0,-4.2653,-4.2837,-4.3423,-4.3515,-4.3515,-4.3515,-4.3515,-4.3423,-4.3167,-4.3149,-4.3149,-4.3149,-4.2837,-4.2543,-4.2323,-4.1772,-4.1717,-4.2286,-4.2304,0.0,-4.3478,-4.3515,-4.3222,-4.2653,-4.2415,0.0,0.0,0.0,0.0,0.0,-4.2047,-4.2433,-4.269,-4.3259,-4.3515,-4.3515,-4.3515,-4.3515,-4.3515,-4.3515,-4.3515,-4.3515,-4.3515,-4.3515,-4.3515,-4.3515,-4.3515,-4.3515,-4.3515,-4.3515,-4.3515,-4.3515,-4.3515,-4.3515,-4.3515,-4.3515,-4.3515,-4.3515,-4.3515,-4.3515,-4.3515,-4.3515,-4.3515,-4.3515,-4.3515,-4.3515,-4.3515,-4.3515,-4.3515,-4.3515,0.0,0.0,0.0,0.0,0.0,0.0,-4.0261,-3.9364,-3.8567,0.0,0.0,0.0,0.0,0.0,0.0,0.0,0.0,0.0,0.0,0.0,0.0,-4.0254,-4.0254,-4.0096,-4.0096,-4.0096,-4.0096,-4.0096,-4.0096,-4.0096,-4.0096,-4.0096,-4.0096,-4.0096,-4.0096,-4.0096,-4.0096,-4.0096,-4.0146,-4.0546,-4.0756,-4.0972,-4.2139,-4.2286,-4.2543,-4.3349,-4.3496,-4.3496,-4.3515,-4.3515,-4.3515,-4.3515,-4.3515,-4.3185,-4.2396,-4.2304,-4.2304,-4.2304,-4.302,-4.3149,-4.2359,-4.2286,-4.2286,0.0,0.0,-4.2671,-4.3478,-4.3515,-4.3515,-4.3496,0.0,0.0,-4.2268,0.0,-4.1517,-4.2286,-4.2304,-4.2745,-4.3496,-4.3515,-4.3515,-4.3515,-4.3515,-4.3515,-4.3515,-4.3515,-4.3515,-4.3515,-4.3515,-4.3515,-4.3515,-4.3515,-4.3515,-4.3515,-4.3515,-4.3515,-4.3515,-4.3515,-4.3515,-4.3515,-4.3515,-4.3515,-4.3515,-4.3515,-4.3515,-4.3515,-4.3515,-4.3515,-4.3515,-4.3515,-4.3515,-4.3515,-4.3515,-4.3515,-4.3515,-4.3515,0.0,0.0,0.0,0.0,0.0,0.0,-4.1095,-4.0765,-3.9955,0.0,0.0,0.0,0.0,0.0,0.0,0.0,0.0,-3.8971,-4.0229,0.0,-4.0113,-4.0625,-4.0607,-4.0096,-4.0096,-4.0096,-4.0096,-4.0096,-4.0096,-4.0096,-4.0096,-4.0096,-4.0096,-4.0096,-4.0096,-4.0096,-4.0096,-4.0096,-4.0096,-4.0096,-4.0449,-4.0903,-4.3057,-4.3112,-4.3185,-4.346,-4.3515,-4.3515,-4.3515,-4.3515,-4.3313,-4.2745,-4.2194,-4.157,-4.0744,-4.1644,-4.2304,0.0,-4.2525,-4.28,0.0,-4.2598,-4.2543,-4.3075,-4.2598,-4.2671,-4.3478,-4.3515,-4.3515,-4.3515,0.0,0.0,0.0,-4.2855,-4.2873,-4.3112,-4.3112,-4.3259,-4.3515,-4.3515,-4.3515,-4.3515,-4.3515,-4.3515,-4.3515,-4.3515,-4.3515,-4.3515,-4.3515,-4.3515,-4.3515,-4.3515,-4.3515,-4.3515,-4.3515,-4.3515,-4.3515,-4.3515,-4.3515,-4.3515,-4.3515,-4.3515,-4.3515,-4.3515,-4.3515,-4.3515,-4.3515,-4.3515,-4.3515,-4.3515,-4.3515,-4.3515,-4.3515,-4.3515,-4.3515,-4.3515,-4.3515,0.0,0.0,0.0,0.0,0.0,-4.1095,-4.1003,0.0,-3.9878,0.0,0.0,0.0,0.0,0.0,0.0,0.0,0.0,-4.0723,0.0,-4.0655,-4.1223,-4.1424,-4.1241,-4.0844,-4.0449,-4.0121,-4.0473,-4.0655,-4.0655,-4.1082,-4.1263,-4.1263,-4.1263,-4.1263,-4.1263,-4.1263,-4.1263,-4.1308,-4.1721,-4.1976,-4.2183,-4.3515,-4.3515,-4.3515,-4.3515,-4.3515,-4.3515,-4.3515,-4.3515,-4.3221,-4.2415,-4.1864,-4.113,-4.001,-4.0799,0.0,-4.1405,-4.168,-4.2194,-4.3002,-4.258,-4.2653,-4.346,-4.302,-4.2983,-4.3496,-4.3515,0.0,-4.3515,-4.3515,-4.3515,-4.3496,-4.3185,-4.3221,-4.3496,-4.3167,-4.3222,-4.3478,-4.3167,-4.3039,-4.302,-4.2708,-4.2598,-4.2598,-4.2598,-4.2782,-4.3039,-4.3039,-4.3239,-4.3515,-4.3515,-4.3515,-4.3515,-4.3515,-4.3515,-4.3515,-4.3515,-4.3515,-4.3515,-4.3515,-4.3515,-4.3515,-4.3515,-4.3515,-4.3515,-4.3515,-4.3515,-4.3515,-4.3515,-4.3515,-4.3515,-4.3515,-4.3515,-4.3515,-4.3515,-4.324,-4.2873,-4.2378,0.0,0.0,0.0,0.0,0.0,0.0,-4.0515,-3.9724,0.0,0.0,0.0,0.0,0.0,0.0,-4.1263,-4.1486,0.0,-4.1246,-4.1832,-4.2021,-4.181,-4.1424,-4.1059,-4.0744,-4.1082,-4.1246,-4.1268,-4.1643,-4.181,-4.181,-4.181,-4.181,-4.181,-4.181,-4.181,-4.1853,-4.2223,-4.25,-4.275,-4.3582,-4.3582,-4.3582,0.0,-4.3548,0.0,-4.3531,-4.3513,-4.3185,-4.2323,-4.2213,-4.1607,-3.9992,-3.9808,-3.9808,-3.9808,0.0,0.0,0.0,-4.2304,-4.2653,-4.346,-4.3515,-4.3515,-4.3515,-4.3515,-4.3515,-4.3515,-4.3515,-4.3478,-4.3387,-4.2653,-4.2671,-4.3313,-4.2543,-4.2635,-4.3277,-4.2525,-4.2213,-4.2158,-4.1389,-4.1095,-4.1095,-4.1095,-4.157,-4.2213,-4.2213,-4.269,-4.3331,-4.3331,-4.3331,-4.3331,-4.3331,-4.3369,-4.3441,-4.3478,-4.3515,-4.3515,-4.3515,-4.3515,-4.3515,-4.3515,-4.3515,-4.3515,-4.3515,-4.3515,-4.3515,-4.3515,-4.3515,-4.3515,-4.3515,-4.3515,-4.3478,-4.3441,-4.2782,-4.2268,-4.2158,0.0,0.0,0.0,0.0,0.0,0.0,-4.1625,-4.0799,0.0,0.0,0.0,0.0,0.0,-4.0354,-4.1821,-4.242,-4.244,-4.1874,-4.246,-4.2442,-4.1874,-4.1874,-4.1853,-4.181,-4.1835,-4.1874,-4.1874,-4.1898,-4.1937,-4.1937,-4.1937,-4.1937,-4.1937,-4.1937,-4.1937,-4.1937,-4.1937,-4.2264,-4.2769,0.0,0.0,-4.4337,-4.4337,-4.4076,-4.3881,-4.3881,-4.3662,-4.2983,-4.1572,-4.137,-4.0781,-3.9166,-3.8982,-3.8982,-3.8982,-3.9717,-4.0781,-4.2213,-4.2304,-4.2653,-4.346,-4.3515,-4.3515,-4.3515,-4.3515,-4.3515,-4.3515,-4.3515,-4.3185,-4.258,-4.2396,-4.2066,-4.1645,-4.1462,-4.148,-4.1645,-4.1462,-4.137,-4.137,-4.1168,-4.1095,-4.1095,-4.1095,-4.1224,-4.137,-4.137,-4.1499,-4.168,-4.168,-4.168,-4.168,-4.168,-4.2084,-4.269,-4.3331,-4.3515,-4.3515,-4.3515,-4.3515,-4.3515,-4.3515,-4.3515,-4.3515,-4.3515,-4.3515,-4.3515,-4.3515,-4.3515,-4.3515,-4.3515,-4.3515,-4.3313,-4.2671,-4.2415,-4.1864,-4.0634,-4.0671,0.0,0.0,-4.1772,-4.2323,-4.313,-4.1937,-4.1022,0.0,0.0,0.0,0.0,-4.1442,-4.1905,-4.2464,-4.2616,-4.2635,-4.248,-4.3032,-4.3032,-4.248,-4.248,-4.2262,-4.1832,-4.2282,-4.248,-4.2519,-4.2903,-4.3087,-4.3087,-4.3087,-4.3087,-4.3087,-4.3087,-4.3087,-4.3087,-4.3087,-4.3178,-4.3303,-4.4593,-4.4593,-4.4593,-4.4593,-4.4433,-4.4261,-4.4261,-4.4106,-4.3543,-4.2273,-4.1793,-4.1072,-3.9835,-3.9356,-3.9064,-3.8898,-3.9163,-3.9882,-4.1111,-4.1552,-4.1956,-4.2378,-4.2763,-4.2782,-4.2415,-4.2396,-4.2396,-4.2396,-4.2396,-4.2176,-4.1754,-4.1387,-4.1167,-4.1077,-4.0726,-4.0763,-4.1077,-4.0726,-4.0561,-4.0524,-4.0141,-3.9994,-3.9994,-3.9994,-4.023,-4.0561,-4.0561,-4.0799,-4.1095,-4.1095,-4.1095,-4.115,-4.1534,-4.1956,-4.2451,-4.3259,-4.3515,-4.3515,-4.3515,-4.3515,-4.3515,-4.3515,-4.3515,-4.3515,-4.3515,-4.3515,-4.3515,-4.3515,-4.3515,-4.3515,-4.3515,-4.3185,-4.28,-4.2378,-4.168,-4.0891,-4.001,-4.0286,0.0,-4.1058,-4.1809,-4.2616,-4.3423,-4.2378,-4.1662,-4.1662,-4.124,0.0,-4.1644,-4.2415,-4.2918,-4.3069,-4.3087,-4.3087,-4.3087,-4.3357,-4.3357,-4.3087,-4.3087,-4.2884,-4.2581,-4.2921,-4.3087,-4.3069,-4.3375,-4.3515,-4.3515,-4.3515,-4.3515,-4.3515,-4.3515,-4.3515,-4.3515,-4.3515,-4.3515,-4.3515,-4.4745,-4.4745,-4.4745,-4.4745,-4.4707,-4.4688,-4.4688,-4.4618,-4.4291,-4.3416,-4.2611,-4.18,-4.0993,-4.012,-3.9493,-3.9199,-3.8966,-3.9142,-3.9843,-4.0543,-4.1022,-4.126,-4.1827,-4.1864,-4.1279,-4.115,-4.1095,-4.1095,-4.1095,-4.104,-4.0893,-4.0212,-4.0194,-4.071,-4.0029,-4.0102,-4.0691,-4.001,-3.9717,-3.9662,-3.8982,-3.8707,-3.8707,-3.8707,-3.9129,-3.9717,-3.9717,-4.0157,-4.0747,-4.0875,-4.0912,-4.1058,-4.1882,-4.2194,-4.2433,-4.3112,-4.3387,-4.3515,-4.3515,-4.3515,-4.3515,-4.3515,-4.3515,-4.3515,-4.3515,-4.3515,-4.3515,-4.3515,-4.3515,-4.346,-4.3332,-4.2763,-4.2213,-4.1974,-4.0781,-3.99,-3.99,0.0,-4.0377,-4.1187,-4.1882,-4.2616,-4.3423,-4.2653,-4.2176,-4.2286,-4.2304,-4.2304,-4.2304,-4.3057,-4.3515,-4.3515,-4.3515,-4.3515,-4.3515,-4.3515,-4.3515,-4.3515,-4.3515,-4.3515,-4.3515,-4.3515,-4.3515,-4.3515,-4.3515,-4.3515,-4.3515,-4.3515,-4.3515,-4.3515,-4.3515,-4.3515,-4.3515,-4.3515,-4.3515,-4.3515,-4.5438,-4.5438,-4.5438,-4.5438,-4.5211,-4.5011,-4.5011,-4.4769,-4.4291,-4.3416,-4.2611,-4.18,-4.0993,-4.012,-3.9587,-3.9529,-3.9481,-3.9597,-3.9874,-4.001,-4.0689,-4.2047,-4.1572,-4.1535,-4.2103,-4.1444,-4.1095,-4.1095,-4.1095,-4.0747,-4.0084,-3.9955,-3.9606,-3.9074,-3.8946,-3.8964,-3.9074,-3.8946,-3.8891,-3.8891,-3.8762,-3.8707,-3.8707,-3.8707,-3.8781,-3.8891,-3.8891,-3.8982,-3.9184,-3.9863,-4.0084,-4.023,-4.1022,-4.1754,-4.2323,-4.2451,-4.2965,-4.3515,-4.3515,-4.3515,-4.3515,-4.3515,-4.3515,-4.3515,-4.3515,-4.3515,-4.3515,-4.3515,-4.3515,-4.3277,-4.2598,-4.2378,-4.1846,-4.0487,-4.0047,-3.99,-3.99,0.0,-4.1205,-4.2029,-4.2213,-4.2616,-4.3423,-4.2158,-4.1572,-4.2249,-4.2304,-4.2304,-4.2304,-4.3057,-4.3515,-4.3515,-4.3515,-4.3515,-4.3515,-4.3515,-4.3515,-4.3515,-4.3515,-4.3515,-4.3515,-4.3515,-4.3515,-4.3515,-4.3515,-4.3515,-4.3515,-4.3515,-4.3515,-4.3515,-4.3515,-4.3515,-4.3515,-4.3515,-4.3515,-4.3515,-4.5594,-4.5594,-4.5594,-4.5594,-4.5476,-4.5362,-4.5362,-4.5243,-4.4987,-4.4597,-4.3422,-4.2506,-4.2134,-4.0883,-4.0024,-3.9891,-3.988,-3.9826,-3.9744,-4.0151,-4.0444,-4.0555,-4.1092,-4.1261,-4.1018,-4.023,-3.9811,-3.9811,-3.9811,-3.9625,-3.9239,-3.9239,-3.9056,-3.8707,-3.8707,-3.8707,-3.8707,-3.8707,-3.8707,-3.8707,-3.8707,-3.8707,-3.8707,-3.8707,-3.8707,-3.8707,-3.8707,-3.8707,-3.8817,-3.9625,-3.99,-4.012,-4.1368,-4.2011,-4.2396,-4.2818,-4.3221,-4.3515,-4.3515,-4.3515,-4.3515,-4.3515,-4.3515,-4.3515,-4.3515,-4.3515,-4.3515,-4.3515,-4.3515,-4.3404,-4.3002,-4.2249,-4.1423,-4.0671,-4.0175,0.0,0.0,-4.0965,-4.1735,-4.1645,-4.2415,-4.291,-4.2855,-4.2561,-4.2543,-4.291,-4.2947,-4.2947,-4.2947,-4.3313,-4.3515,-4.3515,-4.3515,-4.3515,-4.3515,-4.3515,-4.3515,-4.3515,-4.3515,-4.3515,-4.3515,-4.3515,-4.3515,-4.3515,-4.3515,-4.3515,-4.3515,-4.3515,-4.3515,-4.3515,-4.3515,-4.3515,-4.3515,-4.3515,-4.3515,-4.3515,-4.5594,-4.5594,-4.5594,-4.5594,-4.5594,-4.5594,-4.5594,-4.5594,-4.5594,-4.5594,-4.4297,-4.3374,-4.3374,-4.2008,-4.102,-4.0816,-4.0807,-4.0606,-4.0144,-4.0699,-4.0566,-3.9543,-4.0923,-4.1208,-4.0152,-3.9438,-3.9006,-3.8788,-3.8735,-3.8707,-3.8707,-3.8707,-3.8707,-3.8707,-3.8707,-3.8707,-3.8707,-3.8707,-3.8707,-3.8707,-3.8707,-3.8707,-3.8707,-3.8707,-3.8707,-3.8707,-3.8707,-3.8707,-3.8854,-3.9845,-4.0175,-4.0451,-4.2066,-4.258,-4.269,-4.3331,-4.3515,-4.3515,-4.3515,-4.3515,-4.3515,-4.3515,-4.3515,-4.3515,-4.3515,-4.3515,-4.3515,-4.3515,-4.3515,-4.3441,-4.3259,-4.2213,-4.1315,-4.1132,0.0,0.0,0.0,-4.1515,-4.2066,-4.1444,-4.2304,-4.2763,-4.2341,-4.269,-4.3094,-4.3478,-4.3515,-4.3515,-4.3515,-4.3515,-4.3515,-4.3515,-4.3515,-4.3515,-4.3515,-4.3515,-4.3515,-4.3515,-4.3515,-4.3515,-4.3515,-4.3515,-4.3515,-4.3515,-4.3515,-4.3515,-4.3515,-4.3515,-4.3515,-4.3515,-4.3515,-4.3515,-4.3515,-4.3515,-4.3515,-4.3515,-4.5594,-4.5594,-4.5594,-4.5594,-4.5594,-4.5594,-4.5594,-4.5594,-4.5594,-4.5594,-4.4778,-4.4201,-4.4201,-4.3431,-4.2904,-4.2868,-4.2887,-4.2533,-4.169,-4.1681,-4.1418,-4.0702,-4.1569,-4.1675,-4.0846,-4.0467,-3.9886,-3.9072,-3.8815,-3.8707,-3.8707,-3.8707,-3.8707,-3.8707,-3.8707,-3.8707,-3.8707,-3.8707,-3.8707,-3.8707,-3.8707,-3.8707,-3.8707,-3.8707,-3.8707,-3.8707,-3.8707,-3.8707,-3.8946,-4.049,-4.1003,-4.1279,-4.2892,-4.3423,-4.3423,-4.3478,-4.3515,-4.3515,-4.3515,-4.3515,-4.3515,-4.3515,-4.3515,-4.3515,-4.3515,-4.3515,-4.3515,-4.3515,-4.3515,-4.3276,-4.2525,-4.2286,-4.1974,-4.1224,0.0,0.0,-4.2029,-4.2231,-4.2286,-4.2213,-4.1645,-4.1535,-4.2231,-4.168,-4.1901,-4.3404,-4.3515,-4.3515,-4.3515,-4.3515,-4.3515,-4.3515,-4.3515,-4.3515,-4.3515,-4.3515,-4.3515,-4.3515,-4.3515,-4.3515,-4.3515,-4.3515,-4.3515,-4.3515,-4.3515,-4.3515,-4.3515,-4.3515,-4.3515,-4.3515,-4.3515,-4.3515,-4.3515,-4.3515,-4.3515,-4.3515,-4.5594,-4.5594,-4.5594,-4.5594,-4.5594,-4.5594,-4.5594,-4.5594,-4.5594,-4.5594,-4.4836,-4.4297,-4.4297,-4.3585,-4.3104,-4.3104,-4.3104,-4.297,-4.2624,-4.2104,-4.1586,-4.1125,-4.0749,-4.0637,-4.0832,-4.0504,-4.0026,-3.9401,-3.9427,-3.9387,-3.9255,-3.8877,-3.8902,-3.9255,-3.9027,-3.9054,-3.9268,-3.9268,-3.9268,-3.9268,-3.9268,-3.9268,-3.9268,-3.9268,-3.9268,-3.9268,-3.9268,-3.9268,-3.9498,-4.1161,-4.1721,-4.2002,-4.366,-4.4165,-4.4121,-4.3881,-4.3662,-4.3515,-4.3515,-4.3515,-4.3515,-4.3515,-4.3515,-4.3515,-4.3515,-4.3515,-4.3515,-4.3515,-4.3515,-4.3423,-4.3094,-4.2635,-4.2194,-4.1901,0.0,-4.1956,-4.2268,-4.2727,-4.2671,-4.168,-4.1735,-4.1772,-4.1572,-4.1735,-4.2304,-4.3423,-4.3515,-4.3515,-4.3515,-4.3515,-4.3515,-4.3515,-4.3515,-4.3515,-4.3515,-4.3515,-4.3515,-4.3515,-4.3515,-4.3515,-4.3515,-4.3515,-4.3515,-4.3515,-4.3515,-4.3515,-4.3515,-4.3515,-4.3515,-4.3515,-4.3515,-4.3515,-4.3515,-4.3515,-4.3515,-4.3515,-4.5594,-4.5594,-4.5594,-4.5594,-4.5594,-4.5594,-4.5594,-4.5594,-4.5594,-4.5594,-4.5075,-4.4701,-4.4701,-4.422,-4.3893,-4.3893,-4.3893,-4.3778,-4.3489,-4.2681,-4.1972,-4.1485,-4.1213,-4.1214,-4.1524,-4.1455,-4.101,-4.0124,-4.0195,-3.9991,-3.9587,-3.9181,-3.9203,-3.9599,-3.9352,-3.9377,-3.9599,-3.9599,-3.9599,-3.9599,-3.9599,-3.9599,-3.9599,-3.9599,-3.9599,-3.9599,-3.9599,-3.9599,-3.9863,-4.1542,-4.2108,-4.2391,-4.4064,-4.4514,-4.4364,-4.4073,-4.3756,-4.3515,-4.3515,-4.358,-4.3629,-4.3531,-4.3515,-4.3515,-4.3515,-4.3515,-4.3515,-4.3515,-4.3515,-4.3515,-4.3515,-4.3039,-4.2671,-4.2671,-4.2671,-4.2671,-4.2671,-4.3149,-4.3002,-4.1644,-4.1974,-4.2084,-4.1534,-4.1992,-4.2635,-4.3441,-4.3515,-4.3515,-4.3515,-4.3515,-4.3515,-4.3515,-4.3515,-4.3515,-4.3515,-4.3515,-4.3515,-4.3515,-4.3515,-4.3515,-4.3515,-4.3515,-4.3515,-4.3515,-4.3515,-4.3515,-4.3515,-4.3515,-4.3515,-4.3515,-4.3515,-4.3515,-4.3515,-4.3515,-4.3515,-4.3515,-4.5594,-4.5594,-4.5594,-4.5594,-4.5594,-4.5594,-4.5594,-4.5594,-4.5594,-4.5594,-4.5594,-4.5594,-4.5594,-4.5594,-4.5594,-4.5594,-4.5594,-4.5229,-4.4355,-4.3566,-4.2739,-4.1846,-4.3393,-4.3912,-4.3124,-4.3628,-4.3059,-4.1312,-4.1048,-4.0472,-3.963,-3.9611,-3.9611,-3.9611,-3.9611,-3.9611,-3.9611,-3.9611,-3.9611,-3.9611,-3.9611,-3.9611,-3.9611,-3.9611,-3.9611,-3.9611,-3.9611,-3.9611,-3.9875,-4.1542,-4.2108,-4.241,-4.4083,-4.4318,-4.4016,-4.4016,-4.3772,-4.3515,-4.3515,-4.3758,-4.3924,-4.358,-4.3496,-4.3496,-4.3515,-4.3496,-4.3515,-4.3496,-4.3496,-4.3515,-4.3515,-4.3515,-4.3515,-4.3515,-4.3515,-4.3515,-4.3515,-4.3515,-4.3185,-4.2396,-4.2304,-4.2304,-4.2304,-4.2304,-4.2635,-4.3441,-4.3515,-4.3515,-4.3515,-4.3515,-4.3515,-4.3515,-4.3515,-4.3515,-4.3515,-4.3515,-4.3515,-4.3515,-4.3515,-4.3515,-4.3515,-4.3515,-4.3515,-4.3515,-4.3515,-4.3515,-4.3515,-4.3515,-4.3515,-4.3515,-4.3515,-4.3515,-4.3515,-4.3515,-4.3515,-4.3515,-4.5594,-4.5594,-4.5594,-4.5594,-4.5594,-4.5594,-4.5594,-4.5594,-4.5594,-4.5594,-4.5594,-4.5594,-4.5594,-4.5594,-4.5594,-4.5594,-4.5594,-4.5229,-4.4355,-4.4643,-4.4201,-4.2777,-4.3181,-4.3355,-4.3104,-4.3579,-4.3415,-4.2569,-4.2579,-4.2079,-4.113,-4.0702,-4.0412,-4.0211,-4.0033,-4.0053,-4.0239,-4.0239,-4.0239,-4.0239,-4.0239,-4.0239,-4.0239,-4.0239,-4.0239,-4.0239,-4.0239,-4.0622,-4.1302,-4.2431,-4.3178,-4.3838,-4.4949,-4.5055,-4.4762,-4.4762,-4.4521,-4.4266,-4.4266,-4.435,-4.4337,-4.3958,-4.3849,-4.3927,-4.4194,-4.3868,-4.3582,-4.3804,-4.3662,-4.3515,-4.3515,-4.3515,-4.3515,-4.3515,-4.3515,-4.3515,-4.3515,-4.3515,-4.3185,-4.2396,-4.2304,-4.2304,-4.2304,-4.2304,-4.2635,-4.3441,-4.3515,-4.3515,-4.3515,-4.3515,-4.3515,-4.3515,-4.3515,-4.3515,-4.3515,-4.3515,-4.3515,-4.3515,-4.3515,-4.3515,-4.3515,-4.3515,-4.3515,-4.3515,-4.3515,-4.3515,-4.3515,-4.3515,-4.3515,-4.3515,-4.3515,-4.3515,-4.3515,-4.3515,-4.3515,-4.3515,-4.5594,-4.5594,-4.5594,-4.5594,-4.5594,-4.5594,-4.5594,-4.5594,-4.5594,-4.5594,-4.5594,-4.5594,-4.5594,-4.5594,-4.5594,-4.5594,-4.5594,-4.5383,-4.4855,-4.5306,-4.5152,-4.4124,-4.4085,-4.3932,-4.3585,-4.3838,-4.3857,-4.3566,-4.3654,-4.3224,-4.2308,-4.159,-4.117,-4.0989,-4.0483,-4.0347,-4.0496,-4.0496,-4.0496,-4.0496,-4.0496,-4.0496,-4.0496,-4.0496,-4.0496,-4.0554,-4.0893,-4.1354,-4.1981,-4.3162,-4.4124,-4.4921,-4.5441,-4.5362,-4.5096,-4.5096,-4.4861,-4.4593,-4.4593,-4.4714,-4.4732,-4.4508,-4.4346,-4.429,-4.454,-4.427,-4.3989,-4.4209,-4.408,-4.3931,-4.3931,-4.3931,-4.3931,-4.3931,-4.3931,-4.3931,-4.3931,-4.3931,-4.3745,-4.3277,-4.3206,-4.3206,-4.3206,-4.3206,-4.3348,-4.3673,-4.3563,-4.3515,-4.3515,-4.3515,-4.3515,-4.3515,-4.3515,-4.3515,-4.3515,-4.3515,-4.3515,-4.3515,-4.3515,-4.3515,-4.3515,-4.3515,-4.3515,-4.3515,-4.3515,-4.3515,-4.3515,-4.3515,-4.3515,-4.3515,-4.3515,-4.3515,-4.3515,-4.3515,-4.3515,-4.3515,-4.5594,-4.5594,-4.5594,-4.5594,-4.5594,-4.5594,-4.5594,-4.5594,-4.5594,-4.5594,-4.5594,-4.5594,-4.5594,-4.5594,-4.5594,-4.5594,-4.5594,-4.5594,-4.5594,-4.5594,-4.5594,-4.5594,-4.5537,-4.5152,-4.4432,-4.4412,-4.4374,-4.4297,-4.4374,-4.3989,-4.3181,-4.2393,-4.1942,-4.1769,-4.0969,-4.0573,-4.0496,-4.0496,-4.0496,-4.0496,-4.0496,-4.0496,-4.0496,-4.0496,-4.0496,-4.0612,-4.1489,-4.1846,-4.2181,-4.3855,-4.4932,-4.5594,-4.5594,-4.54,-4.514,-4.514,-4.4931,-4.4682,-4.4682,-4.4919,-4.514,-4.514,-4.4919,-4.4682,-4.4682,-4.4631,-4.4624,-4.4631,-4.4618,-4.4593,-4.4593,-4.4593,-4.4593,-4.4593,-4.4593,-4.4593,-4.4593,-4.4593,-4.4593,-4.4593,-4.4593,-4.4593,-4.4593,-4.4593,-4.4447,-4.4073,-4.3775,-4.3597,-4.3597,-4.3597,-4.3597,-4.3597,-4.3597,-4.3597,-4.3597,-4.3597,-4.3565,-4.3515,-4.3515,-4.3515,-4.3515,-4.3531,-4.3531,-4.3496,-4.3531,-4.3548,-4.3548,-4.3548,-4.3582,-4.3597,-4.3597,-4.3597,-4.3597,-4.3597,-4.3597,-4.3597,-4.5594,-4.5594,-4.5594,-4.5594,-4.5594,-4.5594,-4.5594,-4.5594,-4.5594,-4.5594,-4.5594,-4.5594,-4.5594,-4.5594,-4.5594,-4.5594,-4.5594,-4.5594,-4.5594,-4.5594,-4.5594,-4.5594,-4.496,-4.4797,-4.5306,-4.5325,-4.4979,-4.4297,-4.4979,-4.4883,-4.4047,-4.3855,-4.3066,-4.1788,-4.1604,-4.1143,-4.0496,-4.0496,-4.0496,-4.0496,-4.0496,-4.0496,-4.0496,-4.0496,-4.0496,-4.0612,-4.1489,-4.2239,-4.3066,-4.4739,-4.5441,-4.5594,-4.5594,-4.5559,-4.5495,-4.5495,-4.5438,-4.5381,-4.5381,-4.5438,-4.5495,-4.5495,-4.5438,-4.5381,-4.5381,-4.4977,-4.467,-4.4931,-4.4769,-4.4593,-4.4593,-4.4593,-4.4593,-4.4593,-4.4593,-4.4593,-4.4593,-4.4593,-4.4593,-4.4593,-4.4593,-4.4593,-4.4593,-4.4593,-4.4553,-4.4474,-4.4406,-4.435,-4.435,-4.435,-4.435,-4.435,-4.435,-4.435,-4.435,-4.435,-4.4065,-4.3515,-4.3515,-4.3515,-4.3515,-4.3772,-4.3758,-4.3513,-4.3772,-4.3896,-4.3896,-4.3896,-4.4076,-4.435,-4.435,-4.435,-4.435,-4.435,-4.435,-4.435,-4.5594,-4.5594,-4.5594,-4.5594,-4.5594,-4.5594,-4.5594,-4.5594,-4.5594,-4.5594,-4.5594,-4.5594,-4.5594,-4.5594,-4.5594,-4.5594,-4.5594,-4.5594,-4.5594,-4.5594,-4.5594,-4.5594,-4.5171,-4.494,-4.4979,-4.5383,-4.5383,-4.4921,-4.5383,-4.5364,-4.4913,-4.4489,-4.3835,-4.297,-4.2162,-4.1546,-4.1085,-4.0689,-4.0496,-4.0496,-4.0496,-4.0496,-4.0496,-4.0496,-4.0496,-4.0612,-4.1489,-4.2604,-4.3874,-4.5171,-4.5594,-4.5594,-4.5594,-4.5594,-4.5594,-4.5594,-4.5594,-4.5594,-4.5594,-4.5594,-4.5594,-4.5594,-4.5594,-4.5594,-4.5594,-4.5332,-4.5129,-4.5312,-4.5211,-4.5085,-4.5085,-4.5085,-4.5085,-4.5085,-4.5085,-4.5085,-4.5085,-4.5085,-4.5085,-4.5085,-4.5085,-4.5085,-4.5085,-4.4931,-4.4849,-4.4849,-4.4682,-4.4593,-4.4593,-4.4593,-4.4593,-4.4593,-4.4593,-4.4593,-4.4593,-4.4593,-4.4406,-4.402,-4.402,-4.402,-4.402,-4.4209,-4.4194,-4.4035,-4.4209,-4.4294,-4.4294,-4.4294,-4.4419,-4.4593,-4.4593,-4.4593,-4.4593,-4.4593,-4.4593,-4.4618,-4.5594,-4.5594,-4.5594,-4.5594,-4.5594,-4.5594,-4.5594,-4.5594,-4.5594,-4.5594,-4.5594,-4.5594,-4.5594,-4.5594,-4.5594,-4.5594,-4.5594,-4.5594,-4.5594,-4.5594,-4.5594,-4.5594,-4.5594,-4.5267,-4.4528,-4.5229,-4.5537,-4.5383,-4.5537,-4.5594,-4.5575,-4.4855,-4.4432,-4.4239,-4.2854,-4.2058,-4.175,-4.1027,-4.065,-4.0496,-4.0496,-4.0496,-4.0496,-4.0496,-4.0593,-4.0843,-4.172,-4.3104,-4.4624,-4.5364,-4.5594,-4.5594,-4.5594,-4.5594,-4.5594,-4.5594,-4.5594,-4.5594,-4.5594,-4.5594,-4.5594,-4.5594,-4.5594,-4.5594,-4.5594,-4.5594,-4.5594,-4.5594,-4.5594,-4.5594,-4.5594,-4.5594,-4.5594,-4.5594,-4.5594,-4.5594,-4.5594,-4.5594,-4.5594,-4.5594,-4.5594,-4.5594,-4.5594,-4.5342,-4.5191,-4.5191,-4.4931,-4.4769,-4.4769,-4.4769,-4.4769,-4.4769,-4.4769,-4.4769,-4.4769,-4.4769,-4.4769,-4.4769,-4.4769,-4.4707,-4.4593,-4.4657,-4.4644,-4.4593,-4.4657,-4.4701,-4.4701,-4.4701,-4.4707,-4.4769,-4.4769,-4.4769,-4.4769,-4.4769,-4.4769,-4.4806,-4.5594,-4.5594,-4.5594,-4.5594,-4.5594,-4.5594,-4.5594,-4.5594,-4.5594,-4.5594,-4.5594,-4.5594,-4.5594,-4.5594,-4.5594,-4.5594,-4.5594,-4.5594,-4.5594,-4.5594,-4.5594,-4.5594,-4.5594,-4.5537,-4.5441,-4.5537,-4.5229,-4.447,-4.5229,-4.5594,-4.5594,-4.5479,-4.5017,-4.4297,-4.4066,-4.3162,-4.1788,-4.1673,-4.1181,-4.0496,-4.0496,-4.0496,-4.0496,-4.0496,-4.0969,-4.1739,-4.2604,-4.3989,-4.5441,-4.5556,-4.5594,-4.5594,-4.5594,-4.5594,-4.5594,-4.5594,-4.5594,-4.5594,-4.5594,-4.5594,-4.5594,-4.5594,-4.5594,-4.5594,-4.5594,-4.5594,-4.5594,-4.5594,-4.5594,-4.5594,-4.5594,-4.5594,-4.5594,-4.5594,-4.5594,-4.5594,-4.5594,-4.5594,-4.5594,-4.5594,-4.5594,-4.5594,-4.5594,-4.5559,-4.5522,-4.5522,-4.5495,-4.5457,-4.5457,-4.5457,-4.5457,-4.5457,-4.5457,-4.5457,-4.5457,-4.5457,-4.5457,-4.5457,-4.5457,-4.5161,-4.4606,-4.4896,-4.4872,-4.4624,-4.4908,-4.5041,-4.5041,-4.5041,-4.5211,-4.5457,-4.5457,-4.5457,-4.5457,-4.5457,-4.5457,-4.5466,-4.5594,-4.5594,-4.5594,-4.5594,-4.5594,-4.5594,-4.5594,-4.5594,-4.5594,-4.5594,-4.5594,-4.5594,-4.5594,-4.5594,-4.5594,-4.5594,-4.5594,-4.5594,-4.5594,-4.5594,-4.5594,-4.5594,-4.5594,-4.5594,-4.5594,-4.5594,-4.5421,-4.5037,-4.5421,-4.5594,-4.5594,-4.5594,-4.5402,-4.4998,-4.4509,-4.3893,-4.3143,-4.22,-4.1585,-4.1181,-4.0708,-4.0496,-4.0554,-4.1046,-4.147,-4.1962,-4.3297,-4.4239,-4.496,-4.5441,-4.5594,-4.5594,-4.5594,-4.5594,-4.5594,-4.5594,-4.5594,-4.5594,-4.5594,-4.5594,-4.5594,-4.5594,-4.5594,-4.5594,-4.5594,-4.5594,-4.5594,-4.5594,-4.5594,-4.5594,-4.5594,-4.5594,-4.5594,-4.5594,-4.5594,-4.5594,-4.5594,-4.5594,-4.5594,-4.5594,-4.5594,-4.5594,-4.5594,-4.5594,-4.5594,-4.5594,-4.5594,-4.5594,-4.5594,-4.5594,-4.5594,-4.5594,-4.5594,-4.5594,-4.5594,-4.5594,-4.5594,-4.5594,-4.5594,-4.5438,-4.5161,-4.5322,-4.5312,-4.5161,-4.5322,-4.539,-4.539,-4.539,-4.5476,-4.5594,-4.5594,-4.5594,-4.5594,-4.5594,-4.5594,-4.5594]},{"header":{"parameterUnit":"m.s-1","parameterCategory":1,"la1":30.6,"la2":28.766,"lo1":-90.7593,"lo2":-88.6598,"dy":0.0162,"dx":0.0183,"nx":116,"ny":114,"refTime":"2023-07-18T06:00:00:Z","depth":0,"parameterNumber":3,"parameterNumberName":"V-component_of_WINDS"},"data":[0.0,0.0,0.0,0.0,0.0,0.0,0.0,0.0,0.0,0.0,0.0,0.0,0.0,0.0,0.0,0.0,0.0,0.0,0.0,0.0,0.0,0.0,0.0,0.0,0.0,0.0,0.0,0.0,0.0,0.0,0.0,0.0,0.0,0.0,0.0,0.0,0.0,0.0,0.0,0.0,0.0,0.0,0.0,0.0,0.0,0.0,0.0,0.0,0.0,0.0,0.0,0.0,0.0,0.0,0.0,0.0,0.0,0.0,0.0,0.0,0.0,0.0,0.0,0.0,0.0,0.0,0.0,0.0,0.0,0.0,0.0,0.0,0.0,0.0,0.0,0.0,0.0,0.0,0.0,0.0,0.0,0.0,0.0,0.0,0.0,0.0,0.0,0.0,0.0,0.0,0.0,0.0,0.0,0.0,0.0,0.0,0.0,0.0,0.0,0.0,0.0,0.0,0.0,0.0,0.0,0.0,0.0,0.0,0.0,0.0,0.0,0.0,0.0,0.0,0.0,0.0,0.0,0.0,0.0,0.0,0.0,0.0,0.0,0.0,0.0,0.0,0.0,0.0,0.0,0.0,0.0,0.0,0.0,0.0,0.0,0.0,0.0,0.0,0.0,0.0,0.0,0.0,0.0,0.0,0.0,0.0,0.0,0.0,0.0,0.0,0.0,0.0,0.0,0.0,0.0,0.0,0.0,0.0,0.0,0.0,0.0,0.0,0.0,0.0,0.0,0.0,0.0,0.0,0.0,0.0,0.0,0.0,0.0,0.0,0.0,0.0,0.0,0.0,0.0,0.0,0.0,0.0,0.0,0.0,0.0,0.0,0.0,0.0,0.0,0.0,0.0,0.0,0.0,0.0,0.0,0.0,0.0,0.0,0.0,0.0,0.0,0.0,0.0,0.0,0.0,0.0,0.0,0.0,0.0,0.0,0.0,0.0,0.0,0.0,0.0,0.0,0.0,0.0,0.0,0.0,0.0,0.0,0.0,0.0,0.0,0.0,0.0,0.0,0.0,0.0,0.0,0.0,0.0,0.0,0.0,0.0,0.0,0.0,0.0,0.0,0.0,0.0,0.0,0.0,0.0,0.0,0.0,0.0,0.0,0.0,0.0,0.0,0.0,0.0,0.0,0.0,0.0,0.0,0.0,0.0,0.0,0.0,0.0,0.0,0.0,0.0,0.0,0.0,0.0,0.0,0.0,0.0,0.0,0.0,0.0,0.0,0.0,0.0,0.0,0.0,0.0,0.0,0.0,0.0,0.0,0.0,0.0,0.0,0.0,0.0,0.0,0.0,0.0,0.0,0.0,0.0,0.0,0.0,0.0,0.0,0.0,0.0,0.0,0.0,0.0,0.0,0.0,0.0,0.0,0.0,0.0,0.0,0.0,0.0,0.0,0.0,0.0,0.0,0.0,0.0,0.0,0.0,0.0,0.0,0.0,0.0,0.0,0.0,0.0,0.0,0.0,0.0,0.0,0.0,0.0,0.0,0.0,0.0,0.0,0.0,0.0,0.0,0.0,0.0,0.0,0.0,0.0,0.0,0.0,0.0,0.0,0.0,0.0,0.0,0.0,0.0,0.0,0.0,0.0,0.0,0.0,0.0,0.0,0.0,0.0,0.0,0.0,0.0,0.0,0.0,0.0,0.0,0.0,0.0,0.0,0.0,0.0,0.0,0.0,0.0,0.0,0.0,0.0,0.0,0.0,0.0,0.0,0.0,0.0,0.0,0.0,0.0,0.0,0.0,0.0,0.0,0.0,0.0,0.0,0.0,0.0,0.0,0.0,0.0,0.0,0.0,0.0,0.0,0.0,0.0,0.0,0.0,0.0,0.0,0.0,0.0,0.0,0.0,0.0,0.0,0.0,0.0,0.0,0.0,0.0,0.0,0.0,0.0,0.0,0.0,0.0,0.0,0.0,0.0,0.0,0.0,0.0,0.0,0.0,0.0,0.0,0.0,0.0,0.0,0.0,0.0,0.0,0.0,0.0,0.0,0.0,0.0,0.0,0.0,0.0,0.0,0.0,0.0,0.0,0.0,0.0,0.0,0.0,0.0,0.0,0.0,0.0,0.0,0.0,0.0,0.0,0.0,0.0,0.0,0.0,0.0,0.0,0.0,0.0,0.0,0.0,0.0,0.0,0.0,0.0,0.0,0.0,0.0,0.0,0.0,0.0,0.0,0.0,0.0,0.0,0.0,0.0,0.0,0.0,0.0,0.0,0.0,0.0,0.0,0.0,0.0,0.0,0.0,0.0,0.0,0.0,0.0,0.0,0.0,0.0,0.0,0.0,0.0,0.0,0.0,0.0,0.0,0.0,0.0,0.0,0.0,0.0,0.0,0.0,0.0,0.0,0.0,0.0,0.0,0.0,0.0,0.0,0.0,0.0,0.0,0.0,0.0,0.0,0.0,0.0,0.0,0.0,0.0,0.0,0.0,0.0,0.0,0.0,0.0,0.0,0.0,0.0,0.0,0.0,0.0,0.0,0.0,0.0,0.0,0.0,0.0,0.0,0.0,0.0,0.0,0.0,0.0,0.0,0.0,0.0,0.0,0.0,0.0,0.0,0.0,0.0,0.0,0.0,0.0,0.0,0.0,0.0,0.0,0.0,0.0,0.0,0.0,0.0,0.0,0.0,0.0,0.0,0.0,0.0,0.0,0.0,0.0,0.0,0.0,0.0,0.0,0.0,0.0,0.0,0.0,0.0,0.0,0.0,0.0,0.0,0.0,0.0,0.0,0.0,0.0,0.0,0.0,0.0,0.0,0.0,0.0,0.0,0.0,0.0,0.0,0.0,0.0,0.0,0.0,0.0,0.0,0.0,0.0,0.0,0.0,0.0,0.0,0.0,0.0,0.0,0.0,0.0,0.0,0.0,0.0,0.0,0.0,0.0,0.0,0.0,0.0,0.0,0.0,0.0,0.0,0.0,0.0,0.0,0.0,0.0,0.0,0.0,0.0,0.0,0.0,0.0,0.0,0.0,0.0,0.0,0.0,0.0,0.0,0.0,0.0,0.0,0.0,0.0,0.0,0.0,0.0,0.0,0.0,0.0,0.0,0.0,0.0,0.0,0.0,0.0,0.0,0.0,0.0,0.0,0.0,0.0,0.0,0.0,0.0,0.0,0.0,0.0,0.0,0.0,0.0,0.0,0.0,0.0,0.0,0.0,0.0,0.0,0.0,0.0,0.0,0.0,0.0,0.0,0.0,0.0,0.0,0.0,0.0,0.0,0.0,0.0,0.0,0.0,0.0,0.0,0.0,0.0,0.0,0.0,0.0,0.0,0.0,0.0,0.0,0.0,0.0,0.0,0.0,0.0,0.0,0.0,0.0,0.0,0.0,0.0,0.0,0.0,0.0,0.0,0.0,0.0,0.0,0.0,0.0,0.0,0.0,0.0,0.0,0.0,0.0,0.0,0.0,0.0,0.0,0.0,0.0,0.0,0.0,0.0,0.0,0.0,0.0,0.0,0.0,0.0,0.0,0.0,0.0,0.0,0.0,0.0,0.0,0.0,0.0,0.0,0.0,0.0,0.0,0.0,0.0,0.0,0.0,0.0,0.0,0.0,0.0,0.0,0.0,0.0,0.0,0.0,0.0,0.0,0.0,0.0,0.0,0.0,0.0,0.0,0.0,0.0,0.0,0.0,0.0,0.0,0.0,0.0,0.0,0.0,0.0,0.0,0.0,0.0,0.0,0.0,0.0,0.0,0.0,0.0,0.0,0.0,0.0,0.0,0.0,0.0,0.0,0.0,0.0,0.0,0.0,0.0,0.0,0.0,0.0,0.0,0.0,0.0,0.0,0.0,0.0,0.0,0.0,0.0,0.0,0.0,0.0,0.0,0.0,0.0,0.0,0.0,0.0,0.0,0.0,0.0,0.0,0.0,0.0,0.0,0.0,0.0,0.0,0.0,0.0,0.0,0.0,0.0,0.0,0.0,0.0,0.0,0.0,0.0,0.0,0.0,0.0,0.0,0.0,0.0,0.0,0.0,0.0,0.0,0.0,0.0,0.0,0.0,0.0,0.0,0.0,0.0,0.0,0.0,0.0,0.0,0.0,0.0,0.0,0.0,0.0,0.0,0.0,0.0,0.0,0.0,0.0,0.0,0.0,0.0,0.0,0.0,0.0,0.0,0.0,0.0,0.0,0.0,0.0,0.0,0.0,0.0,0.0,0.0,0.0,0.0,0.0,0.0,0.0,0.0,0.0,0.0,0.0,0.0,0.0,0.0,0.0,0.0,0.0,0.0,0.0,0.0,0.0,0.0,0.0,0.0,0.0,0.0,0.0,0.0,0.0,0.0,0.0,0.0,0.0,0.0,0.0,0.0,0.0,0.0,0.0,0.0,0.0,0.0,0.0,0.0,0.0,0.0,0.0,0.0,0.0,0.0,0.0,0.0,0.0,0.0,0.0,0.0,0.0,0.0,0.0,0.0,0.0,0.0,0.0,0.0,0.0,0.0,0.0,0.0,0.0,0.0,0.0,0.0,0.0,0.0,0.0,0.0,0.0,0.0,0.0,0.0,0.0,0.0,0.0,0.0,0.0,0.0,0.0,0.0,0.0,0.0,0.0,0.0,0.0,0.0,0.0,0.0,0.0,0.0,0.0,0.0,0.0,0.0,0.0,0.0,0.0,0.0,0.0,0.0,0.0,0.0,0.0,0.0,0.0,0.0,0.0,0.0,0.0,0.0,0.0,0.0,0.0,0.0,0.0,0.0,0.0,0.0,0.0,0.0,0.0,0.0,0.0,0.0,0.0,0.0,0.0,0.0,0.0,0.0,0.0,0.0,0.0,0.0,0.0,0.0,0.0,0.0,0.0,0.0,0.0,0.0,0.0,0.0,0.0,0.0,0.0,0.0,0.0,0.0,0.0,0.0,0.0,0.0,0.0,0.0,0.0,0.0,0.0,0.0,0.0,0.0,0.0,0.0,0.0,0.0,0.0,0.0,0.0,0.0,0.0,0.0,0.0,0.0,0.0,0.0,0.0,0.0,0.0,0.0,0.0,0.0,0.0,0.0,0.0,0.0,0.0,0.0,0.0,0.0,0.0,0.0,0.0,0.0,0.0,0.0,0.0,0.0,0.0,0.0,0.0,0.0,0.0,0.0,0.0,0.0,0.0,0.0,0.0,0.0,0.0,0.0,0.0,0.0,0.0,0.0,0.0,0.0,0.0,0.0,0.0,0.0,0.0,0.0,0.0,0.0,0.0,0.0,0.0,0.0,0.0,0.0,0.0,0.0,0.0,0.0,0.0,0.0,0.0,0.0,0.0,0.0,0.0,0.0,0.0,0.0,0.0,0.0,0.0,0.0,0.0,0.0,0.0,0.0,0.0,0.0,0.0,0.0,0.0,0.0,0.0,0.0,0.0,0.0,0.0,0.0,0.0,0.0,0.0,0.0,0.0,0.0,0.0,0.0,0.0,0.0,0.0,0.0,0.0,0.0,0.0,0.0,0.0,0.0,0.0,0.0,0.0,0.0,0.0,0.0,0.0,0.0,0.0,0.0,0.0,0.0,0.0,0.0,0.0,0.0,0.0,0.0,0.0,0.0,0.0,0.0,0.0,0.0,0.0,0.0,0.0,0.0,0.0,0.0,0.0,0.0,0.0,0.0,0.0,0.0,0.0,0.0,0.0,0.0,0.0,0.0,0.0,0.0,0.0,0.0,0.0,0.0,0.0,0.0,0.0,0.0,0.0,0.0,0.0,0.0,0.0,0.0,0.0,0.0,0.0,0.0,0.0,0.0,0.0,0.0,0.0,0.0,0.0,0.0,0.0,0.0,0.0,0.0,0.0,0.0,0.0,0.0,0.0,0.0,0.0,0.0,0.0,0.0,0.0,0.0,0.0,0.0,0.0,0.0,0.0,0.0,0.0,0.0,0.0,0.0,0.0,0.0,0.0,0.0,0.0,0.0,0.0,0.0,0.0,0.0,0.0,0.0,0.0,0.0,0.0,0.0,0.0,0.0,0.0,0.0,0.0,0.0,0.0,0.0,0.0,0.0,0.0,0.0,0.0,0.0,0.0,0.0,0.0,0.0,0.0,0.0,0.0,0.0,0.0,0.0,0.0,0.0,0.0,0.0,0.0,0.0,0.0,0.0,0.0,0.0,0.0,-3.1005,0.0,0.0,0.0,0.0,0.0,0.0,0.0,0.0,0.0,0.0,0.0,0.0,0.0,0.0,0.0,0.0,0.0,0.0,0.0,0.0,0.0,0.0,0.0,0.0,0.0,0.0,0.0,0.0,0.0,0.0,0.0,0.0,0.0,0.0,0.0,0.0,0.0,0.0,0.0,0.0,0.0,0.0,0.0,0.0,0.0,0.0,0.0,0.0,0.0,0.0,0.0,0.0,0.0,0.0,0.0,0.0,0.0,0.0,0.0,0.0,0.0,0.0,0.0,0.0,0.0,0.0,0.0,0.0,0.0,0.0,0.0,0.0,0.0,0.0,0.0,0.0,0.0,0.0,0.0,0.0,0.0,0.0,0.0,0.0,0.0,0.0,0.0,0.0,0.0,0.0,0.0,0.0,0.0,0.0,0.0,0.0,0.0,0.0,0.0,0.0,0.0,0.0,0.0,0.0,0.0,0.0,0.0,0.0,0.0,0.0,0.0,0.0,0.0,0.0,0.0,0.0,-3.2629,0.0,0.0,0.0,0.0,0.0,0.0,0.0,0.0,0.0,0.0,0.0,0.0,0.0,0.0,0.0,0.0,0.0,0.0,0.0,0.0,0.0,0.0,0.0,0.0,0.0,0.0,0.0,0.0,0.0,0.0,0.0,0.0,0.0,0.0,0.0,0.0,0.0,0.0,0.0,0.0,0.0,0.0,0.0,0.0,0.0,0.0,0.0,0.0,0.0,0.0,0.0,0.0,0.0,0.0,0.0,0.0,0.0,0.0,0.0,0.0,0.0,0.0,0.0,0.0,0.0,0.0,0.0,0.0,0.0,0.0,0.0,0.0,0.0,0.0,0.0,0.0,0.0,0.0,0.0,0.0,0.0,0.0,0.0,0.0,0.0,0.0,0.0,0.0,0.0,0.0,0.0,0.0,0.0,0.0,0.0,0.0,0.0,0.0,0.0,0.0,0.0,0.0,0.0,0.0,0.0,0.0,0.0,0.0,-3.4334,-3.4068,-3.4173,-3.4173,-3.4173,-3.4204,-3.4775,-3.4754,-3.4294,-3.3744,0.0,0.0,0.0,0.0,0.0,0.0,0.0,0.0,0.0,0.0,0.0,0.0,0.0,0.0,0.0,0.0,0.0,0.0,0.0,0.0,0.0,0.0,0.0,0.0,0.0,0.0,0.0,0.0,0.0,0.0,0.0,0.0,0.0,0.0,0.0,0.0,0.0,0.0,-3.2327,-3.3051,-3.3305,-3.3119,-3.3119,0.0,0.0,0.0,0.0,0.0,0.0,0.0,0.0,0.0,0.0,0.0,0.0,0.0,0.0,0.0,0.0,0.0,0.0,0.0,0.0,0.0,0.0,0.0,0.0,0.0,0.0,0.0,0.0,0.0,0.0,0.0,0.0,0.0,0.0,0.0,0.0,0.0,0.0,0.0,0.0,0.0,0.0,0.0,-3.2056,-3.2141,0.0,0.0,0.0,0.0,0.0,0.0,0.0,0.0,0.0,0.0,0.0,0.0,0.0,-3.5839,-3.4672,-3.5127,-3.5658,-3.626,-3.6163,-3.6372,-3.6896,-3.6896,-3.6896,-3.6896,-3.6982,0.0,-3.3622,-3.3561,0.0,0.0,0.0,0.0,0.0,0.0,0.0,0.0,0.0,0.0,0.0,0.0,0.0,0.0,0.0,0.0,0.0,0.0,0.0,0.0,0.0,0.0,0.0,0.0,0.0,0.0,0.0,0.0,0.0,0.0,0.0,0.0,0.0,0.0,0.0,0.0,-3.2666,-3.3744,-3.4184,-3.5385,-3.5943,-3.5904,-3.5445,-3.4571,-3.3389,-3.3051,0.0,0.0,0.0,0.0,0.0,0.0,0.0,0.0,0.0,0.0,0.0,0.0,0.0,0.0,0.0,0.0,0.0,0.0,0.0,0.0,0.0,0.0,0.0,0.0,0.0,0.0,0.0,0.0,0.0,0.0,0.0,0.0,0.0,0.0,0.0,0.0,0.0,0.0,0.0,-3.1613,-3.2293,-3.2293,-3.2949,-3.3406,0.0,0.0,0.0,0.0,0.0,0.0,0.0,0.0,0.0,-3.7531,-3.7356,-3.7528,-3.8088,-3.745,-3.7689,-3.8809,-3.8337,-3.8272,-3.8506,-3.8506,-3.8506,-3.8506,-3.8506,-3.7659,-3.6193,-3.5474,-3.4726,-3.4038,0.0,0.0,0.0,0.0,-3.4302,-3.4607,0.0,0.0,0.0,0.0,0.0,0.0,0.0,0.0,0.0,0.0,0.0,0.0,0.0,0.0,0.0,-2.4887,0.0,0.0,0.0,0.0,0.0,0.0,0.0,0.0,0.0,0.0,0.0,0.0,-3.4049,-3.5165,-3.5943,-3.728,-3.7905,-3.7882,-3.7469,-3.613,-3.4203,-3.3645,-3.3142,0.0,0.0,0.0,0.0,0.0,0.0,0.0,0.0,0.0,0.0,0.0,0.0,0.0,0.0,0.0,0.0,0.0,0.0,0.0,0.0,0.0,0.0,0.0,0.0,0.0,0.0,0.0,0.0,0.0,0.0,0.0,0.0,0.0,0.0,0.0,0.0,0.0,0.0,-3.2124,-3.2666,-3.2835,-3.3694,-3.4201,0.0,0.0,0.0,0.0,0.0,0.0,-3.7287,-3.8231,-3.8866,-3.9146,-3.8739,-3.9168,-4.0506,-3.9447,-3.9445,-4.055,-4.0103,-3.9918,-3.9918,-3.9918,-3.9918,-3.9918,-3.9918,-3.9529,-3.8796,-3.7509,-3.6282,-3.522,-3.522,-3.5165,-3.5018,-3.5189,-3.5451,-3.5783,0.0,0.0,0.0,0.0,0.0,0.0,0.0,0.0,0.0,0.0,0.0,0.0,0.0,0.0,-2.6138,-2.621,-2.7349,-2.8298,0.0,0.0,0.0,0.0,0.0,0.0,0.0,0.0,0.0,-3.3339,-3.4822,-3.596,-3.6761,-3.7533,-3.7905,-3.7939,-3.8608,-3.8003,-3.6403,-3.4371,-3.3492,-3.339,0.0,0.0,0.0,0.0,0.0,0.0,0.0,0.0,0.0,0.0,0.0,0.0,0.0,0.0,0.0,0.0,0.0,0.0,0.0,0.0,0.0,0.0,0.0,0.0,0.0,0.0,0.0,0.0,0.0,0.0,0.0,0.0,0.0,0.0,0.0,0.0,0.0,0.0,0.0,-3.4303,-3.5729,0.0,0.0,0.0,0.0,-3.6745,-3.8031,-3.8782,-3.87,-4.0189,-4.0562,-3.9615,-4.0325,-4.0347,-3.9469,-4.0036,-4.0359,-4.0426,-4.1018,-4.128,-4.128,-4.128,-4.128,-4.128,-4.128,-4.0905,-4.0202,-3.8856,-3.7883,-3.7255,-3.7255,-3.6915,-3.6469,-3.703,-3.6915,-3.6543,0.0,0.0,0.0,0.0,0.0,0.0,0.0,0.0,0.0,0.0,0.0,0.0,0.0,-2.4626,-2.6631,-2.7457,-2.8359,-2.9137,-2.9664,0.0,0.0,0.0,0.0,0.0,0.0,0.0,-3.2861,-3.4822,-3.5823,-3.6967,-3.8251,-3.9462,-4.002,-4.0045,-4.0294,-4.0121,-3.9452,-3.7218,-3.5515,-3.4258,-3.3893,-3.2558,0.0,0.0,0.0,0.0,0.0,0.0,0.0,0.0,0.0,0.0,0.0,0.0,0.0,0.0,0.0,0.0,0.0,0.0,0.0,0.0,0.0,0.0,0.0,0.0,0.0,0.0,0.0,0.0,0.0,0.0,0.0,0.0,0.0,0.0,0.0,0.0,0.0,-3.5182,-3.6104,0.0,-3.6937,-3.7502,-3.79,-3.8074,-3.9425,-4.0479,-4.1017,-4.1358,-4.1869,-4.2606,-4.1794,-4.1612,-4.2163,-4.1859,-4.1863,-4.2258,-4.2521,-4.2626,-4.2626,-4.2626,-4.2626,-4.2626,-4.2626,-4.2267,-4.1662,-4.1183,-3.9835,-3.8033,-3.8033,-3.7644,-3.7105,-3.733,-3.727,-3.7105,0.0,0.0,0.0,0.0,0.0,0.0,0.0,0.0,0.0,0.0,0.0,-2.249,-2.2707,-2.5072,-2.7046,-2.8105,-2.8854,-2.95,-3.007,0.0,0.0,0.0,0.0,0.0,0.0,-3.2337,-3.3816,-3.5984,-3.697,-3.8254,-3.9749,-4.0747,-4.1339,-4.1567,-4.1549,-4.1534,-4.1444,-3.9663,-3.7691,-3.5738,-3.5182,-3.3868,-3.2295,0.0,0.0,0.0,0.0,0.0,0.0,0.0,0.0,0.0,0.0,0.0,0.0,0.0,0.0,0.0,0.0,0.0,0.0,0.0,0.0,0.0,0.0,0.0,0.0,0.0,0.0,0.0,0.0,0.0,0.0,0.0,0.0,0.0,0.0,0.0,-3.5901,-3.6566,-3.7811,-3.852,-3.8325,-3.9077,-3.9526,-3.9414,-4.0732,-4.1694,-4.2052,-4.2349,-4.2823,-4.3641,-4.2798,-4.2715,-4.357,-4.2967,-4.2895,-4.329,-4.329,-4.329,-4.3305,-4.3529,-4.3499,-4.3305,-4.3529,-4.3284,-4.2686,-4.2686,-4.1519,-3.9679,-3.9245,-3.8676,-3.8078,-3.8078,-3.7943,-3.7749,0.0,0.0,0.0,0.0,0.0,0.0,0.0,0.0,0.0,0.0,-2.1712,-2.268,-2.3363,-2.5758,-2.7551,-2.8124,-2.8804,-2.943,-3.0,-2.8617,0.0,0.0,0.0,0.0,-3.2236,-3.3169,-3.4649,-3.6706,-3.8263,-3.9775,-4.1178,-4.1229,-4.166,-4.2361,-4.2347,-4.232,-4.2314,-4.1482,-3.9913,-3.7873,-3.6456,-3.5846,-3.5535,0.0,0.0,0.0,0.0,0.0,0.0,0.0,0.0,0.0,0.0,0.0,0.0,0.0,0.0,0.0,0.0,0.0,0.0,0.0,0.0,0.0,0.0,0.0,0.0,0.0,0.0,0.0,0.0,0.0,0.0,0.0,0.0,0.0,-3.5446,-3.5754,-3.6567,-3.8575,-4.0865,-4.1577,-3.9767,-4.1695,-4.2398,-4.0785,-4.2009,-4.2501,-4.1786,-4.3144,-4.3521,-4.2572,-4.3288,-4.3594,-4.3349,-4.3334,-4.3334,-4.3349,-4.3334,-4.3334,-4.3379,-4.4062,-4.4003,-4.3394,-4.4047,-4.3917,-4.3319,-4.3305,-4.297,-4.2306,-4.0965,-4.0053,-3.9454,-3.9454,-3.902,-3.8422,0.0,0.0,0.0,0.0,0.0,0.0,0.0,0.0,0.0,0.0,-2.203,-2.3251,-2.3899,-2.6176,-2.7734,-2.7897,-2.8604,-2.8965,-2.8741,0.0,0.0,0.0,0.0,0.0,-3.2409,-3.3666,-3.511,-3.6695,-3.8799,-3.9993,-4.0436,-4.2028,-4.3217,-4.3978,-4.4524,-4.442,-4.382,-4.4074,-4.2599,-3.9964,-3.8609,-3.684,-3.5058,0.0,0.0,0.0,0.0,0.0,0.0,0.0,0.0,0.0,0.0,0.0,0.0,0.0,0.0,0.0,0.0,0.0,0.0,0.0,0.0,0.0,0.0,0.0,0.0,0.0,0.0,0.0,0.0,0.0,0.0,0.0,0.0,-3.5808,-3.6186,-3.7774,-3.9452,-4.091,-4.1673,-4.2054,-4.2029,-4.2066,-4.2108,-4.2112,-4.2954,-4.3854,-4.4737,-4.3951,-4.4098,-4.5462,-4.461,-4.4343,-4.4751,-4.4287,-4.4287,-4.4751,-4.4272,-4.4287,-4.4766,-4.4945,-4.493,-4.4736,-4.4436,-4.4212,-4.4003,-4.3484,-4.3185,-4.2985,-4.2147,-4.113,-4.0127,-4.0127,-3.9709,-3.9275,0.0,0.0,0.0,0.0,0.0,0.0,0.0,0.0,0.0,0.0,-2.1802,-2.2994,-2.4081,-2.5548,-2.6749,-2.7451,-2.7705,-2.7786,-2.7731,0.0,0.0,0.0,0.0,-3.123,-3.2846,-3.4045,-3.5319,-3.6663,-3.8625,-3.9752,-4.0046,-4.1631,-4.3165,-4.4532,-4.456,-4.4696,-4.4807,-4.4836,-4.3832,-4.2109,-4.0988,-3.89,-3.6382,-3.5514,-3.4366,-3.3163,-3.2579,-3.2017,-3.1391,-3.0657,0.0,0.0,0.0,0.0,0.0,0.0,0.0,0.0,0.0,0.0,0.0,0.0,0.0,0.0,0.0,0.0,0.0,0.0,0.0,0.0,0.0,0.0,0.0,0.0,-3.7021,-3.7692,-3.879,-3.9758,-4.0824,-4.2061,-4.2845,-4.3246,-4.3136,-4.3051,-4.2983,-4.2938,-4.3556,-4.422,-4.4831,-4.4388,-4.4645,-4.5669,-4.5077,-4.4915,-4.5289,-4.4915,-4.4915,-4.5289,-4.4915,-4.493,-4.5304,-4.5589,-4.5424,-4.4885,-4.4766,-4.4407,-4.3828,-4.3454,-4.329,0.0,0.0,0.0,0.0,0.0,-4.0561,-4.0352,0.0,0.0,0.0,0.0,0.0,0.0,0.0,0.0,0.0,0.0,0.0,-2.2401,-2.401,-2.4483,-2.5277,-2.6838,-2.6419,-2.6298,0.0,0.0,0.0,-2.8793,-2.9352,-3.0817,-3.3372,-3.4326,-3.536,-3.6477,-3.8177,-3.9263,-3.9794,-4.0759,-4.2354,-4.4352,-4.3622,-4.4042,-4.5163,-4.4486,-4.4015,-4.3638,-4.2999,-4.1197,-3.8612,-3.5966,-3.5185,-3.5321,-3.406,-3.2811,-3.1735,-3.1735,0.0,0.0,0.0,0.0,0.0,0.0,0.0,0.0,0.0,0.0,0.0,0.0,0.0,0.0,0.0,0.0,0.0,0.0,0.0,0.0,0.0,0.0,0.0,0.0,-3.8147,-3.9826,-4.241,-4.1868,-4.1661,-4.2828,-4.4283,-4.4757,-4.366,-4.4228,-4.4289,-4.3474,-4.3947,-4.4122,-4.3648,0.0,0.0,0.0,0.0,-4.5454,-4.5514,-4.5454,-4.5454,-4.5514,-4.5454,-4.5454,-4.5544,-4.6157,-4.5741,-4.4691,-4.5185,-4.4706,-4.3514,-4.3439,-4.3364,-4.323,-4.2626,-4.2396,-4.2336,-4.1752,-4.1482,-4.1399,0.0,0.0,0.0,0.0,0.0,0.0,0.0,0.0,0.0,-2.0598,-2.1614,-2.2755,-2.4063,-2.4726,-2.539,-2.6138,-2.5697,-2.5254,0.0,0.0,-2.7525,-2.7856,-3.0406,-3.2341,-3.3457,-3.4755,-3.5508,-3.5701,-3.8383,-3.9431,-3.8997,-4.147,-4.3153,-4.4167,-4.4561,-4.4503,-4.4149,-4.4513,-4.359,-4.1932,-4.2326,-4.1286,-3.9416,-3.8251,-3.6529,-3.4693,-3.4385,-3.3784,-3.311,-3.311,-3.2602,-3.1854,-3.1301,0.0,0.0,0.0,0.0,0.0,0.0,0.0,0.0,0.0,0.0,0.0,0.0,0.0,0.0,0.0,0.0,0.0,0.0,0.0,0.0,-4.0258,-4.1617,-4.2982,-4.4749,-4.4643,-4.4798,-4.5781,-4.5709,-4.5492,-4.5264,-4.4254,-4.3737,-4.4077,-4.4242,-4.4736,-4.5651,-4.5454,-4.5738,-4.6696,-4.6337,-4.6381,-4.692,-4.6396,-4.6396,-4.692,0.0,0.0,-4.692,-4.7055,-4.698,-4.6711,-4.6307,-4.5663,-4.487,-4.4347,-4.3768,-4.323,-4.2626,-4.2396,-4.2381,-4.2246,-4.1871,-4.1534,0.0,0.0,0.0,0.0,0.0,0.0,0.0,0.0,0.0,0.0,-2.0997,-2.1889,-2.2749,-2.3205,-2.3653,-2.4145,-2.4258,0.0,0.0,-2.6645,-2.7904,-2.8921,-3.1204,-3.2928,-3.3994,-3.5015,-3.553,-3.5504,-3.7685,-3.8496,-3.8098,-4.0288,-4.2068,-4.3476,-4.3787,-4.4089,-4.4301,-4.4657,-4.3838,-4.2387,-4.2716,-4.1942,-4.0441,-3.9382,-3.7537,-3.5507,-3.5507,-3.4863,-3.3978,-3.3978,-3.3544,-3.2946,-3.2617,-3.2048,-3.139,0.0,0.0,0.0,0.0,0.0,0.0,0.0,0.0,0.0,0.0,0.0,0.0,0.0,0.0,-3.4491,0.0,0.0,-3.9711,-4.213,-4.3531,-4.4704,-4.5784,-4.615,-4.6112,-4.5546,-4.52,-4.488,-4.453,-4.4072,-4.3783,-4.3783,-4.471,-4.5319,-4.5319,-4.5948,-4.6456,-4.68,-4.6815,-4.698,-4.7309,-4.698,-4.698,-4.7309,-4.698,-4.6995,-4.7294,-4.6965,-4.6621,-4.6262,-4.5603,-4.4945,-4.4287,-4.3958,-4.3589,-4.326,-4.297,-4.2851,-4.2851,-4.2851,-4.2641,-4.2447,0.0,0.0,0.0,0.0,0.0,0.0,0.0,0.0,0.0,0.0,-2.0288,-2.0899,-2.1435,-2.1622,-2.1887,0.0,0.0,0.0,0.0,-2.6853,-2.8253,-3.0062,-3.1784,-3.326,-3.4474,-3.516,-3.5504,-3.5504,-3.6757,-3.7397,-3.7419,-3.8872,-4.0612,-4.2535,-4.2674,-4.3393,-4.451,-4.451,-4.4028,-4.329,-4.329,-4.2551,-4.1287,-4.0068,-3.8377,-3.6656,-3.6537,-3.5657,-3.4488,-3.4354,-3.4023,-3.3664,-3.3529,-3.3215,-3.2736,-3.1929,-3.1301,0.0,0.0,0.0,0.0,0.0,0.0,0.0,0.0,0.0,-3.3799,-3.5028,-3.5878,-3.6971,-3.8661,-4.0172,-4.1728,-4.3479,-4.484,-4.5828,-4.6219,-4.6785,-4.6411,-4.4541,-4.4421,-4.4242,-4.3544,-4.3962,-4.4152,-4.3708,-4.5293,-4.5903,-4.4945,-4.6426,-4.7055,-4.6488,-4.7025,-4.7309,-4.7309,-4.7309,-4.7309,-4.7309,-4.7309,-4.7309,-4.7279,-4.6621,-4.6022,-4.5454,-4.4661,-4.4003,-4.3469,-4.3349,-4.329,-4.329,-4.329,-4.329,-4.329,-4.329,-4.329,-4.329,0.0,0.0,0.0,0.0,0.0,0.0,0.0,0.0,0.0,0.0,0.0,0.0,0.0,0.0,0.0,0.0,0.0,0.0,-2.4679,-2.6537,-2.8211,-2.9612,-3.2047,-3.3724,-3.4488,-3.516,-3.5504,-3.5504,-3.6247,-3.6892,-3.7434,-3.8777,-4.0184,-4.1573,-4.2159,-4.2836,-4.3488,-4.3488,-4.3409,-4.329,-4.329,-4.2551,-4.1332,-4.0561,-3.905,-3.724,-3.6686,-3.5657,-3.4414,-3.3799,-3.3948,-3.4294,-3.3679,-3.3844,-3.4039,-3.2766,0.0,-3.2138,-3.1466,-3.1286,-3.1585,-3.2856,-3.3275,-3.3858,0.0,0.0,-3.706,-3.7808,-3.896,-4.0098,-4.0891,-4.2596,-4.4137,-4.4945,-4.6202,-4.6905,-4.6354,-4.6339,-4.5903,-4.4481,-4.4825,-4.493,-4.4272,-4.4272,-4.4526,-4.5035,-4.5858,-4.6516,-4.695,-4.7189,-4.7279,-4.7189,-4.7264,-4.7309,-4.7309,-4.7309,-4.7309,-4.7309,-4.7309,-4.7309,-4.7279,-4.6621,-4.6234,-4.6142,-4.487,-4.4272,-4.4152,-4.3544,-4.329,-4.329,-4.329,-4.329,-4.329,-4.329,-4.329,-4.329,0.0,0.0,0.0,0.0,0.0,0.0,0.0,0.0,0.0,0.0,0.0,0.0,0.0,0.0,0.0,0.0,0.0,0.0,-2.5038,-2.6333,-2.7794,-2.9532,-3.136,-3.2841,-3.3888,-3.4562,-3.51,-3.5504,-3.6163,-3.6611,-3.6896,-3.8212,-3.9334,-4.0277,-4.0935,-4.1803,-4.2746,-4.2357,-4.2417,-4.2731,-4.2357,-4.1639,-4.0741,-4.0083,-3.8362,-3.6207,-3.5564,-3.4743,0.0,0.0,-3.2796,-3.329,-3.3021,-3.311,-3.323,-3.2677,-3.2213,0.0,-3.1585,-3.2064,0.0,0.0,-3.4921,-3.6193,-3.7823,-3.8691,-3.9454,-4.0524,-4.1444,-4.2417,-4.3464,-4.4661,-4.5693,0.0,-4.6621,-4.6636,-4.6324,-4.5978,-4.5095,-4.3389,-4.3748,-4.4047,-4.3738,-4.4436,-4.484,-4.4736,-4.6067,-4.6845,-4.6741,-4.71,-4.7309,-4.7309,-4.7309,-4.7309,-4.7309,-4.7309,-4.7309,-4.7309,-4.7309,-4.7115,-4.6711,-4.6037,-4.5304,-4.4515,-4.3947,-4.3708,-4.3678,-4.3409,-4.329,-4.329,-4.329,-4.329,-4.329,-4.329,-4.329,-4.329,0.0,0.0,0.0,0.0,0.0,0.0,0.0,0.0,0.0,0.0,0.0,0.0,0.0,0.0,0.0,0.0,0.0,0.0,0.0,-2.5854,-2.7126,-2.8978,-3.0447,-3.1839,-3.32,-3.4038,-3.4816,-3.5504,-3.5983,-3.6312,-3.6507,-3.7434,-3.8317,-3.9155,-3.9634,-4.0487,-4.1557,-4.104,-4.1115,-4.1542,-4.1025,-4.0442,-3.9738,-3.8721,-3.7045,-3.513,-3.4442,-3.3544,0.0,0.0,-3.1391,-3.1958,-3.1958,-3.2064,-3.2213,-3.2213,-3.1869,-3.1585,-3.1944,0.0,0.0,-3.5282,-3.6911,-3.8631,-4.0172,-4.116,-4.2073,-4.3264,-4.3823,-4.4351,-4.5155,-4.5708,-4.6142,-4.6426,-4.6232,-4.5978,-4.5756,-4.5185,-4.4092,-4.2336,-4.2342,-4.2482,-4.2482,-4.3868,-4.4706,-4.4586,-4.6112,-4.6905,-4.6606,-4.7055,-4.7309,-4.7309,-4.713,-4.7115,-4.7309,-4.713,-4.713,-4.7309,-4.7309,-4.7055,-4.6576,-4.5693,-4.4571,-4.329,-4.329,-4.329,-4.329,-4.329,-4.329,-4.329,-4.329,-4.329,-4.329,-4.329,-4.329,-4.329,0.0,0.0,0.0,0.0,0.0,0.0,0.0,0.0,0.0,0.0,0.0,0.0,0.0,0.0,0.0,0.0,0.0,0.0,0.0,-2.4896,-2.6243,-2.76,-2.949,-3.1165,-3.2512,-3.3814,-3.4816,-3.5504,-3.5534,-3.5863,-3.6492,-3.6522,-3.721,-3.8422,-3.8437,-3.8841,-3.9514,-3.9448,-3.9448,-3.9514,-3.9448,-3.9065,-3.8242,-3.6342,-3.516,-3.4459,-3.3769,0.0,0.0,0.0,-3.0058,-3.0567,-3.0567,-3.1002,0.0,-3.1525,-3.1525,0.0,0.0,0.0,-3.5087,-3.7629,-3.929,-4.0831,-4.2821,-4.4242,-4.5349,-4.6052,-4.6175,-4.5995,-4.5409,-4.5304,-4.5125,-4.4511,-4.493,-4.511,-4.4466,-4.3768,-4.2895,-4.1564,-4.0861,-4.0487,0.0,-4.2213,-4.3873,-4.517,-4.5933,-4.6621,-4.7249,-4.7294,-4.7309,-4.7309,-4.6696,-4.6651,-4.7294,-4.6681,-4.6681,-4.7309,-4.7309,-4.7294,-4.7234,-4.5903,-4.4571,-4.329,-4.329,-4.329,-4.329,-4.329,-4.329,-4.329,-4.329,-4.329,-4.329,-4.329,-4.329,-4.329,0.0,0.0,0.0,0.0,0.0,0.0,0.0,0.0,0.0,0.0,0.0,0.0,0.0,0.0,0.0,0.0,0.0,0.0,0.0,-2.4029,-2.4866,-2.6213,-2.732,-2.8532,-2.9894,-3.0776,-3.1973,-3.3514,-3.3514,-3.3858,-3.4517,-3.4951,-3.5417,-3.5851,-3.6267,-3.6851,-3.7449,-3.7,-3.7315,-3.7973,-3.6671,-3.6267,-3.6267,-3.4277,-3.2826,-3.1749,0.0,0.0,0.0,0.0,0.0,-2.9235,-2.9235,-2.9699,-3.0313,-3.0731,-3.1794,-3.3021,0.0,0.0,-3.7614,-3.985,-4.1698,-4.3404,-4.4975,-4.6007,-4.6441,-4.5783,-4.496,-4.4167,-4.3519,-4.2641,-4.2402,-4.3439,-4.3479,-4.3569,-4.4227,-4.3708,-4.2482,-4.0337,-4.0651,0.0,0.0,0.0,0.0,-4.3928,-4.5397,-4.6384,-4.6636,-4.707,-4.7309,-4.7309,-4.7085,-4.7085,-4.7309,-4.7085,-4.7085,-4.7294,-4.6396,-4.5738,-4.5289,-4.4407,-4.3708,-4.329,-4.329,-4.329,-4.329,-4.329,-4.329,-4.329,-4.329,-4.329,-4.329,-4.329,-4.329,-4.329,0.0,0.0,0.0,0.0,0.0,0.0,0.0,0.0,0.0,0.0,0.0,0.0,0.0,0.0,0.0,0.0,0.0,0.0,0.0,0.0,-2.3759,-2.4837,-2.5764,-2.6871,-2.8203,-2.8891,-2.9968,-3.1465,-3.1689,-3.2018,-3.2437,-3.311,-3.3425,-3.344,-3.3888,-3.4322,-3.4696,-3.4262,-3.453,-3.519,-3.3933,-3.3694,-3.3888,-3.2138,-3.0926,0.0,0.0,0.0,0.0,0.0,0.0,0.0,-2.8233,-2.8873,-2.9786,-3.0612,-3.2287,-3.4174,0.0,-3.7629,-3.9993,-4.2222,-4.3913,-4.5259,-4.6085,-4.6456,-4.6142,-4.4571,-4.3225,-4.1968,-4.0853,-4.0098,-4.0023,-4.1017,-4.1265,-4.1773,-4.3075,-4.2491,-4.1451,-4.0262,-4.0442,-4.0262,0.0,0.0,0.0,-4.323,-4.496,-4.6067,-4.6264,-4.695,-4.7309,-4.7309,-4.707,-4.707,-4.7309,-4.707,-4.695,-4.695,-4.6082,-4.5185,-4.4302,-4.3828,-4.3514,-4.329,-4.329,-4.329,-4.329,-4.329,-4.329,-4.329,-4.329,-4.329,-4.329,-4.329,-4.329,-4.329,0.0,0.0,0.0,0.0,0.0,0.0,0.0,0.0,0.0,0.0,0.0,0.0,0.0,0.0,0.0,0.0,0.0,0.0,0.0,0.0,0.0,-2.352,-2.4777,-2.6078,-2.742,-2.8068,-2.8742,-2.9457,-3.0013,-3.0328,-3.0372,-3.1002,-3.1301,-3.1301,-3.1301,-3.1301,-3.1301,-3.1346,-3.1376,-3.1406,-3.1376,-3.1376,-3.1256,-2.9983,0.0,0.0,0.0,0.0,0.0,0.0,0.0,0.0,0.0,0.0,-2.9939,-3.1256,-3.3095,-3.5267,-3.7838,-4.0023,-4.2192,-4.4706,-4.5843,-4.6264,-4.6234,-4.5678,-4.4586,-4.265,-4.1115,-3.9559,0.0,0.0,-3.7973,-3.7479,-3.8542,-3.9888,-4.125,-4.0382,-4.0053,0.0,0.0,0.0,0.0,0.0,0.0,-4.3245,0.0,-4.5589,-4.619,-4.6935,-4.7309,-4.7309,-4.6696,-4.6681,-4.7294,-4.6651,-4.6264,-4.6277,-4.619,-4.5487,-4.4272,-4.4272,-4.3888,-4.329,-4.329,-4.329,-4.329,-4.329,-4.329,-4.329,-4.329,-4.329,-4.329,-4.329,-4.329,-4.329,0.0,0.0,0.0,0.0,0.0,0.0,0.0,0.0,0.0,0.0,0.0,0.0,0.0,0.0,0.0,0.0,0.0,0.0,0.0,0.0,0.0,0.0,0.0,0.0,0.0,0.0,0.0,0.0,0.0,-2.7844,-2.8349,-2.8513,-2.8577,-2.8577,-2.8577,-2.8577,-2.8622,-2.9131,-2.9639,-3.0043,0.0,-2.9639,-2.9939,0.0,0.0,0.0,0.0,0.0,0.0,0.0,0.0,0.0,0.0,0.0,-3.1361,-3.32,-3.5474,-3.7868,-4.0038,-4.2417,-4.4586,-4.5768,-4.6145,-4.6187,-4.5678,-4.4287,-4.259,-4.0576,-3.8347,-3.6447,0.0,0.0,0.0,-3.712,-3.8542,0.0,-4.1901,-4.2237,0.0,0.0,0.0,-4.1527,-4.116,-4.2162,0.0,0.0,-4.4825,-4.5364,-4.5544,-4.6666,-4.7309,-4.7309,-4.7145,-4.713,-4.7309,-4.6651,-4.6067,-4.5544,-4.5065,-4.4392,-4.3544,-4.3544,-4.3454,-4.329,-4.329,-4.329,-4.329,-4.329,-4.329,-4.329,-4.329,-4.329,-4.329,-4.329,-4.329,-4.329,0.0,0.0,0.0,0.0,0.0,0.0,0.0,0.0,0.0,0.0,0.0,0.0,0.0,0.0,0.0,0.0,0.0,0.0,0.0,0.0,0.0,0.0,0.0,0.0,0.0,0.0,0.0,0.0,0.0,0.0,0.0,-2.6572,-2.6707,-2.6707,-2.6707,-2.6707,-2.6761,-2.7126,0.0,0.0,0.0,0.0,0.0,0.0,0.0,0.0,0.0,0.0,0.0,0.0,0.0,-2.9699,-3.1269,-3.2437,-3.3693,-3.5983,0.0,-4.0142,-4.2117,-4.4167,-4.5903,-4.6591,-4.6322,-4.5544,-4.4302,-4.2491,-4.0337,-3.7778,-3.5848,0.0,0.0,0.0,0.0,0.0,0.0,0.0,-4.0786,-4.1639,-4.2102,0.0,-4.2821,0.0,-4.2701,-4.3599,-4.4347,0.0,-4.5364,-4.5738,-4.5738,-4.6741,-4.7309,-4.7309,-4.7309,-4.7309,-4.7309,-4.6935,-4.6262,-4.5289,-4.4915,-4.4242,-4.329,-4.329,-4.329,-4.329,0.0,-4.329,-4.329,-4.329,-4.329,-4.329,-4.329,-4.329,-4.329,-4.329,-4.329,-4.329,0.0,0.0,0.0,0.0,0.0,0.0,0.0,0.0,0.0,0.0,0.0,0.0,0.0,0.0,0.0,0.0,0.0,0.0,0.0,0.0,0.0,0.0,0.0,0.0,0.0,0.0,0.0,0.0,0.0,0.0,0.0,0.0,0.0,0.0,0.0,0.0,0.0,0.0,0.0,0.0,0.0,0.0,0.0,0.0,0.0,0.0,0.0,0.0,0.0,0.0,-3.0193,-3.1106,-3.38,-3.5205,-3.6402,-3.9035,-4.0741,-4.2177,-4.4062,-4.5499,-4.6576,-4.7055,-4.6097,-4.4526,-4.259,-4.0442,-3.8033,-3.4981,0.0,-3.2916,-3.1824,0.0,-3.3559,-3.3739,0.0,-3.73,-3.9275,-4.0113,-4.122,-4.3065,-4.3873,-4.4347,-4.4436,-4.505,-4.5469,-4.5559,-4.6112,-4.6369,-4.6279,-4.695,-4.7309,-4.7309,-4.7309,-4.7309,-4.7309,-4.7219,-4.6591,-4.5424,-4.5334,-4.4646,-4.3424,-4.3424,-4.3379,-4.329,-4.329,0.0,-4.329,-4.329,-4.329,-4.329,-4.329,-4.329,-4.329,-4.329,-4.329,-4.329,0.0,0.0,0.0,0.0,0.0,0.0,0.0,0.0,0.0,0.0,-1.9708,0.0,0.0,0.0,0.0,0.0,0.0,0.0,0.0,0.0,0.0,0.0,0.0,0.0,0.0,0.0,0.0,0.0,0.0,0.0,0.0,0.0,0.0,0.0,0.0,0.0,0.0,0.0,0.0,0.0,0.0,0.0,0.0,0.0,0.0,0.0,0.0,0.0,0.0,0.0,-3.1241,-3.1795,-3.4487,-3.6507,-3.8407,-4.1108,-4.2776,-4.4122,-4.5574,-4.6546,-4.704,-4.6563,-4.5095,-4.3195,-4.119,-3.8377,0.0,0.0,0.0,-3.1944,-3.2258,-3.2976,0.0,-3.4981,0.0,0.0,0.0,0.0,-4.1743,0.0,0.0,0.0,0.0,0.0,0.0,0.0,0.0,-4.689,-4.6309,-4.695,-4.7309,-4.7309,-4.7309,-4.7309,-4.7309,-4.677,-4.6381,-4.6142,-4.5559,-4.4885,-4.4152,-4.4152,-4.3798,-4.329,-4.329,0.0,-4.329,-4.329,-4.329,-4.329,-4.329,-4.329,-4.329,-4.329,-4.329,-4.329,0.0,0.0,0.0,0.0,0.0,0.0,0.0,0.0,0.0,0.0,-1.9708,-1.9708,0.0,0.0,0.0,0.0,0.0,0.0,0.0,0.0,0.0,0.0,0.0,0.0,0.0,0.0,0.0,0.0,0.0,0.0,0.0,0.0,0.0,0.0,0.0,0.0,0.0,0.0,0.0,0.0,0.0,0.0,0.0,0.0,0.0,0.0,0.0,0.0,0.0,0.0,-3.0731,-3.1704,-3.5729,-3.7883,-3.9439,-4.2087,-4.3554,-4.4601,-4.5963,-4.68,-4.7145,-4.6486,-4.4317,-4.1818,-3.9813,0.0,0.0,0.0,0.0,-3.16,-3.1914,0.0,0.0,0.0,0.0,0.0,0.0,0.0,0.0,0.0,0.0,0.0,0.0,0.0,0.0,0.0,0.0,-4.7174,-4.686,-4.713,-4.7309,-4.7309,-4.7309,-4.7309,-4.7309,-4.6995,-4.6666,-4.6264,-4.5618,-4.4945,-4.4302,-4.3958,-4.3589,-4.329,-4.329,0.0,-4.329,-4.329,-4.329,-4.329,-4.329,-4.329,-4.329,-4.329,-4.329,-4.329,0.0,0.0,0.0,0.0,0.0,0.0,0.0,-1.9262,-1.9566,-1.969,-1.9708,-1.9708,-1.9708,-1.9708,0.0,0.0,0.0,0.0,0.0,0.0,0.0,0.0,0.0,0.0,0.0,0.0,0.0,0.0,0.0,0.0,0.0,0.0,0.0,0.0,0.0,0.0,0.0,0.0,0.0,0.0,0.0,0.0,0.0,0.0,0.0,0.0,0.0,0.0,0.0,0.0,-2.9909,-3.1106,-3.5684,-3.7988,-3.9418,-4.1765,-4.3319,-4.4571,-4.5783,-4.6696,-4.707,-4.6127,-4.3509,-4.0621,-3.8467,-3.5549,0.0,0.0,-3.1511,-3.154,-3.169,0.0,0.0,0.0,0.0,0.0,0.0,0.0,0.0,0.0,0.0,0.0,0.0,0.0,0.0,0.0,0.0,0.0,-4.7309,-4.7309,-4.7309,-4.7309,-4.7309,-4.7309,-4.7309,-4.7309,-4.7055,-4.6488,-4.5978,-4.5304,-4.4511,-4.3988,-4.3559,-4.329,-4.329,0.0,0.0,-4.329,-4.329,-4.329,-4.329,-4.329,-4.329,-4.329,-4.329,-4.329,0.0,0.0,0.0,0.0,0.0,0.0,0.0,-1.8949,-1.9151,-1.9639,-1.9708,-1.9708,-1.9708,-1.9708,0.0,0.0,0.0,0.0,0.0,0.0,0.0,0.0,0.0,0.0,0.0,0.0,0.0,0.0,0.0,0.0,0.0,0.0,0.0,0.0,0.0,0.0,0.0,0.0,0.0,0.0,0.0,0.0,0.0,0.0,0.0,0.0,0.0,0.0,0.0,0.0,0.0,-3.0086,-3.2332,-3.5145,-3.7883,-3.9313,0.0,0.0,-4.5185,-4.6322,-4.686,-4.4975,-4.2476,-3.9813,-3.7255,0.0,0.0,0.0,-3.1511,-3.169,-3.2288,-3.2961,0.0,0.0,0.0,0.0,0.0,0.0,0.0,0.0,0.0,0.0,0.0,0.0,0.0,0.0,0.0,0.0,-4.7309,-4.7309,-4.7309,-4.7309,-4.7309,-4.7309,-4.7309,-4.7309,-4.7279,-4.7219,-4.716,-4.6456,-4.52,-4.514,-4.4466,-4.329,-4.329,0.0,0.0,-4.329,-4.329,-4.329,-4.329,-4.329,-4.329,-4.329,-4.329,-4.329,0.0,0.0,0.0,0.0,0.0,0.0,0.0,-1.8496,-1.8987,-1.9188,-1.9497,-1.9708,-1.9708,-1.9708,-1.9708,0.0,0.0,0.0,0.0,0.0,0.0,0.0,0.0,0.0,0.0,0.0,0.0,0.0,0.0,0.0,0.0,0.0,0.0,0.0,0.0,0.0,0.0,0.0,0.0,0.0,0.0,0.0,0.0,0.0,0.0,0.0,0.0,0.0,0.0,0.0,0.0,0.0,-2.9322,-3.0986,0.0,0.0,-3.9409,-4.1683,-4.3135,-4.4781,-4.5723,-4.4152,-4.1459,-3.8721,-3.6896,0.0,0.0,-3.1555,-3.1511,-3.1585,-3.1854,-3.2108,-3.2662,0.0,0.0,0.0,0.0,0.0,0.0,0.0,0.0,0.0,0.0,0.0,0.0,0.0,0.0,0.0,-4.7309,-4.7309,-4.7309,-4.7309,-4.7309,-4.7309,-4.7309,-4.7309,-4.7309,-4.7309,-4.6905,-4.6217,-4.5289,-4.4885,-4.4212,-4.329,-4.329,0.0,0.0,-4.329,-4.329,-4.329,-4.329,-4.329,-4.329,-4.329,-4.329,-4.329,0.0,0.0,0.0,0.0,0.0,0.0,-1.7271,-1.8086,-1.8708,-1.8874,-1.9369,-1.9708,-1.9708,-1.9708,-1.9708,-1.9708,0.0,0.0,0.0,0.0,0.0,0.0,0.0,0.0,0.0,0.0,0.0,0.0,0.0,0.0,0.0,0.0,0.0,0.0,0.0,0.0,0.0,0.0,0.0,0.0,0.0,0.0,0.0,0.0,0.0,0.0,0.0,0.0,0.0,0.0,0.0,0.0,0.0,0.0,0.0,0.0,-3.6537,-3.8901,-4.0472,-4.2626,-4.4062,-4.2581,-4.0142,-3.7719,0.0,0.0,0.0,-3.1511,-3.1511,-3.1511,-3.1511,-3.166,-3.2168,0.0,0.0,0.0,0.0,0.0,0.0,0.0,0.0,0.0,0.0,0.0,0.0,0.0,0.0,0.0,-4.6785,-4.6726,-4.6916,-4.7309,-4.7309,-4.7309,-4.7309,-4.7309,-4.7309,-4.7294,-4.683,-4.6157,-4.5274,-4.4811,-4.4137,-4.329,-4.329,0.0,0.0,-4.329,-4.329,-4.329,-4.329,-4.329,-4.329,-4.329,-4.329,-4.329,0.0,0.0,0.0,0.0,0.0,0.0,0.0,-1.7767,-1.8302,-1.8836,-1.9369,-1.9708,-1.9708,-1.9708,-1.9708,-1.9708,0.0,0.0,0.0,0.0,0.0,0.0,0.0,0.0,0.0,0.0,0.0,-2.171,0.0,0.0,0.0,0.0,0.0,0.0,0.0,0.0,0.0,0.0,0.0,0.0,0.0,0.0,0.0,0.0,0.0,0.0,0.0,0.0,0.0,0.0,0.0,0.0,0.0,0.0,0.0,0.0,-3.3395,-3.6656,-3.7285,-3.9873,-4.1961,-3.9948,-3.8437,-3.6911,0.0,0.0,0.0,-3.1511,-3.1511,-3.1511,-3.1511,-3.2034,-3.2721,-3.338,-3.4038,0.0,0.0,0.0,0.0,0.0,0.0,0.0,0.0,0.0,0.0,0.0,0.0,0.0,-4.5494,-4.5403,-4.6018,-4.7251,-4.7309,-4.7309,-4.7309,-4.7309,-4.7309,-4.7309,-4.7294,-4.6591,-4.5289,-4.5289,-4.4571,0.0,0.0,0.0,0.0,-4.329,-4.329,-4.329,-4.329,-4.329,-4.329,-4.329,-4.329,-4.329,0.0,0.0,0.0,0.0,0.0,0.0,0.0,-1.7209,-1.7747,-1.8283,-1.8817,-1.9151,-1.9151,-1.9151,-1.9151,-1.9151,0.0,0.0,0.0,0.0,0.0,0.0,0.0,0.0,0.0,0.0,-2.0557,-2.1695,-2.1904,-2.2458,0.0,0.0,0.0,0.0,0.0,0.0,0.0,0.0,0.0,0.0,0.0,0.0,0.0,0.0,0.0,0.0,0.0,0.0,0.0,0.0,0.0,0.0,0.0,0.0,0.0,0.0,0.0,0.0,-3.4273,-3.6399,-3.8077,-3.6849,-3.5517,-3.4405,-3.3944,0.0,-2.995,-3.0554,-3.0208,-2.9797,-2.9797,-3.0457,-3.1132,-3.1567,-3.2346,0.0,0.0,0.0,0.0,0.0,0.0,0.0,0.0,0.0,0.0,0.0,0.0,0.0,-4.4088,-4.4116,-4.4688,-4.5973,-4.4791,-4.4155,-4.4155,-4.3759,-4.3531,-4.3576,-4.4385,-4.4296,-4.3506,-4.4258,-4.4152,0.0,0.0,0.0,0.0,-4.329,-4.329,-4.329,-4.329,-4.329,-4.329,-4.329,-4.329,-4.329,0.0,0.0,0.0,0.0,0.0,0.0,0.0,-1.6951,-1.7435,-1.7747,-1.8283,-1.8593,-1.8593,-1.8593,-1.8593,-1.8593,0.0,0.0,0.0,0.0,0.0,0.0,0.0,0.0,0.0,-1.9708,-2.0112,-2.0946,-2.144,-2.2099,-2.2892,-2.2981,-2.3236,0.0,0.0,0.0,0.0,0.0,0.0,0.0,0.0,0.0,-2.421,0.0,0.0,0.0,0.0,0.0,0.0,0.0,0.0,0.0,0.0,0.0,0.0,0.0,-2.7564,0.0,0.0,-3.284,-3.4326,-3.3756,-3.2986,0.0,0.0,0.0,-2.916,-2.969,-2.938,-2.9002,-2.9002,-2.9442,-3.0037,-3.0704,-3.1264,0.0,0.0,0.0,0.0,0.0,0.0,0.0,0.0,0.0,0.0,0.0,0.0,0.0,-4.2174,-4.2141,-4.2518,-4.331,-4.2907,-4.2699,-4.2699,-4.2108,-4.1789,-4.1834,-4.258,-4.2577,-4.1952,-4.2665,-4.264,0.0,0.0,0.0,0.0,-4.3115,-4.329,-4.329,-4.329,-4.329,-4.329,-4.329,-4.329,-4.329,0.0,0.0,0.0,0.0,0.0,0.0,0.0,0.0,0.0,0.0,-1.7727,-1.8046,-1.8046,-1.8046,-1.8066,0.0,0.0,0.0,0.0,0.0,0.0,0.0,0.0,0.0,0.0,-1.9708,-1.9705,-1.9713,-2.1051,-2.169,-2.1744,-2.2903,-2.3485,-2.3508,-2.2854,-2.2583,-2.2603,-2.1922,-2.203,-2.2626,-2.2581,-2.2878,0.0,0.0,0.0,0.0,0.0,0.0,0.0,0.0,0.0,0.0,0.0,0.0,0.0,0.0,0.0,0.0,0.0,0.0,0.0,0.0,0.0,0.0,0.0,0.0,0.0,-2.8907,-2.8876,-2.8826,-2.8867,-2.8944,-2.9329,-3.0472,0.0,0.0,0.0,0.0,0.0,0.0,0.0,0.0,0.0,0.0,0.0,0.0,0.0,0.0,-3.9836,-3.9741,-3.9741,-3.9741,-4.1402,-4.2329,-4.2329,-4.1695,-4.1438,-4.1438,-4.1483,-4.1225,-4.0597,-4.0686,-4.044,0.0,0.0,0.0,0.0,-4.2603,-4.3046,-4.3001,-4.3061,-4.3046,-4.3001,-4.3061,-4.3046,-4.3001,0.0,0.0,0.0,0.0,0.0,0.0,0.0,0.0,0.0,0.0,0.0,-1.7483,-1.7483,-1.7483,0.0,0.0,0.0,0.0,0.0,0.0,0.0,0.0,0.0,0.0,0.0,-1.9708,-1.9745,-1.9851,-2.1099,-2.1752,-2.1856,-2.204,-2.241,-2.286,-2.175,-2.1504,-2.1899,-2.1283,-2.1379,-2.1899,-2.1428,-2.1606,0.0,0.0,0.0,0.0,-2.3495,-2.3386,0.0,0.0,0.0,0.0,0.0,0.0,0.0,0.0,-2.4134,-2.3829,-2.4738,0.0,-2.8068,-2.7902,0.0,0.0,0.0,0.0,0.0,0.0,0.0,0.0,0.0,0.0,0.0,0.0,0.0,0.0,0.0,0.0,0.0,0.0,0.0,0.0,0.0,0.0,0.0,0.0,0.0,-3.8335,-3.8443,-3.8469,-3.8469,-3.8469,-3.8454,-3.8479,-3.8479,-3.7959,-3.7676,-3.7676,-3.8562,-3.8879,-3.8759,-3.9697,-4.0023,0.0,0.0,0.0,-4.0332,-4.0589,-4.0421,-4.0069,-4.052,-4.0407,-4.0069,-4.0534,-4.0407,-4.0151,0.0,0.0,0.0,0.0,0.0,0.0,0.0,0.0,0.0,0.0,0.0,0.0,0.0,0.0,0.0,0.0,0.0,0.0,0.0,0.0,0.0,0.0,0.0,0.0,-1.9332,-1.9332,-1.9363,-1.9445,-2.0406,-2.1085,-2.1447,-2.1629,-2.206,-2.2634,-2.136,-2.0818,-2.0805,-2.0484,-2.0708,-2.1245,-2.093,0.0,0.0,0.0,0.0,0.0,-2.2937,-2.267,0.0,-2.2939,-2.308,-2.2858,0.0,0.0,0.0,0.0,-2.3454,-2.317,-2.3484,-2.4808,-2.6122,-2.6285,-2.6736,-2.7263,0.0,0.0,0.0,0.0,0.0,0.0,0.0,0.0,0.0,0.0,0.0,0.0,0.0,0.0,0.0,0.0,0.0,0.0,0.0,0.0,0.0,0.0,0.0,-3.6935,-3.7236,-3.7249,-3.7249,-3.7249,-3.696,-3.6923,-3.7186,-3.6681,-3.6279,-3.5994,-3.6895,-3.7051,-3.6561,-3.7485,-3.7771,0.0,0.0,0.0,-3.8369,-3.8886,-3.8934,-3.8657,-3.9003,-3.892,-3.8657,-3.9003,-3.892,-3.8797,0.0,0.0,0.0,0.0,0.0,0.0,0.0,0.0,0.0,0.0,0.0,0.0,0.0,0.0,0.0,0.0,0.0,0.0,0.0,0.0,0.0,0.0,0.0,-1.8779,-1.8779,-1.8855,-1.8817,-1.865,-1.9484,-2.0147,-2.0634,-2.1274,-2.1818,-2.2221,-2.1126,-2.0321,-1.9798,-1.9798,-2.0131,-2.066,-2.066,0.0,0.0,0.0,0.0,0.0,0.0,0.0,0.0,-2.2675,-2.2696,-2.238,-2.2932,0.0,0.0,0.0,0.0,0.0,-2.3208,-2.3998,-2.4888,-2.536,-2.5975,-2.6499,0.0,0.0,0.0,0.0,0.0,0.0,0.0,0.0,0.0,0.0,0.0,0.0,0.0,0.0,0.0,0.0,0.0,0.0,0.0,0.0,0.0,0.0,0.0,-3.6405,-3.6405,-3.6405,-3.6405,-3.6405,-3.6405,-3.6593,-3.6935,-3.6471,-3.6006,-3.5508,-3.5931,-3.5617,-3.4738,-3.5157,-3.5119,-3.4758,0.0,0.0,-3.6305,-3.7265,-3.7618,-3.755,-3.7632,-3.7618,-3.755,-3.7646,-3.7618,-3.7689,0.0,0.0,0.0,0.0,0.0,0.0,0.0,0.0,0.0,0.0,0.0,0.0,0.0,0.0,0.0,0.0,0.0,0.0,0.0,0.0,0.0,0.0,-1.7686,-1.8224,-1.8224,-1.8669,-1.8458,-1.7544,-1.9119,-1.9732,-1.9391,-2.0459,-2.0703,-2.0245,-2.0042,-1.9901,-1.9798,-1.9798,-1.985,-1.9952,-1.9952,0.0,0.0,0.0,0.0,0.0,0.0,0.0,0.0,-2.1546,-2.2005,-2.238,-2.2932,0.0,0.0,0.0,0.0,0.0,-2.3728,-2.433,-2.4813,-2.4888,-2.5711,-2.6499,0.0,0.0,0.0,0.0,0.0,0.0,0.0,0.0,0.0,0.0,0.0,0.0,0.0,0.0,0.0,0.0,0.0,0.0,0.0,0.0,0.0,0.0,0.0,-3.6405,-3.6405,-3.6405,-3.6405,-3.6405,-3.6405,-3.6169,-3.5759,-3.5671,-3.5583,-3.5495,-3.5107,-3.4889,-3.468,-3.4768,-3.4756,-3.4726,0.0,-3.497,-3.497,-3.5181,-3.499,-3.4607,-3.5079,-3.4977,-3.462,-3.5092,-3.4964,-3.4653,0.0,0.0,0.0,0.0,0.0,0.0,0.0,0.0,0.0,0.0,0.0,0.0,0.0,0.0,0.0,0.0,0.0,0.0,0.0,0.0,0.0,-1.6522,-1.725,-1.7666,-1.7666,-1.7907,-1.795,-1.7779,-1.8588,-1.9186,-1.9612,-2.0424,-2.0446,-1.9798,-1.9798,-1.9798,-1.9798,-1.9798,-1.9798,-1.9798,0.0,0.0,0.0,0.0,0.0,0.0,0.0,0.0,0.0,0.0,-2.2347,-2.238,-2.2932,0.0,0.0,0.0,0.0,0.0,-2.3434,-2.4123,-2.4788,-2.4788,-2.5875,-2.6939,-2.6939,0.0,0.0,0.0,0.0,0.0,0.0,0.0,0.0,0.0,0.0,0.0,0.0,0.0,0.0,0.0,0.0,0.0,0.0,0.0,0.0,0.0,0.0,0.0,-3.5931,-3.5918,-3.5918,-3.5918,-3.5629,-3.5353,-3.5056,-3.4756,-3.4663,-3.4663,-3.47,-3.4412,-3.3847,-3.4135,-3.411,-3.3834,0.0,-3.3834,-3.3834,-3.3834,-3.3684,-3.3483,-3.3734,-3.3671,-3.3483,-3.3746,-3.4038,-3.4386,0.0,0.0,0.0,0.0,0.0,0.0,0.0,0.0,0.0,0.0,0.0,0.0,0.0,0.0,0.0,0.0,0.0,0.0,0.0,0.0,-1.65,-1.65,-1.7029,-1.7313,-1.7313,-1.7439,-1.7728,-1.8213,-1.8321,-1.8917,-1.9956,-2.0363,-2.0295,-1.9798,-1.9798,-1.9798,-1.9798,-1.9798,-1.9798,-1.9811,0.0,0.0,0.0,0.0,0.0,0.0,0.0,0.0,0.0,0.0,0.0,0.0,0.0,0.0,0.0,-2.3108,-2.3108,-2.3158,-2.3434,-2.4136,-2.485,-2.5146,0.0,-2.7165,-2.7291,0.0,0.0,0.0,0.0,0.0,0.0,0.0,0.0,0.0,0.0,0.0,0.0,0.0,0.0,0.0,0.0,0.0,0.0,0.0,0.0,0.0,0.0,0.0,-3.5332,-3.5307,-3.5307,-3.5307,-3.4893,-3.4663,-3.4525,-3.411,-3.3897,-3.3897,-3.4198,-3.3897,-3.3093,-3.352,-3.3483,-3.3124,-3.3124,-3.3124,-3.3124,-3.3124,-3.3124,-3.3124,-3.3124,-3.3124,-3.3124,-3.3124,-3.3641,-3.4304,0.0,0.0,0.0,0.0,0.0,0.0,0.0,0.0,0.0,0.0,0.0,0.0,0.0,0.0,0.0,0.0,0.0,0.0,0.0,0.0,-1.65,-1.65,-1.7068,-1.738,-1.738,-1.7887,-1.8159,-1.8212,-1.8704,-1.9246,-1.9812,-1.985,-1.985,-1.9798,-1.9798,-1.9798,-1.9798,-1.9798,-1.9798,-1.9849,-2.0415,0.0,0.0,0.0,0.0,0.0,0.0,0.0,0.0,0.0,0.0,0.0,0.0,0.0,-2.3108,-2.3108,-2.3108,-2.3333,-2.4387,-2.4725,-2.5059,-2.6122,0.0,0.0,-2.7203,-2.7318,0.0,0.0,0.0,0.0,0.0,0.0,0.0,0.0,0.0,0.0,0.0,0.0,0.0,0.0,0.0,0.0,0.0,0.0,0.0,0.0,0.0,0.0,-3.4776,-3.4776,-3.4776,-3.4776,-3.4705,-3.4474,-3.396,-3.3922,-3.3897,-3.3884,-3.342,-3.3156,-3.3124,-3.3162,-3.3162,-3.3124,-3.3124,-3.3124,-3.3124,-3.3124,-3.3124,-3.3124,-3.3124,-3.3124,-3.3124,-3.3124,-3.3154,-3.324,0.0,0.0,0.0,0.0,0.0,0.0,0.0,0.0,0.0,0.0,0.0,0.0,0.0,0.0,0.0,0.0,0.0,0.0,0.0,0.0,-1.65,-1.65,-1.6722,-1.7174,-1.7877,-1.8109,-1.8187,-1.8204,-1.9083,-1.961,-1.9798,-1.9798,-1.9798,-1.9798,-1.9798,-1.9798,-1.9798,-1.9798,-1.9798,-1.9849,-2.0465,-2.1018,0.0,0.0,0.0,0.0,0.0,0.0,0.0,0.0,-2.2794,-2.2832,0.0,-2.3108,-2.3108,-2.3108,-2.3108,-2.3283,-2.4061,-2.4556,-2.4963,-2.5737,0.0,0.0,0.0,0.0,0.0,0.0,0.0,0.0,0.0,0.0,0.0,0.0,0.0,0.0,0.0,0.0,0.0,0.0,0.0,0.0,0.0,0.0,0.0,0.0,0.0,0.0,-3.3734,-3.4022,-3.406,-3.3709,-3.3709,-3.342,-3.2855,-3.2855,-3.2679,-3.234,-3.2478,-3.2541,-3.2541,-3.2541,-3.2742,-3.3124,-3.3124,-3.3124,-3.3124,-3.3124,-3.3124,-3.3124,-3.3124,-3.3124,-3.3124,-3.3124,-3.3124,-3.3124,0.0,0.0,0.0,0.0,0.0,0.0,0.0,0.0,0.0,0.0,0.0,0.0,0.0,0.0,0.0,0.0,0.0,0.0,0.0,-1.65,-1.65,-1.65,-1.6685,-1.7074,-1.7652,-1.8191,-1.8543,-1.8706,-1.9447,-1.9798,-1.9798,-1.9798,-1.9798,-1.9811,-1.9987,-2.0075,-2.0075,-2.0075,-2.0175,-2.0363,-2.0792,-2.1282,0.0,0.0,0.0,0.0,0.0,0.0,0.0,0.0,-2.3108,0.0,0.0,0.0,-2.3145,-2.3321,-2.3384,-2.3534,-2.4305,-2.477,-2.5234,0.0,0.0,0.0,0.0,0.0,0.0,0.0,0.0,0.0,0.0,0.0,0.0,0.0,0.0,0.0,0.0,0.0,0.0,0.0,0.0,0.0,0.0,0.0,0.0,0.0,0.0,0.0,0.0,-3.2905,-3.293,-3.2554,-3.2541,-3.2353,-3.1951,-3.1951,-3.1687,-3.1148,-3.1524,-3.1788,-3.1951,-3.1951,-3.2164,-3.2541,-3.2541,-3.2541,-3.2541,-3.2541,-3.2541,-3.2566,-3.2729,-3.2805,-3.283,-3.3048,-3.3124,-3.3124,0.0,0.0,0.0,0.0,0.0,0.0,0.0,0.0,0.0,0.0,0.0,0.0,0.0,0.0,0.0,0.0,0.0,0.0,0.0,-1.65,-1.65,-1.65,-1.7074,-1.7112,-1.6525,-1.8155,-1.9259,-1.9798,-1.9798,-1.9798,-1.9798,-1.9798,-1.9798,-1.9836,-2.0427,-2.0691,-2.0704,-2.0704,-2.1018,-2.1493,-2.1493,-2.1832,-2.2372,0.0,0.0,0.0,0.0,0.0,0.0,0.0,-2.3108,-2.3108,0.0,0.0,0.0,-2.3828,-2.4004,-2.4243,-2.531,-2.5598,0.0,0.0,0.0,0.0,0.0,0.0,0.0,0.0,0.0,0.0,0.0,0.0,0.0,0.0,0.0,0.0,0.0,0.0,0.0,0.0,0.0,0.0,0.0,0.0,0.0,0.0,0.0,0.0,0.0,-3.1386,-3.1386,-3.1386,-3.1386,-3.1386,-3.1386,-3.1386,-3.1122,-3.0608,-3.0608,-3.0884,-3.1386,-3.1386,-3.1386,-3.1386,-3.1386,-3.1386,-3.1386,-3.1386,-3.1386,-3.1449,-3.1989,-3.2202,-3.2277,-3.2855,-3.3111,-3.3111,0.0,0.0,0.0,0.0,0.0,0.0,0.0,0.0,0.0,0.0,0.0,0.0,0.0,0.0,0.0,0.0,0.0,0.0,0.0,-1.65,-1.65,-1.65,-1.6254,-1.6622,-1.7666,-1.8932,-1.9648,-1.9798,-1.9798,-1.9798,-1.9798,-1.9798,-2.0024,-2.044,-2.0616,-2.0905,-2.127,-2.127,-2.1343,-2.1518,-2.1907,-2.2171,-2.2372,0.0,0.0,0.0,0.0,0.0,0.0,0.0,0.0,0.0,0.0,0.0,0.0,-2.3954,-2.4268,-2.472,-2.541,-2.5598,0.0,0.0,0.0,0.0,0.0,0.0,0.0,0.0,0.0,0.0,0.0,0.0,0.0,0.0,0.0,0.0,0.0,0.0,0.0,0.0,0.0,0.0,0.0,0.0,0.0,0.0,0.0,0.0,0.0,-3.1198,-3.1223,-3.0859,-3.1198,-3.1223,-3.0846,-3.0846,-3.057,-3.0043,-3.0043,-3.0319,-3.0846,-3.0846,-3.1047,-3.1386,-3.1386,-3.1386,-3.1386,-3.1386,-3.1386,-3.1411,-3.1574,-3.1637,-3.17,-3.2265,-3.2466,-3.2528,0.0,0.0,0.0,0.0,0.0,0.0,0.0,0.0,0.0,0.0,0.0,0.0,0.0,0.0,0.0,0.0,0.0,0.0,0.0,0.0,-1.603,-1.5788,-1.5869,-1.6733,-1.8481,-1.9133,-1.9432,-1.9371,-1.9669,-1.9798,-1.9811,-1.9698,-1.9848,-2.0192,-2.0622,-2.099,-2.1326,-2.1665,-2.1945,-2.2159,-2.2272,-2.2447,-2.2644,0.0,0.0,0.0,0.0,0.0,0.0,0.0,0.0,0.0,0.0,0.0,0.0,-2.4268,-2.4707,-2.5247,-2.5787,0.0,0.0,0.0,0.0,0.0,0.0,0.0,0.0,0.0,0.0,0.0,0.0,0.0,0.0,0.0,0.0,0.0,0.0,0.0,0.0,0.0,0.0,0.0,0.0,0.0,0.0,0.0,0.0,0.0,0.0,-3.0583,-3.062,-3.0294,-3.0595,-3.0608,-3.0294,-3.0281,-3.0118,-2.9792,-2.9792,-2.9967,-3.0281,-3.0281,-3.0457,-3.0758,-3.0758,-3.0758,-3.0758,-3.0758,-3.0758,-3.0783,-3.0997,-3.1085,-3.1148,-3.1687,-3.1888,-3.1938,0.0,0.0,0.0,0.0,0.0,0.0,0.0,0.0,0.0,0.0,0.0,0.0,0.0,0.0,0.0,0.0,0.0,0.0,0.0,0.0,-1.5323,-1.4788,-1.5835,-1.7135,-1.8685,-1.8809,-1.8777,-1.8608,-1.9397,-1.9721,-1.9592,-1.9453,-1.9396,-1.9422,0.0,-2.0912,-2.102,-2.1802,-2.2466,-2.2937,-2.2468,-2.2597,-2.3078,-2.3005,0.0,0.0,0.0,0.0,0.0,0.0,0.0,0.0,0.0,-2.3541,-2.4085,-2.47,-2.5259,-2.5799,0.0,0.0,0.0,0.0,0.0,0.0,0.0,0.0,0.0,0.0,0.0,0.0,0.0,0.0,0.0,0.0,0.0,0.0,0.0,0.0,0.0,0.0,0.0,0.0,0.0,0.0,0.0,0.0,0.0,0.0,0.0,-2.9792,-2.9792,-2.9792,-2.9792,-2.9792,-2.9792,-2.9792,-2.9792,-2.9792,-2.9792,-2.9792,-2.9792,-2.9792,-2.9792,-2.9792,-2.9792,-2.9792,-2.9792,-2.9792,-2.9792,-2.9842,-3.0344,-3.0545,-3.0608,-3.1122,-3.1323,-3.1323,0.0,0.0,0.0,0.0,0.0,0.0,0.0,0.0,0.0,0.0,0.0,0.0,0.0,0.0,0.0,0.0,0.0,0.0,0.0,0.0,-1.5305,-1.5174,-1.616,-1.6681,-1.6576,-1.7436,-1.7885,-1.7852,-1.915,-1.9202,0.0,0.0,0.0,-1.9184,0.0,-2.0282,-2.0708,-2.0908,-2.1417,-2.2156,-2.2036,-2.2427,-2.3035,-2.2384,-2.2537,0.0,0.0,0.0,0.0,0.0,0.0,0.0,-2.3449,-2.3725,-2.385,-2.5062,-2.5871,-2.6436,0.0,0.0,0.0,0.0,0.0,0.0,0.0,0.0,0.0,0.0,0.0,0.0,0.0,0.0,0.0,0.0,0.0,0.0,0.0,0.0,0.0,0.0,0.0,0.0,0.0,0.0,0.0,0.0,0.0,0.0,-2.9792,-2.9792,-2.9792,-2.9792,-2.9792,-2.9792,-2.9792,-2.9792,-2.9792,0.0,-2.9792,-2.9792,-2.9792,-2.9792,-2.9792,-2.9792,-2.9792,-2.9792,-2.9792,-2.9792,-2.9792,-2.9804,-2.993,-2.9967,-3.003,-3.0583,-3.0783,-3.0834,0.0,0.0,0.0,0.0,0.0,0.0,0.0,0.0,0.0,0.0,0.0,0.0,0.0,0.0,0.0,0.0,0.0,0.0,0.0,0.0,0.0,-1.5578,-1.6103,-1.6472,-1.67,-1.7307,-1.744,-1.7062,-1.8205,0.0,0.0,0.0,0.0,-1.8819,0.0,-1.9716,-2.0009,-2.043,-2.0846,-2.127,-2.127,-2.1772,-2.2445,-2.1585,-2.1815,-2.2414,-2.1585,0.0,0.0,0.0,0.0,0.0,0.0,0.0,-2.4648,-2.5378,-2.6034,-2.6562,0.0,0.0,0.0,0.0,0.0,0.0,0.0,0.0,0.0,0.0,0.0,0.0,0.0,0.0,0.0,0.0,0.0,0.0,0.0,0.0,0.0,0.0,0.0,0.0,0.0,0.0,0.0,0.0,0.0,-2.9792,-2.9792,-2.9792,-2.9792,-2.9792,-2.9792,-2.9792,-2.9792,-2.9792,-2.9792,-2.9792,-2.9792,-2.9792,-2.9792,-2.9792,-2.9792,-2.9792,-2.9792,-2.9792,-2.9792,-2.9792,-2.9792,-2.9792,-2.9792,-2.9792,-2.9829,-3.0118,-3.0218,-3.0269,0.0,0.0,0.0,0.0,0.0,0.0,0.0,0.0,0.0,0.0,0.0,0.0,0.0,0.0,0.0,0.0,0.0,0.0,0.0,0.0,0.0,0.0,-1.5814,-1.6267,-1.7208,-1.7219,-1.6922,-1.6322,0.0,0.0,0.0,0.0,0.0,-1.8328,0.0,-1.9077,-1.911,-1.9846,-2.0236,-2.0365,-2.0365,-2.0935,-2.1682,-2.081,-2.106,-2.1791,-2.0913,-2.0718,-2.0904,-2.1396,0.0,0.0,0.0,0.0,-2.5163,-2.5216,-2.5573,-2.6002,0.0,0.0,0.0,0.0,0.0,0.0,0.0,0.0,0.0,0.0,0.0,0.0,0.0,0.0,0.0,0.0,0.0,0.0,0.0,0.0,0.0,0.0,0.0,0.0,0.0,0.0,0.0,0.0,0.0,-2.9792,-2.9792,-2.9792,-2.9792,-2.9792,-2.9792,-2.9792,-2.9792,-2.9792,-2.9792,-2.9792,-2.9792,-2.9792,-2.9792,-2.9792,-2.9792,-2.9792,-2.9792,-2.9792,-2.9792,-2.9792,-2.9792,-2.9792,-2.9792,-2.9792,-2.9792,-2.9792,-2.9792,-2.9792,0.0,0.0,0.0,0.0,0.0,0.0,0.0,0.0,0.0,0.0,0.0,0.0,0.0,0.0,0.0,0.0,0.0,0.0,-1.4104,0.0,0.0,-1.5447,-1.5467,-1.5544,-1.569,-1.569,-1.5661,-1.5555,0.0,0.0,0.0,0.0,0.0,-1.7557,0.0,0.0,-1.8168,-1.8303,-1.8787,-1.9464,-1.9464,-2.0183,-2.1207,-2.0316,-2.0778,-2.1788,-2.0904,-2.1112,-2.1868,-2.2747,-2.2624,0.0,0.0,0.0,-2.3348,-2.3699,-2.3834,0.0,0.0,0.0,0.0,0.0,0.0,0.0,0.0,0.0,0.0,0.0,0.0,0.0,0.0,0.0,0.0,0.0,0.0,0.0,0.0,0.0,0.0,0.0,0.0,0.0,0.0,0.0,0.0,0.0,-2.9792,-2.9792,-2.9792,-2.9792,-2.9792,-2.9792,-2.9792,-2.9792,-2.9792,-2.9792,-2.9792,-2.9792,-2.9792,-2.9792,-2.9792,-2.9792,-2.9792,-2.9792,-2.9792,-2.9792,-2.9792,-2.9792,-2.9792,-2.9792,-2.9792,-2.9792,-2.9792,-2.9792,-2.9792,-2.9792,0.0,0.0,0.0,0.0,0.0,0.0,0.0,0.0,0.0,0.0,0.0,0.0,0.0,0.0,0.0,-1.4463,-1.4502,-1.46,-1.4806,-1.5029,-1.5215,-1.5371,-1.541,-1.541,-1.541,-1.541,-1.541,0.0,0.0,0.0,0.0,-1.7521,-1.7859,0.0,0.0,0.0,0.0,0.0,-1.834,-1.8926,-1.8926,-1.9686,-2.0775,-1.9889,-2.0224,-2.1051,-2.0186,-2.0114,-2.0538,-2.1172,-2.1496,-2.1807,-2.2672,0.0,0.0,0.0,-2.3514,0.0,0.0,0.0,0.0,0.0,0.0,0.0,0.0,0.0,0.0,0.0,0.0,0.0,0.0,0.0,0.0,0.0,0.0,0.0,0.0,0.0,0.0,0.0,0.0,0.0,0.0,0.0,0.0,0.0,-2.9792,-2.9792,-2.9792,-2.9792,-2.9792,-2.9792,-2.9792,-2.9792,-2.9792,-2.9792,-2.9792,-2.9792,-2.9792,-2.9792,-2.9792,-2.9792,-2.9792,-2.9792,-2.9792,-2.9792,-2.9792,-2.9792,-2.9792,-2.9792,-2.9792,-2.9792,-2.9792,-2.9792,-2.9792,-2.9792,0.0,0.0,0.0,0.0,0.0,0.0,0.0,0.0,0.0,0.0,0.0,0.0,0.0,0.0,0.0,0.0,-1.4941,-1.5078,-1.5391,-1.541,-1.541,-1.541,-1.541,-1.541,-1.541,-1.541,0.0,0.0,0.0,0.0,-1.6726,-1.7681,-1.813,0.0,-1.8291,0.0,0.0,0.0,0.0,0.0,0.0,0.0,0.0,0.0,0.0,-2.0497,-1.9858,-1.9609,-1.9695,-2.0262,-2.0941,-2.1586,-2.1922,-2.2515,0.0,0.0,0.0,0.0,0.0,0.0,0.0,0.0,0.0,0.0,0.0,0.0,0.0,0.0,0.0,0.0,0.0,0.0,0.0,0.0,0.0,0.0,0.0,0.0,0.0,0.0,0.0,0.0,0.0,0.0,0.0,0.0,-2.9792,-2.9792,-2.9792,-2.9792,-2.9792,-2.9792,-2.9792,-2.9792,-2.9792,-2.9792,-2.9792,-2.9792,-2.9792,-2.9792,-2.9792,-2.9792,-2.9792,-2.9792,-2.9792,-2.9792,-2.9792,-2.9792,-2.9792,-2.9792,-2.9792,-2.9792,-2.9792,-2.9792,-2.9792,-2.9792,0.0,0.0,0.0,0.0,0.0,0.0,0.0,0.0,0.0,0.0,0.0,0.0,-1.5205,-1.499,-1.4922,-1.5342,-1.5381,-1.5391,-1.541,-1.541,-1.541,-1.541,-1.541,0.0,-1.541,-1.541,0.0,0.0,0.0,0.0,-1.6726,-1.7983,-1.8568,-1.8588,-1.9033,-1.9219,-1.9219,0.0,0.0,0.0,0.0,0.0,0.0,0.0,0.0,0.0,0.0,0.0,-2.0681,-2.159,-2.192,-2.1958,-2.1989,-2.2038,-2.1886,0.0,0.0,0.0,0.0,0.0,0.0,0.0,0.0,0.0,0.0,0.0,0.0,0.0,0.0,0.0,0.0,0.0,0.0,0.0,0.0,0.0,0.0,0.0,0.0,0.0,0.0,0.0,0.0,0.0,0.0,0.0,-2.9792,-2.9792,-2.9792,-2.9792,-2.9792,-2.9792,-2.9792,-2.9792,-2.9792,-2.9792,-2.9792,-2.9792,-2.9792,-2.9792,-2.9792,-2.9792,-2.9792,-2.9792,-2.9792,-2.9792,-2.9792,-2.9792,-2.9792,-2.9792,-2.9792,-2.9792,-2.9792,-2.9792,-2.9792,-2.9792,0.0,0.0,0.0,0.0,0.0,0.0,0.0,0.0,0.0,0.0,0.0,0.0,0.0,-1.5273,-1.5244,-1.54,-1.541,-1.541,-1.541,-1.541,-1.541,-1.541,-1.541,-1.5537,-1.585,-1.586,0.0,0.0,0.0,-1.7002,-1.6726,-1.8003,-1.8754,-1.9062,-1.9219,-1.9287,-1.9287,-1.9287,0.0,0.0,0.0,0.0,0.0,0.0,0.0,0.0,0.0,0.0,0.0,-2.1461,-2.148,-2.143,-2.1168,-2.1116,-2.1049,-2.0712,0.0,0.0,0.0,0.0,0.0,0.0,0.0,0.0,0.0,0.0,0.0,0.0,0.0,0.0,0.0,0.0,0.0,0.0,0.0,0.0,0.0,0.0,0.0,0.0,0.0,0.0,0.0,0.0,0.0,0.0,0.0,-2.8727,-2.8727,-2.9404,-2.9792,-2.9792,-2.9792,-2.9792,-2.9792,-2.9792,-2.9792,-2.9792,-2.9792,-2.9792,-2.9792,-2.9792,-2.9792,-2.9792,-2.9792,-2.9792,-2.9792,-2.9792,-2.9792,-2.9792,-2.9792,-2.9792,-2.9792,-2.9792,-2.9792,-2.9792,0.0,0.0,0.0,0.0,0.0,0.0,0.0,0.0,0.0,0.0,0.0,0.0,0.0,0.0,-1.541,-1.541,-1.5547,-1.5625,-1.5625,-1.5771,-1.5859,-1.5859,-1.5859,-1.5986,-1.6279,-1.6173,0.0,0.0,0.0,0.0,0.0,-1.8071,-1.8754,-1.9072,-1.9219,-1.9443,0.0,0.0,0.0,-1.9922,0.0,0.0,-2.0615,0.0,0.0,0.0,0.0,0.0,0.0,0.0,0.0,0.0,-2.0928,-2.0723,-2.0605,-2.0605,0.0,0.0,0.0,0.0,0.0,0.0,0.0,0.0,0.0,0.0,0.0,0.0,0.0,0.0,0.0,0.0,0.0,0.0,0.0,0.0,0.0,0.0,0.0,0.0,0.0,0.0,0.0,0.0,0.0,0.0,0.0,0.0,-2.7562,-2.8291,-2.887,-2.9236,-2.9236,-2.9236,-2.9236,-2.9236,-2.9236,-2.9236,-2.9624,-2.9792,-2.9792,-2.9792,-2.9792,-2.9792,-2.9792,-2.9792,-2.9792,-2.9792,-2.9792,-2.9792,-2.9792,-2.9792,-2.9792,-2.9792,-2.9792,-2.9792,0.0,0.0,0.0,0.0,0.0,0.0,0.0,0.0,0.0,-1.3667,0.0,0.0,0.0,0.0,0.0,-1.5391,-1.584,-1.6114,-1.6114,-1.6494,-1.6697,-1.6697,-1.6697,-1.6707,-1.6716,-1.6328,0.0,0.0,0.0,0.0,0.0,0.0,-1.8588,-1.8617,-1.9082,-1.9746,-2.0586,0.0,-2.0312,-1.999,0.0,-2.0635,-2.0693,0.0,0.0,0.0,-2.1904,-2.1914,0.0,-2.1904,0.0,0.0,0.0,0.0,0.0,0.0,0.0,0.0,0.0,0.0,0.0,0.0,0.0,0.0,0.0,0.0,0.0,0.0,0.0,0.0,0.0,0.0,0.0,0.0,0.0,0.0,0.0,0.0,0.0,0.0,0.0,0.0,0.0,0.0,0.0,0.0,-2.6442,-2.6431,-2.6431,-2.6472,-2.6964,-2.8004,-2.8084,-2.8084,-2.8056,-2.8084,-2.8084,-2.8056,-2.9157,-2.9714,-2.9753,-2.9753,-2.9753,-2.9792,-2.9753,-2.9753,-2.9753,-2.9792,-2.9792,-2.9792,-2.9792,-2.9792,-2.9792,-2.9792,-2.9792,-2.9792,0.0,0.0,0.0,0.0,0.0,0.0,0.0,0.0,0.0,0.0,0.0,0.0,-1.5839,-1.6172,-1.6069,-1.5385,-1.6081,-1.6512,-1.6512,-1.6638,-1.6697,-1.6697,-1.6697,-1.6853,-1.7197,-1.7112,0.0,0.0,0.0,0.0,0.0,0.0,0.0,0.0,-1.8724,-1.9287,-2.0088,-2.0088,0.0,0.0,-2.0966,-2.124,0.0,0.0,0.0,0.0,0.0,-2.2539,-2.2701,0.0,-2.2344,-2.2266,0.0,0.0,0.0,0.0,0.0,0.0,-2.0605,0.0,0.0,0.0,0.0,0.0,0.0,0.0,0.0,0.0,0.0,0.0,0.0,0.0,0.0,0.0,0.0,0.0,0.0,0.0,0.0,0.0,0.0,0.0,0.0,0.0,0.0,0.0,-2.4798,-2.5252,-2.5252,-2.6058,-2.6648,-2.6924,-2.7683,-2.7723,-2.6964,-2.7723,-2.7723,-2.6964,-2.7261,-2.7827,-2.8557,-2.8557,-2.9028,-2.9753,-2.8937,-2.8557,-2.8636,-2.9456,-2.9792,-2.9792,-2.9792,-2.9792,-2.9792,-2.9792,-2.9792,-2.9792,0.0,0.0,0.0,0.0,0.0,0.0,0.0,0.0,0.0,0.0,0.0,0.0,-1.5146,-1.5396,-1.5307,-1.477,-1.5385,-1.5951,-1.6341,-1.6543,-1.6844,-1.7233,-1.7233,-1.7383,-1.7637,-1.7471,0.0,0.0,0.0,0.0,0.0,0.0,0.0,0.0,0.0,0.0,0.0,0.0,0.0,0.0,-2.1112,0.0,0.0,-2.208,-2.2412,0.0,0.0,0.0,-2.3052,-2.2808,-2.2656,0.0,0.0,0.0,0.0,0.0,0.0,0.0,0.0,0.0,0.0,0.0,0.0,0.0,-2.2412,-2.251,0.0,0.0,0.0,0.0,0.0,0.0,0.0,0.0,0.0,0.0,0.0,0.0,0.0,0.0,0.0,0.0,0.0,-2.3091,-2.3091,-2.3091,-2.3714,-2.4082,-2.4082,-2.5168,-2.5797,-2.5797,-2.6408,-2.6397,-2.5797,-2.6408,-2.6408,-2.5808,-2.6265,-2.6842,-2.7441,-2.7441,-2.7787,-2.8383,-2.7735,-2.7441,-2.7493,-2.8171,-2.8422,-2.8462,-2.891,-2.9106,-2.9157,-2.9624,-2.9792,-2.9792,0.0,0.0,0.0,0.0,0.0,0.0,0.0,0.0,0.0,0.0,-1.35,-1.3932,-1.3872,-1.3981,-1.4014,-1.388,-1.4325,-1.4916,-1.5765,-1.6222,-1.6819,-1.7647,-1.7691,-1.7691,-1.7691,-1.7326,0.0,0.0,0.0,0.0,0.0,0.0,0.0,0.0,0.0,0.0,0.0,0.0,0.0,-2.0713,-2.1123,-2.1592,0.0,0.0,-2.2769,0.0,-2.3091,-2.3091,-2.3091,-2.3091,-2.2847,0.0,0.0,0.0,0.0,0.0,-2.165,0.0,0.0,0.0,0.0,0.0,0.0,0.0,-2.248,-2.251,-2.2461,0.0,0.0,0.0,0.0,0.0,0.0,0.0,0.0,0.0,0.0,0.0,0.0,0.0,0.0,0.0,-2.3091,-2.3091,-2.3091,-2.3091,-2.3091,-2.3091,-2.3091,-2.4049,-2.4617,-2.4617,-2.4745,-2.4745,-2.4617,-2.4745,-2.4745,-2.4628,-2.5641,-2.6182,-2.6307,-2.6307,-2.6389,-2.6472,-2.6359,-2.6307,-2.6307,-2.6182,-2.6348,-2.676,-2.7614,-2.8016,-2.8215,-2.9236,-2.9546,-2.9456,-1.0459,0.0,0.0,0.0,0.0,0.0,0.0,0.0,0.0,0.0,0.0,-1.4215,-1.3805,-1.4465,-1.4641,-1.38,-1.4556,-1.5126,-1.5329,-1.5439,-1.5552,-1.5728,-1.5737,-1.5737,-1.5737,-1.566,0.0,0.0,0.0,0.0,0.0,0.0,0.0,0.0,0.0,0.0,0.0,0.0,0.0,-2.1103,-2.1582,0.0,-2.2857,-2.2945,-2.3023,-2.3091,-2.3091,-2.3091,-2.3091,-2.3091,-2.3042,-2.2974,0.0,0.0,0.0,0.0,0.0,0.0,0.0,0.0,0.0,0.0,0.0,0.0,-2.2877,-2.249,-2.21,0.0,0.0,0.0,0.0,0.0,0.0,0.0,0.0,0.0,0.0,0.0,0.0,0.0,0.0,0.0,-2.3091,-2.3091,-2.3091,-2.3091,-2.3091,-2.3091,-2.3091,-2.3299,-2.343,-2.343,-2.4339,-2.4372,-2.343,-2.4329,-2.4339,-2.342,-2.3637,-2.4264,-2.5126,-2.5126,-2.563,-2.6431,-2.5546,-2.5126,-2.5041,-2.4135,-2.5336,-2.7723,-2.7087,-2.7319,-2.8136,-2.8347,-2.7907,-2.7261,-1.0566,0.0,0.0,0.0,0.0,0.0,0.0,0.0,0.0,0.0,0.0,0.0,0.0,0.0,0.0,-1.3506,-1.3908,-1.4388,-1.4858,-1.4775,-1.4928,-1.5391,-1.5716,-1.5895,-1.5895,-1.6367,0.0,0.0,0.0,0.0,0.0,0.0,0.0,0.0,0.0,0.0,0.0,0.0,-2.0547,-2.1582,-2.1797,0.0,-2.2808,-2.3013,-2.3091,-2.3091,-2.3091,-2.3091,-2.3091,-2.3091,-2.3091,0.0,0.0,-2.2955,-2.2779,0.0,-2.2529,-2.2246,0.0,0.0,0.0,-2.273,0.0,0.0,0.0,-2.25,-2.2197,-2.2197,0.0,0.0,0.0,0.0,0.0,0.0,0.0,0.0,0.0,0.0,0.0,0.0,0.0,0.0,-2.3091,-2.3091,-2.3091,-2.3091,-2.3091,-2.3091,-2.3091,-2.3091,-2.3091,-2.3091,-2.3627,-2.3671,-2.3101,-2.3681,-2.3681,-2.3091,-2.3091,-2.3387,-2.3963,-2.3963,-2.4264,-2.4766,-2.4221,-2.3963,-2.392,-2.3343,-2.4425,-2.6397,-2.587,-2.5994,-2.6521,-2.7075,-2.6964,-2.6595,-1.0593,0.0,0.0,0.0,0.0,0.0,0.0,0.0,0.0,0.0,0.0,0.0,0.0,0.0,0.0,0.0,0.0,-1.3516,0.0,0.0,0.0,-1.5101,-1.5663,-1.5934,-1.5934,-1.6705,-1.7171,0.0,0.0,0.0,0.0,0.0,0.0,0.0,0.0,0.0,0.0,0.0,0.0,-2.1894,0.0,-2.2256,-2.2676,-2.2964,-2.3091,-2.3091,-2.3091,-2.3091,-2.3091,-2.3091,-2.3091,-2.3091,-2.3091,-2.3091,0.0,0.0,0.0,0.0,0.0,0.0,0.0,0.0,0.0,-2.3003,0.0,0.0,0.0,-2.207,0.0,0.0,0.0,0.0,0.0,0.0,0.0,0.0,0.0,0.0,0.0,0.0,0.0,0.0,0.0,-2.2857,-2.2886,-2.2974,-2.2974,-2.3013,-2.3091,-2.3091,-2.3091,-2.3091,-2.3091,-2.3091,-2.3091,-2.3091,-2.3091,-2.3091,-2.3091,-2.3091,-2.3091,-2.3091,-2.3091,-2.3091,-2.3091,-2.3091,-2.3091,-2.3091,-2.3637,-2.4457,-2.4457,-2.4628,-2.4914,-2.5839,-2.6016,-2.5891,-1.0593,-1.0593,0.0,0.0,0.0,0.0,0.0,0.0,0.0,0.0,0.0,0.0,0.0,0.0,0.0,0.0,0.0,0.0,-1.3358,0.0,0.0,0.0,-1.3544,-1.3602,-1.3602,-1.368,-1.4171,0.0,0.0,0.0,0.0,0.0,0.0,0.0,-2.0126,0.0,0.0,0.0,-2.1396,0.0,-2.2295,-2.2652,0.0,-2.3081,-2.3091,-2.3091,-2.3091,-2.3091,-2.3091,0.0,-2.3091,-2.3091,0.0,-2.3091,-2.3091,0.0,0.0,0.0,0.0,0.0,0.0,0.0,-2.3091,0.0,0.0,0.0,-2.25,-2.2451,0.0,0.0,0.0,0.0,0.0,0.0,0.0,0.0,0.0,0.0,0.0,0.0,0.0,0.0,0.0,-2.2031,-2.2178,-2.2559,-2.2578,-2.2701,-2.3081,-2.3091,-2.3091,-2.3091,-2.3091,-2.3091,-2.3091,-2.3091,-2.3091,-2.3091,-2.3091,-2.3091,-2.3091,-2.3091,-2.3091,-2.3091,-2.3091,-2.3091,-2.3091,-2.3091,-2.3178,-2.3299,-2.3299,-2.392,-2.483,-2.4957,-2.4339,-2.3637,-1.0626,-1.0727,0.0,0.0,0.0,0.0,0.0,0.0,0.0,0.0,0.0,0.0,0.0,0.0,0.0,0.0,0.0,-1.3721,0.0,0.0,0.0,0.0,0.0,0.0,-1.4006,-1.4538,-1.5335,-1.6405,-1.7072,0.0,0.0,0.0,0.0,0.0,-1.981,0.0,-2.0664,0.0,0.0,0.0,0.0,0.0,0.0,-2.3091,-2.3091,-2.3091,-2.3091,-2.3091,-2.3091,0.0,-2.3091,0.0,0.0,0.0,0.0,0.0,0.0,0.0,0.0,0.0,0.0,0.0,0.0,0.0,-2.3091,0.0,-2.251,0.0,0.0,0.0,0.0,0.0,0.0,0.0,0.0,0.0,0.0,0.0,0.0,0.0,0.0,0.0,0.0,0.0,0.0,0.0,-2.2373,-2.2588,-2.2721,-2.2964,-2.3091,-2.3091,-2.3091,-2.3091,-2.3091,-2.3091,-2.3091,-2.3091,-2.3091,-2.3091,-2.3091,-2.3091,-2.3091,-2.3091,-2.3091,-2.3091,-2.3091,-2.3091,-2.3091,-2.3091,-2.3091,-2.3387,-2.38,-2.38,-2.3507,-2.3178,-1.0868,0.0,0.0,0.0,0.0,0.0,0.0,0.0,0.0,0.0,0.0,0.0,-1.3713,-1.3955,0.0,0.0,-1.4088,-1.4088,0.0,0.0,-1.3726,0.0,0.0,0.0,0.0,0.0,-1.5881,-1.6713,0.0,0.0,0.0,0.0,0.0,0.0,0.0,-1.9912,-2.0778,0.0,0.0,-2.2519,-2.2637,-2.2818,-2.3091,-2.3091,-2.3091,-2.3091,-2.3091,-2.3091,-2.3091,-2.3091,-2.3091,0.0,-2.3091,0.0,0.0,0.0,0.0,0.0,-2.3091,0.0,0.0,0.0,0.0,0.0,0.0,0.0,0.0,0.0,0.0,0.0,0.0,0.0,0.0,0.0,0.0,0.0,0.0,0.0,0.0,0.0,0.0,0.0,0.0,0.0,0.0,-2.1699,-2.1992,-2.2266,-2.25,-2.276,-2.2974,-2.3091,-2.3091,-2.3091,-2.3091,-2.3091,-2.3091,-2.3091,-2.3091,-2.3091,-2.3091,-2.3091,-2.3091,-2.3091,-2.3091,-2.3091,-2.3091,-2.3091,-2.3091,-2.3091,-2.3091,-2.3091,-2.3091,-2.3091,-2.3091,-2.3091,-1.1369,-1.1369,0.0,0.0,0.0,0.0,0.0,0.0,0.0,0.0,0.0,0.0,0.0,0.0,0.0,0.0,0.0,-1.4088,-1.4088,0.0,-1.4075,0.0,0.0,-1.4097,0.0,0.0,0.0,0.0,0.0,0.0,0.0,0.0,0.0,0.0,0.0,-2.0189,-1.9734,-2.125,-2.2119,-2.2549,-2.2916,-2.3081,-2.3091,0.0,-2.3091,-2.3091,-2.3091,0.0,0.0,-2.3091,-2.3091,0.0,0.0,0.0,0.0,0.0,0.0,0.0,0.0,0.0,0.0,-2.3091,0.0,0.0,0.0,0.0,-2.3071,0.0,0.0,0.0,0.0,0.0,0.0,0.0,0.0,0.0,0.0,0.0,0.0,0.0,0.0,0.0,0.0,0.0,0.0,-2.1181,-2.1229,-2.16,-2.2461,-2.2519,-2.2715,-2.3081,-2.3091,-2.3091,-2.3091,-2.3091,-2.3091,-2.3091,-2.3091,-2.3091,-2.3091,-2.3091,-2.3091,-2.3091,-2.3091,-2.3091,-2.3091,-2.3091,-2.3091,-2.3091,-2.3091,-2.3091,-2.3091,-2.3091,-2.3091,-2.3091,0.0,0.0,0.0,0.0,0.0,0.0,0.0,-1.2891,0.0,0.0,0.0,0.0,0.0,-1.4713,-1.4713,0.0,0.0,-1.4713,-1.4713,-1.4713,0.0,0.0,0.0,-1.4369,0.0,0.0,0.0,0.0,0.0,0.0,0.0,0.0,0.0,0.0,0.0,-1.8984,0.0,0.0,0.0,0.0,0.0,-2.1889,-2.1987,0.0,0.0,-2.3091,-2.3091,-2.3091,0.0,-2.3091,-2.3091,-2.296,-2.2173,-2.1889,-2.1756,-2.0944,-2.1257,0.0,0.0,0.0,-2.3091,-2.3091,0.0,0.0,0.0,0.0,0.0,0.0,0.0,0.0,0.0,0.0,0.0,0.0,0.0,0.0,0.0,0.0,0.0,0.0,0.0,0.0,0.0,0.0,0.0,-2.0781,-2.1064,-2.1444,-2.207,-2.2363,-2.2662,-2.3081,-2.3091,-2.3091,-2.3091,-2.3091,-2.3091,-2.3091,-2.3091,-2.3091,-2.3091,-2.3091,-2.3091,-2.3091,-2.3091,-2.3091,-2.3091,-2.3091,-2.3091,-2.3091,-2.3091,-2.3091,-2.3091,-2.3091,-2.3091,-2.3091,-1.2405,0.0,0.0,0.0,0.0,0.0,0.0,0.0,0.0,0.0,-1.4436,0.0,-1.4988,0.0,-1.5008,0.0,-1.5008,-1.5008,-1.5008,-1.5008,0.0,-1.5008,-1.4776,0.0,0.0,0.0,0.0,0.0,0.0,-1.5573,0.0,0.0,0.0,0.0,0.0,0.0,0.0,0.0,-2.0641,0.0,0.0,-2.0666,0.0,0.0,-2.2085,-2.2403,0.0,-2.181,-2.181,-2.181,-2.181,-2.1676,-2.089,-2.0666,-2.0531,-1.9716,-2.0034,-2.0666,-2.0666,-2.1221,0.0,-2.2359,-2.2448,0.0,-2.3003,0.0,0.0,0.0,0.0,0.0,0.0,0.0,0.0,0.0,0.0,0.0,0.0,-2.0605,0.0,0.0,0.0,0.0,0.0,0.0,-2.0605,-2.0605,-2.0986,-2.1385,0.0,0.0,-2.2662,-2.3081,-2.3091,-2.3091,-2.3091,-2.3091,-2.3091,-2.3091,-2.3091,-2.3091,-2.3091,-2.3091,-2.3091,-2.3091,-2.3091,-2.3091,-2.3091,-2.3091,-2.3091,-2.3091,-2.3091,-2.3091,-2.3091,-2.3091,-2.3091,-2.3091,0.0,0.0,0.0,0.0,-1.263,0.0,0.0,0.0,-1.4095,0.0,-1.4673,-1.5035,-1.5048,-1.5055,-1.5055,-1.5055,-1.5055,-1.5055,-1.5055,-1.5055,0.0,0.0,-1.5035,-1.5028,-1.5028,0.0,0.0,0.0,0.0,0.0,0.0,0.0,0.0,0.0,-1.6296,0.0,-1.6851,-1.7956,-1.88,-1.9397,-1.9397,-1.9397,-1.9397,-1.9397,-2.0124,-2.098,-1.9898,-1.9497,-1.9497,-1.9497,-1.9497,-1.9497,-1.9451,-1.9397,-1.9405,-1.936,-1.936,-1.9397,-1.9397,-1.9443,-1.9761,-2.0935,-2.1203,0.0,0.0,0.0,-2.2906,0.0,0.0,0.0,0.0,0.0,0.0,0.0,0.0,0.0,0.0,0.0,0.0,0.0,0.0,0.0,0.0,-2.0605,-2.0605,-2.0605,-2.0986,0.0,0.0,0.0,-2.2662,-2.3081,-2.3091,-2.3091,-2.3091,-2.3091,-2.3091,-2.3091,-2.3091,-2.3091,-2.3091,-2.3091,-2.3091,-2.3091,-2.3091,-2.3091,-2.3091,-2.3091,-2.3091,-2.3091,-2.3091,-2.3091,-2.3091,-2.3091,-2.3091,-2.3091,-1.277,-1.2971,-1.3133,0.0,-1.3186,-1.3193,0.0,0.0,0.0,0.0,-1.5102,-1.5364,-1.5585,-1.5605,-1.5605,-1.5605,-1.5605,0.0,0.0,0.0,0.0,-1.5605,-1.5398,-1.5284,-1.5284,-1.4856,0.0,-1.4522,0.0,0.0,-1.413,0.0,0.0,0.0,0.0,0.0,-1.6866,-1.8169,-1.8502,-1.8141,-1.8141,-1.8141,0.0,0.0,-1.8365,-1.868,-1.9268,-1.9497,-1.9497,-1.9497,-1.9497,-1.936,-1.8457,-1.8141,-1.8002,-1.703,-1.7397,-1.8141,-1.8141,-1.8818,-1.9579,-1.9898,-1.9943,-2.0034,0.0,0.0,0.0,0.0,0.0,0.0,0.0,0.0,0.0,0.0,0.0,0.0,0.0,0.0,0.0,-2.0605,0.0,0.0,0.0,-2.0605,-2.0605,-2.0605,-2.0986,0.0,0.0,0.0,0.0,-2.3081,-2.3091,-2.3091,-2.3091,-2.3091,-2.3091,-2.3091,-2.3091,-2.3091,-2.3091,-2.3091,-2.3091,-2.3091,-2.3091,-2.3091,-2.3091,-2.3091,-2.3091,-2.3091,-2.3091,-2.3091,-2.3091,-2.3091,-2.3091,-2.3091,-1.3113,0.0,0.0,-1.3808,0.0,0.0,-1.3959,0.0,0.0,-1.4948,-1.5217,0.0,-1.5625,-1.5752,-1.5784,-1.5784,-1.5784,0.0,-1.5784,0.0,0.0,-1.5784,-1.5671,-1.5585,-1.5585,-1.5137,0.0,-1.471,0.0,0.0,-1.4088,0.0,0.0,0.0,0.0,-1.5447,0.0,-1.6885,-1.7141,-1.685,-1.685,0.0,0.0,-1.685,-1.685,-1.6943,-1.7623,-1.7894,-1.7894,-1.7894,-1.7894,-1.7755,-1.7077,-1.685,-1.6716,-1.6015,-1.6298,-1.685,-1.685,-1.735,-1.8033,-1.8588,-1.8726,-1.8864,-1.936,-1.9497,-1.9497,0.0,-1.9497,-1.9542,0.0,0.0,0.0,0.0,0.0,0.0,0.0,0.0,0.0,0.0,-2.0859,0.0,0.0,0.0,-2.0605,-2.0605,0.0,0.0,0.0,0.0,0.0,-2.3081,-2.3091,-2.3091,-2.3091,-2.3091,-2.3091,-2.3091,-2.3091,-2.3091,-2.3091,-2.3091,-2.3091,-2.3091,-2.3091,-2.3091,-2.3091,-2.3091,-2.3091,-2.3091,-2.3091,-2.3091,-2.3091,-2.3091,-2.3091,-2.3091,0.0,0.0,0.0,0.0,0.0,0.0,0.0,-1.4609,0.0,-1.499,0.0,-1.5451,-1.5451,-1.5678,-1.5784,-1.5784,0.0,-1.5784,-1.5784,-1.5784,-1.5784,-1.5784,-1.5784,-1.5784,-1.5784,-1.5504,-1.5217,0.0,0.0,0.0,0.0,0.0,0.0,0.0,0.0,0.0,0.0,-1.5184,-1.5565,0.0,-1.5784,-1.5784,-1.5784,-1.5784,-1.5784,-1.5784,-1.5784,-1.5784,-1.5784,-1.5784,-1.5784,-1.5784,-1.5784,-1.5784,-1.5784,-1.5784,-1.5784,-1.5784,-1.5784,-1.5784,-1.6062,-1.7178,-1.7451,-1.7731,-1.8764,-1.9039,-1.9039,-1.9039,-1.9039,-1.8764,0.0,0.0,0.0,0.0,0.0,0.0,0.0,0.0,0.0,0.0,0.0,0.0,0.0,0.0,0.0,0.0,0.0,0.0,0.0,0.0,0.0,-2.3003,-2.3062,-2.3091,-2.3091,0.0,-2.3091,-2.3091,-2.3091,-2.3091,-2.3091,-2.3091,-2.3091,-2.3091,-2.3091,-2.3091,-2.3091,-2.3091,-2.3091,-2.3091,-2.3091,-2.3091,-2.3091,-2.3091,-2.3091,-2.3091,0.0,0.0,0.0,0.0,0.0,-1.4603,-1.485,-1.509,-1.5264,-1.5311,-1.5571,-1.5752,-1.5752,-1.5751,-1.5784,-1.5784,-1.5784,0.0,0.0,0.0,0.0,-1.5784,-1.5784,-1.5784,-1.5784,-1.5311,-1.5062,0.0,0.0,0.0,0.0,0.0,0.0,0.0,0.0,0.0,-1.5251,-1.5351,0.0,-1.5784,-1.5784,-1.5784,-1.5784,-1.5784,-1.5784,-1.5784,-1.5784,-1.5784,-1.5784,-1.5784,-1.5784,-1.5784,-1.5784,-1.5784,-1.5784,-1.5784,-1.5784,-1.5784,-1.5784,-1.5784,-1.5825,-1.6062,-1.6109,-1.6197,-1.6379,-1.6473,-1.6473,-1.6473,-1.6473,-1.6709,-1.7552,0.0,0.0,0.0,0.0,0.0,0.0,0.0,0.0,0.0,0.0,0.0,0.0,0.0,0.0,0.0,0.0,0.0,0.0,0.0,0.0,0.0,-2.2916,0.0,0.0,0.0,-2.3091,-2.3091,-2.3091,-2.3091,-2.3091,-2.3091,-2.3091,-2.3091,-2.3091,-2.3091,-2.3091,-2.3091,-2.3091,-2.3091,-2.3091,-2.3091,-2.3091,-2.3091,-2.3091,-2.3091,0.0,0.0,0.0,0.0,0.0,0.0,0.0,-1.5438,0.0,-1.5418,-1.5518,-1.5605,-1.5605,-1.5738,-1.5784,-1.5784,-1.5691,-1.5605,-1.5605,-1.5605,-1.5605,-1.5605,-1.5752,0.0,-1.5784,-1.5404,-1.5162,-1.5008,0.0,0.0,0.0,0.0,0.0,0.0,0.0,-1.4763,0.0,0.0,0.0,-1.5784,-1.5784,-1.5784,-1.5784,-1.5784,-1.5784,-1.5784,-1.5784,-1.5784,-1.5784,-1.5784,-1.5784,-1.5784,-1.5784,-1.5784,-1.5784,-1.5784,-1.5784,-1.5784,-1.5784,-1.5784,-1.5784,-1.5784,-1.5784,-1.5784,-1.5784,-1.5784,-1.5784,-1.5784,-1.5784,-1.5967,-1.6622,-1.6993,0.0,0.0,0.0,0.0,0.0,0.0,0.0,0.0,0.0,0.0,0.0,0.0,0.0,0.0,0.0,0.0,0.0,0.0,0.0,0.0,0.0,0.0,0.0,0.0,0.0,-2.3091,-2.3091,-2.3091,-2.3091,-2.3091,-2.3091,-2.3091,-2.3091,-2.3091,-2.3091,-2.3091,-2.3091,-2.3091,-2.3091,-2.3091,-2.3091,-2.3091,-2.3091,-2.3091,0.0,-1.4182,0.0,0.0,-1.4856,0.0,-1.5357,-1.5645,-1.5698,-1.5518,-1.5491,-1.5491,-1.5491,-1.5691,-1.5784,-1.5784,-1.5618,-1.5464,-1.5398,-1.5398,-1.5398,-1.5398,-1.5618,-1.5718,-1.5784,-1.5545,-1.5284,0.0,0.0,0.0,0.0,0.0,0.0,0.0,0.0,0.0,0.0,0.0,-1.5565,-1.5784,-1.5784,-1.5784,-1.5784,-1.5784,-1.5784,-1.5784,-1.5784,-1.5784,-1.5784,-1.5784,-1.5784,-1.5784,-1.5784,-1.5784,-1.5784,-1.5784,-1.5784,-1.5784,-1.5784,-1.5784,-1.5784,-1.5784,-1.5784,-1.5784,-1.5784,-1.5784,-1.5784,-1.5784,-1.5784,-1.5784,-1.5784,-1.5784,0.0,0.0,0.0,0.0,0.0,0.0,0.0,0.0,0.0,0.0,0.0,0.0,0.0,0.0,0.0,0.0,0.0,0.0,0.0,0.0,0.0,-2.3091,-2.3091,0.0,-2.3091,-2.3091,-2.3091,-2.3091,-2.3091,-2.3091,-2.3091,-2.3091,-2.3091,-2.3091,-2.3091,-2.3091,-2.3091,-2.3091,-2.3091,-2.3091,-2.3091,-2.3091,-2.3091,-2.3091,0.0,0.0,0.0,0.0,0.0,0.0,-1.5391,-1.5645,-1.5771,-1.5792,-1.5744,-1.5744,-1.5744,-1.5764,-1.5784,-1.5784,-1.5758,-1.5678,-1.5418,-1.5398,-1.5398,-1.5398,-1.5424,-1.5558,-1.5771,-1.5545,-1.5384,0.0,0.0,-1.4502,0.0,0.0,0.0,0.0,0.0,0.0,0.0,-1.5384,-1.5565,-1.5784,-1.5784,-1.5784,-1.5784,-1.5784,-1.5784,-1.5784,-1.5784,-1.5784,-1.5784,-1.5784,-1.5784,-1.5784,-1.5784,-1.5784,-1.5784,-1.5784,-1.5784,-1.5784,-1.5784,-1.5784,-1.5784,-1.5784,-1.5784,-1.5784,-1.5784,-1.5784,-1.5784,-1.5784,-1.5784,-1.5784,-1.5784,-1.5784,-1.5784,0.0,0.0,0.0,0.0,0.0,0.0,0.0,0.0,0.0,0.0,-1.7536,0.0,0.0,0.0,0.0,0.0,0.0,0.0,-2.1943,0.0,-2.3091,-2.3091,-2.3091,-2.3091,-2.3091,-2.3091,-2.3091,-2.3091,-2.3091,-2.3091,-2.3091,-2.3091,-2.3091,-2.3091,-2.3091,-2.3091,-2.3091,-2.3091,-2.3091,-2.3091,-2.3091,-2.3091,-2.3091,0.0,0.0,0.0,0.0,0.0,0.0,0.0,-1.5752,-1.5784,-1.5784,-1.5784,-1.5784,-1.5784,-1.5784,-1.5784,-1.5784,-1.5671,-1.5518,-1.5404,-1.5237,-1.5217,-1.5391,-1.5398,-1.5531,-1.5771,-1.5712,-1.5571,0.0,0.0,0.0,0.0,0.0,0.0,0.0,0.0,-1.5177,-1.5404,-1.5585,-1.5678,-1.5784,-1.5784,-1.5784,-1.5784,-1.5784,-1.5784,-1.5784,-1.5784,-1.5784,-1.5784,-1.5784,-1.5784,-1.5784,-1.5784,-1.5784,-1.5784,-1.5784,-1.5784,-1.5784,-1.5784,-1.5784,-1.5784,-1.5784,-1.5784,-1.5784,-1.5784,-1.5784,-1.5784,-1.5784,-1.5784,-1.5784,-1.5784,-1.5784,-1.5784,0.0,0.0,0.0,0.0,0.0,0.0,0.0,0.0,0.0,0.0,0.0,0.0,0.0,0.0,0.0,0.0,0.0,0.0,-2.2256,0.0,-2.3091,-2.3091,-2.3091,-2.3091,-2.3091,-2.3091,-2.3091,-2.3091,-2.3091,-2.3091,-2.3091,-2.3091,-2.3091,-2.3091,-2.3091,-2.3091,-2.3091,-2.3091,-2.3091,-2.3003,-2.2306,-2.2031,-2.1943,-1.5122,0.0,-1.5184,0.0,-1.5524,-1.5591,-1.5751,-1.5784,-1.5784,-1.5784,-1.5784,-1.5751,-1.5712,-1.5705,-1.5705,-1.5705,-1.5591,-1.5484,-1.5404,-1.5204,-1.5184,-1.5391,-1.5398,0.0,-1.5771,-1.5784,-1.5732,-1.5524,-1.5438,0.0,0.0,0.0,0.0,0.0,-1.5304,-1.5444,-1.5538,-1.5745,-1.5784,-1.5784,-1.5784,-1.5784,-1.5784,-1.5784,-1.5784,-1.5784,-1.5784,-1.5784,-1.5784,-1.5784,-1.5784,-1.5784,-1.5784,-1.5784,-1.5784,-1.5784,-1.5784,-1.5784,-1.5784,-1.5784,-1.5784,-1.5784,-1.5784,-1.5784,-1.5784,-1.5784,-1.5784,-1.5784,-1.5784,-1.5784,-1.5784,-1.5784,-1.5784,-1.5784,0.0,0.0,0.0,0.0,0.0,0.0,-1.5455,-1.5655,-1.5387,0.0,0.0,0.0,0.0,0.0,0.0,0.0,0.0,0.0,0.0,0.0,0.0,-2.2775,-2.2775,-2.3091,-2.3091,-2.3091,-2.3091,-2.3091,-2.3091,-2.3091,-2.3091,-2.3091,-2.3091,-2.3091,-2.3091,-2.3091,-2.3091,-2.3091,-2.3003,-2.2129,-2.1614,-2.1159,-1.5337,-1.5391,-1.5484,-1.5724,-1.5778,-1.5778,-1.5784,-1.5784,-1.5784,-1.5784,-1.5784,-1.5718,-1.5431,-1.5398,-1.5398,-1.5398,-1.5658,-1.5705,-1.5418,-1.5391,-1.5391,0.0,0.0,-1.5531,-1.5771,-1.5784,-1.5784,-1.5778,0.0,0.0,-1.5384,0.0,-1.5162,-1.5391,-1.5398,-1.5558,-1.5778,-1.5784,-1.5784,-1.5784,-1.5784,-1.5784,-1.5784,-1.5784,-1.5784,-1.5784,-1.5784,-1.5784,-1.5784,-1.5784,-1.5784,-1.5784,-1.5784,-1.5784,-1.5784,-1.5784,-1.5784,-1.5784,-1.5784,-1.5784,-1.5784,-1.5784,-1.5784,-1.5784,-1.5784,-1.5784,-1.5784,-1.5784,-1.5784,-1.5784,-1.5784,-1.5784,-1.5784,-1.5784,0.0,0.0,0.0,0.0,0.0,0.0,-1.5008,-1.4888,-1.4543,0.0,0.0,0.0,0.0,0.0,0.0,0.0,0.0,-2.25,-2.1729,0.0,-2.3101,-2.1943,-2.1933,-2.3091,-2.3091,-2.3091,-2.3091,-2.3091,-2.3091,-2.3091,-2.3091,-2.3091,-2.3091,-2.3091,-2.3091,-2.3091,-2.3091,-2.3091,-2.3091,-2.3091,-2.2306,-2.1293,-1.5671,-1.5691,-1.5718,-1.5764,-1.5784,-1.5784,-1.5784,-1.5784,-1.5711,-1.5558,-1.5357,-1.513,-1.483,-1.5157,-1.5398,0.0,-1.5478,-1.5578,0.0,-1.5504,-1.5484,-1.5678,-1.5504,-1.5531,-1.5771,-1.5784,-1.5784,-1.5784,0.0,0.0,0.0,-1.5598,-1.5605,-1.5691,-1.5691,-1.5745,-1.5784,-1.5784,-1.5784,-1.5784,-1.5784,-1.5784,-1.5784,-1.5784,-1.5784,-1.5784,-1.5784,-1.5784,-1.5784,-1.5784,-1.5784,-1.5784,-1.5784,-1.5784,-1.5784,-1.5784,-1.5784,-1.5784,-1.5784,-1.5784,-1.5784,-1.5784,-1.5784,-1.5784,-1.5784,-1.5784,-1.5784,-1.5784,-1.5784,-1.5784,-1.5784,-1.5784,-1.5784,-1.5784,-1.5784,0.0,0.0,0.0,0.0,0.0,-1.5008,-1.4975,0.0,-1.5308,0.0,0.0,0.0,0.0,0.0,0.0,0.0,0.0,-2.1425,0.0,-2.1845,-2.0666,-2.026,-2.0674,-2.1489,-2.2306,-2.3047,-2.2262,-2.1845,-2.1845,-2.0989,-2.0629,-2.0629,-2.0629,-2.0629,-2.0629,-2.0629,-2.0629,-2.0539,-1.9733,-1.9185,-1.8726,-1.5784,-1.5784,-1.5784,-1.5784,-1.5784,-1.5784,-1.5784,-1.5784,-1.5678,-1.5438,-1.5237,-1.497,-1.4563,-1.485,0.0,-1.507,-1.517,-1.5357,-1.5651,-1.5498,-1.5524,-1.5764,-1.5658,-1.5645,-1.5778,-1.5784,0.0,-1.5784,-1.5784,-1.5784,-1.5778,-1.5718,-1.5678,-1.5778,-1.5712,-1.5732,-1.5771,-1.5712,-1.5665,-1.5658,-1.5545,-1.5504,-1.5504,-1.5504,-1.5571,-1.5665,-1.5665,-1.5684,-1.5784,-1.5784,-1.5784,-1.5784,-1.5784,-1.5784,-1.5784,-1.5784,-1.5784,-1.5784,-1.5784,-1.5784,-1.5784,-1.5784,-1.5784,-1.5784,-1.5784,-1.5784,-1.5784,-1.5784,-1.5784,-1.5784,-1.5784,-1.5784,-1.5784,-1.5784,-1.5738,-1.5605,-1.5424,0.0,0.0,0.0,0.0,0.0,0.0,-1.5501,-1.5648,0.0,0.0,0.0,0.0,0.0,0.0,-2.0629,-2.0178,0.0,-2.0621,-1.9451,-1.9039,-1.9497,-2.026,-2.1033,-2.1721,-2.0989,-2.0621,-2.0576,-1.9807,-1.9497,-1.9497,-1.9497,-1.9497,-1.9497,-1.9497,-1.9497,-1.9405,-1.8634,-1.8095,-1.7598,-1.554,-1.554,-1.554,0.0,-1.5635,0.0,-1.5683,-1.573,-1.5718,-1.5404,-1.5364,-1.5144,-1.4556,-1.4489,-1.4489,-1.4489,0.0,0.0,0.0,-1.5398,-1.5524,-1.5764,-1.5784,-1.5784,-1.5784,-1.5784,-1.5784,-1.5784,-1.5784,-1.5771,-1.5792,-1.5524,-1.5531,-1.5711,-1.5484,-1.5518,-1.5752,-1.5478,-1.5364,-1.5344,-1.5115,-1.5008,-1.5008,-1.5008,-1.513,-1.5364,-1.5364,-1.5538,-1.5718,-1.5718,-1.5718,-1.5718,-1.5718,-1.5785,-1.5758,-1.5771,-1.5784,-1.5784,-1.5784,-1.5784,-1.5784,-1.5784,-1.5784,-1.5784,-1.5784,-1.5784,-1.5784,-1.5784,-1.5784,-1.5784,-1.5784,-1.5784,-1.5771,-1.5758,-1.5571,-1.5384,-1.5344,0.0,0.0,0.0,0.0,0.0,0.0,-1.515,-1.485,0.0,0.0,0.0,0.0,0.0,-1.855,-1.9335,-1.828,-1.8234,-1.936,-1.8187,-1.818,-1.936,-1.936,-1.9405,-1.9497,-1.9397,-1.936,-1.936,-1.926,-1.9222,-1.9222,-1.9222,-1.9222,-1.9222,-1.9222,-1.9222,-1.9222,-1.9222,-1.8542,-1.7552,0.0,0.0,-1.2818,-1.2818,-1.3686,-1.4364,-1.4364,-1.5194,-1.5645,-1.5182,-1.5109,-1.4843,-1.4255,-1.4188,-1.4188,-1.4188,-1.4456,-1.4843,-1.5364,-1.5398,-1.5524,-1.5764,-1.5784,-1.5784,-1.5784,-1.5784,-1.5784,-1.5784,-1.5784,-1.5718,-1.5498,-1.5431,-1.5311,-1.5209,-1.5142,-1.5149,-1.5209,-1.5142,-1.5109,-1.5109,-1.5035,-1.5008,-1.5008,-1.5008,-1.5055,-1.5109,-1.5109,-1.5156,-1.517,-1.517,-1.517,-1.517,-1.517,-1.5317,-1.5538,-1.5718,-1.5784,-1.5784,-1.5784,-1.5784,-1.5784,-1.5784,-1.5784,-1.5784,-1.5784,-1.5784,-1.5784,-1.5784,-1.5784,-1.5784,-1.5784,-1.5784,-1.5711,-1.5531,-1.5438,-1.5237,-1.479,-1.4803,0.0,0.0,-1.5204,-1.5404,-1.5698,-1.5264,-1.4981,0.0,0.0,0.0,0.0,-1.5701,-1.6718,-1.8079,-1.787,-1.7824,-1.8141,-1.6897,-1.6897,-1.8141,-1.8141,-1.8596,-1.9451,-1.8549,-1.8141,-1.8048,-1.7117,-1.6702,-1.6702,-1.6702,-1.6702,-1.6702,-1.6702,-1.6702,-1.6702,-1.6702,-1.652,-1.6244,-1.1896,-1.1896,-1.1896,-1.1896,-1.2479,-1.3006,-1.3006,-1.359,-1.3886,-1.343,-1.3328,-1.3147,-1.2655,-1.2551,-1.2693,-1.3252,-1.3917,-1.4516,-1.4963,-1.5124,-1.5271,-1.5424,-1.5565,-1.5571,-1.5438,-1.5431,-1.5431,-1.5431,-1.5431,-1.5351,-1.5197,-1.5064,-1.4983,-1.5001,-1.4823,-1.4836,-1.5001,-1.4823,-1.4763,-1.475,-1.466,-1.4606,-1.4606,-1.4606,-1.4643,-1.4763,-1.4763,-1.485,-1.5008,-1.5008,-1.5008,-1.5028,-1.5117,-1.5271,-1.5451,-1.5745,-1.5784,-1.5784,-1.5784,-1.5784,-1.5784,-1.5784,-1.5784,-1.5784,-1.5784,-1.5784,-1.5784,-1.5784,-1.5784,-1.5784,-1.5784,-1.5718,-1.5578,-1.5424,-1.517,-1.4883,-1.4563,-1.4663,0.0,-1.4995,-1.5217,-1.5511,-1.5751,-1.5424,-1.5164,-1.5164,-1.501,0.0,-1.5157,-1.5438,-1.5993,-1.6803,-1.681,-1.681,-1.681,-1.6157,-1.6157,-1.681,-1.681,-1.7163,-1.7801,-1.7124,-1.681,-1.6803,-1.6109,-1.5784,-1.5784,-1.5784,-1.5784,-1.5784,-1.5784,-1.5784,-1.5784,-1.5784,-1.5784,-1.5784,-1.1312,-1.1312,-1.1312,-1.1312,-1.1458,-1.1609,-1.1609,-1.1799,-1.1816,-1.1532,-1.1368,-1.1151,-1.084,-1.0703,-1.0999,-1.1938,-1.2991,-1.3861,-1.4452,-1.4756,-1.4981,-1.5068,-1.5224,-1.5237,-1.5075,-1.5028,-1.5008,-1.5008,-1.5008,-1.4988,-1.4934,-1.4636,-1.4629,-1.4867,-1.4569,-1.4596,-1.4861,-1.4563,-1.4456,-1.4436,-1.4188,-1.4088,-1.4088,-1.4088,-1.4242,-1.4456,-1.4456,-1.4616,-1.4881,-1.4928,-1.4941,-1.4995,-1.5244,-1.5357,-1.5444,-1.5691,-1.5792,-1.5784,-1.5784,-1.5784,-1.5784,-1.5784,-1.5784,-1.5784,-1.5784,-1.5784,-1.5784,-1.5784,-1.5784,-1.5764,-1.5772,-1.5565,-1.5364,-1.5277,-1.4843,-1.4522,-1.4522,0.0,-1.4696,-1.5042,-1.5244,-1.5511,-1.5751,-1.5524,-1.5351,-1.5391,-1.5398,-1.5398,-1.5398,-1.5671,-1.5784,-1.5784,-1.5784,-1.5784,-1.5784,-1.5784,-1.5784,-1.5784,-1.5784,-1.5784,-1.5784,-1.5784,-1.5784,-1.5784,-1.5784,-1.5784,-1.5784,-1.5784,-1.5784,-1.5784,-1.5784,-1.5784,-1.5784,-1.5784,-1.5784,-1.5784,-0.8627,-0.8627,-0.8627,-0.8627,-0.9558,-1.0288,-1.0288,-1.1214,-1.1816,-1.1532,-1.1368,-1.1151,-1.084,-1.0703,-1.0654,-1.0869,-1.1042,-1.2106,-1.4365,-1.4563,-1.481,-1.5304,-1.5182,-1.5169,-1.5324,-1.5135,-1.5008,-1.5008,-1.5008,-1.4881,-1.4589,-1.4543,-1.4416,-1.4222,-1.4175,-1.4182,-1.4222,-1.4175,-1.4155,-1.4155,-1.4108,-1.4088,-1.4088,-1.4088,-1.4115,-1.4155,-1.4155,-1.4188,-1.4262,-1.4509,-1.4589,-1.4643,-1.4981,-1.5197,-1.5404,-1.5451,-1.5638,-1.5784,-1.5784,-1.5784,-1.5784,-1.5784,-1.5784,-1.5784,-1.5784,-1.5784,-1.5784,-1.5784,-1.5784,-1.5752,-1.5504,-1.5424,-1.5231,-1.4736,-1.4576,-1.4522,-1.4522,0.0,-1.5048,-1.5297,-1.5364,-1.5511,-1.5751,-1.5344,-1.5182,-1.5378,-1.5398,-1.5398,-1.5398,-1.5671,-1.5784,-1.5784,-1.5784,-1.5784,-1.5784,-1.5784,-1.5784,-1.5784,-1.5784,-1.5784,-1.5784,-1.5784,-1.5784,-1.5784,-1.5784,-1.5784,-1.5784,-1.5784,-1.5784,-1.5784,-1.5784,-1.5784,-1.5784,-1.5784,-1.5784,-1.5784,-0.7988,-0.7988,-0.7988,-0.7988,-0.8531,-0.892,-0.892,-0.941,-0.9768,-0.9632,-0.9428,-0.9229,-0.91,-0.8877,-0.8965,-0.9623,-0.9666,-1.0439,-1.2293,-1.2563,-1.2995,-1.3717,-1.3899,-1.4308,-1.4879,-1.4643,-1.4539,-1.4539,-1.4539,-1.4422,-1.4282,-1.4282,-1.4215,-1.4088,-1.4088,-1.4088,-1.4088,-1.4088,-1.4088,-1.4088,-1.4088,-1.4088,-1.4088,-1.4088,-1.4088,-1.4088,-1.4088,-1.4088,-1.4128,-1.4422,-1.4522,-1.4603,-1.5057,-1.5291,-1.5431,-1.5585,-1.5678,-1.5784,-1.5784,-1.5784,-1.5784,-1.5784,-1.5784,-1.5784,-1.5784,-1.5784,-1.5784,-1.5784,-1.5784,-1.5744,-1.5651,-1.5378,-1.5077,-1.4803,-1.4623,0.0,0.0,-1.491,-1.519,-1.5209,-1.5438,-1.5618,-1.5598,-1.5491,-1.5484,-1.5618,-1.5631,-1.5631,-1.5631,-1.5711,-1.5784,-1.5784,-1.5784,-1.5784,-1.5784,-1.5784,-1.5784,-1.5784,-1.5784,-1.5784,-1.5784,-1.5784,-1.5784,-1.5784,-1.5784,-1.5784,-1.5784,-1.5784,-1.5784,-1.5784,-1.5784,-1.5784,-1.5784,-1.5784,-1.5784,-1.5784,-0.7988,-0.7988,-0.7988,-0.7988,-0.7988,-0.7988,-0.7988,-0.7988,-0.7988,-0.7988,-0.7811,-0.7648,-0.7648,-0.7407,-0.7603,-0.8536,-0.8581,-0.8956,-0.9823,-1.01,-1.0775,-1.1948,-1.2511,-1.3042,-1.363,-1.3724,-1.3717,-1.3688,-1.3955,-1.4088,-1.4088,-1.4088,-1.4088,-1.4088,-1.4088,-1.4088,-1.4088,-1.4088,-1.4088,-1.4088,-1.4088,-1.4088,-1.4088,-1.4088,-1.4088,-1.4088,-1.4088,-1.4088,-1.4142,-1.4502,-1.4623,-1.4723,-1.5311,-1.5498,-1.5538,-1.5718,-1.5784,-1.5784,-1.5784,-1.5784,-1.5784,-1.5784,-1.5784,-1.5784,-1.5784,-1.5784,-1.5784,-1.5784,-1.5784,-1.5758,-1.5745,-1.5364,-1.5089,-1.5022,0.0,0.0,0.0,-1.511,-1.5311,-1.5135,-1.5398,-1.5565,-1.5411,-1.5538,-1.5685,-1.5771,-1.5784,-1.5784,-1.5784,-1.5784,-1.5784,-1.5784,-1.5784,-1.5784,-1.5784,-1.5784,-1.5784,-1.5784,-1.5784,-1.5784,-1.5784,-1.5784,-1.5784,-1.5784,-1.5784,-1.5784,-1.5784,-1.5784,-1.5784,-1.5784,-1.5784,-1.5784,-1.5784,-1.5784,-1.5784,-1.5784,-0.7988,-0.7988,-0.7988,-0.7988,-0.7988,-0.7988,-0.7988,-0.7988,-0.7988,-0.7988,-0.7896,-0.7794,-0.7794,-0.7658,-0.7613,-0.7704,-0.7707,-0.7691,-0.7633,-0.7678,-0.8709,-1.1097,-1.1333,-1.1313,-1.1088,-1.2131,-1.2624,-1.2413,-1.3555,-1.4088,-1.4088,-1.4088,-1.4088,-1.4088,-1.4088,-1.4088,-1.4088,-1.4088,-1.4088,-1.4088,-1.4088,-1.4088,-1.4088,-1.4088,-1.4088,-1.4088,-1.4088,-1.4088,-1.4175,-1.4787,-1.4975,-1.5075,-1.5611,-1.5751,-1.5751,-1.5771,-1.5784,-1.5784,-1.5784,-1.5784,-1.5784,-1.5784,-1.5784,-1.5784,-1.5784,-1.5784,-1.5784,-1.5784,-1.5784,-1.5698,-1.5478,-1.5391,-1.5277,-1.5055,0.0,0.0,-1.5297,-1.5371,-1.5391,-1.5364,-1.5209,-1.5169,-1.5371,-1.517,-1.5251,-1.5744,-1.5784,-1.5784,-1.5784,-1.5784,-1.5784,-1.5784,-1.5784,-1.5784,-1.5784,-1.5784,-1.5784,-1.5784,-1.5784,-1.5784,-1.5784,-1.5784,-1.5784,-1.5784,-1.5784,-1.5784,-1.5784,-1.5784,-1.5784,-1.5784,-1.5784,-1.5784,-1.5784,-1.5784,-1.5784,-1.5784,-0.7988,-0.7988,-0.7988,-0.7988,-0.7988,-0.7988,-0.7988,-0.7988,-0.7988,-0.7988,-0.7906,-0.7811,-0.7811,-0.7685,-0.76,-0.76,-0.76,-0.7577,-0.7516,-0.7424,-0.8178,-0.9921,-1.0538,-1.0889,-1.0989,-1.2142,-1.2237,-1.1252,-1.3336,-1.3514,-1.1955,-1.3434,-1.33,-1.1955,-1.2681,-1.2595,-1.1912,-1.1912,-1.1912,-1.1912,-1.1912,-1.1912,-1.1912,-1.1912,-1.1912,-1.1912,-1.1912,-1.1912,-1.2029,-1.2535,-1.2706,-1.2791,-1.3244,-1.3397,-1.3542,-1.4364,-1.5194,-1.5784,-1.5784,-1.5784,-1.5784,-1.5784,-1.5784,-1.5784,-1.5784,-1.5784,-1.5784,-1.5784,-1.5784,-1.5751,-1.5685,-1.5518,-1.5357,-1.5251,0.0,-1.5271,-1.5384,-1.5551,-1.5531,-1.517,-1.519,-1.5204,-1.5182,-1.519,-1.5398,-1.5751,-1.5784,-1.5784,-1.5784,-1.5784,-1.5784,-1.5784,-1.5784,-1.5784,-1.5784,-1.5784,-1.5784,-1.5784,-1.5784,-1.5784,-1.5784,-1.5784,-1.5784,-1.5784,-1.5784,-1.5784,-1.5784,-1.5784,-1.5784,-1.5784,-1.5784,-1.5784,-1.5784,-1.5784,-1.5784,-1.5784,-0.7988,-0.7988,-0.7988,-0.7988,-0.7988,-0.7988,-0.7988,-0.7988,-0.7988,-0.7988,-0.7897,-0.7882,-0.7882,-0.7797,-0.774,-0.774,-0.774,-0.7719,-0.7668,-0.7526,-0.7826,-0.8676,-0.9373,-0.98,-1.0017,-1.1156,-1.1229,-1.0144,-1.2289,-1.2418,-1.0654,-1.226,-1.2126,-1.0611,-1.1423,-1.1338,-1.0611,-1.0611,-1.0611,-1.0611,-1.0611,-1.0611,-1.0611,-1.0611,-1.0611,-1.0611,-1.0611,-1.0611,-1.0681,-1.1131,-1.1283,-1.1359,-1.1755,-1.2188,-1.2721,-1.3632,-1.48,-1.5784,-1.5784,-1.5486,-1.5289,-1.5683,-1.5784,-1.5784,-1.5784,-1.5784,-1.5784,-1.5784,-1.5784,-1.5784,-1.5784,-1.5665,-1.5531,-1.5531,-1.5531,-1.5531,-1.5531,-1.5705,-1.5651,-1.5157,-1.5277,-1.5317,-1.5117,-1.5284,-1.5518,-1.5758,-1.5784,-1.5784,-1.5784,-1.5784,-1.5784,-1.5784,-1.5784,-1.5784,-1.5784,-1.5784,-1.5784,-1.5784,-1.5784,-1.5784,-1.5784,-1.5784,-1.5784,-1.5784,-1.5784,-1.5784,-1.5784,-1.5784,-1.5784,-1.5784,-1.5784,-1.5784,-1.5784,-1.5784,-1.5784,-1.5784,-0.7988,-0.7988,-0.7988,-0.7988,-0.7988,-0.7988,-0.7988,-0.7988,-0.7988,-0.7988,-0.7988,-0.7988,-0.7988,-0.7988,-0.7988,-0.7988,-0.7988,-0.7924,-0.7821,-0.7682,-0.7536,-0.7426,-0.7651,-0.7743,-0.7604,-0.8827,-0.9349,-0.9111,-1.0234,-1.075,-1.0572,-1.0567,-1.0567,-1.0567,-1.0567,-1.0567,-1.0567,-1.0567,-1.0567,-1.0567,-1.0567,-1.0567,-1.0567,-1.0567,-1.0567,-1.0567,-1.0567,-1.0567,-1.0638,-1.1131,-1.1283,-1.1364,-1.1761,-1.2813,-1.3878,-1.3878,-1.4752,-1.5784,-1.5784,-1.4854,-1.4166,-1.5486,-1.5778,-1.5778,-1.5784,-1.5778,-1.5784,-1.5778,-1.5778,-1.5784,-1.5784,-1.5784,-1.5784,-1.5784,-1.5784,-1.5784,-1.5784,-1.5784,-1.5718,-1.5431,-1.5398,-1.5398,-1.5398,-1.5398,-1.5518,-1.5758,-1.5784,-1.5784,-1.5784,-1.5784,-1.5784,-1.5784,-1.5784,-1.5784,-1.5784,-1.5784,-1.5784,-1.5784,-1.5784,-1.5784,-1.5784,-1.5784,-1.5784,-1.5784,-1.5784,-1.5784,-1.5784,-1.5784,-1.5784,-1.5784,-1.5784,-1.5784,-1.5784,-1.5784,-1.5784,-1.5784,-0.7988,-0.7988,-0.7988,-0.7988,-0.7988,-0.7988,-0.7988,-0.7988,-0.7988,-0.7988,-0.7988,-0.7988,-0.7988,-0.7988,-0.7988,-0.7988,-0.7988,-0.7924,-0.7821,-0.7872,-0.7794,-0.7543,-0.7614,-0.7645,-0.76,-0.8965,-0.9179,-0.8034,-1.0222,-1.0297,-0.8368,-1.0007,-0.9795,-0.8181,-0.9013,-0.8925,-0.8141,-0.8141,-0.8141,-0.8141,-0.8141,-0.8141,-0.8141,-0.8141,-0.8141,-0.8141,-0.8141,-0.8219,-0.8403,-0.8633,-0.8785,-0.8869,-0.9094,-1.0092,-1.1161,-1.1161,-1.2086,-1.306,-1.306,-1.277,-1.2818,-1.4124,-1.4459,-1.422,-1.3301,-1.4465,-1.554,-1.4657,-1.5194,-1.5784,-1.5784,-1.5784,-1.5784,-1.5784,-1.5784,-1.5784,-1.5784,-1.5784,-1.5718,-1.5431,-1.5398,-1.5398,-1.5398,-1.5398,-1.5518,-1.5758,-1.5784,-1.5784,-1.5784,-1.5784,-1.5784,-1.5784,-1.5784,-1.5784,-1.5784,-1.5784,-1.5784,-1.5784,-1.5784,-1.5784,-1.5784,-1.5784,-1.5784,-1.5784,-1.5784,-1.5784,-1.5784,-1.5784,-1.5784,-1.5784,-1.5784,-1.5784,-1.5784,-1.5784,-1.5784,-1.5784,-0.7988,-0.7988,-0.7988,-0.7988,-0.7988,-0.7988,-0.7988,-0.7988,-0.7988,-0.7988,-0.7988,-0.7988,-0.7988,-0.7988,-0.7988,-0.7988,-0.7988,-0.7951,-0.7909,-0.7938,-0.7911,-0.778,-0.7773,-0.7746,-0.7685,-0.8571,-0.8575,-0.7682,-0.9279,-0.9138,-0.7508,-0.884,-0.8657,-0.7227,-0.7915,-0.7797,-0.7095,-0.7095,-0.7095,-0.7095,-0.7095,-0.7095,-0.7095,-0.7095,-0.7095,-0.7105,-0.721,-0.7292,-0.745,-0.7611,-0.778,-0.787,-0.7961,-0.892,-0.9998,-0.9998,-1.0925,-1.1896,-1.1896,-1.1512,-1.1361,-1.2134,-1.2716,-1.2909,-1.2091,-1.3113,-1.4028,-1.3253,-1.374,-1.4274,-1.4274,-1.4274,-1.4274,-1.4274,-1.4274,-1.4274,-1.4274,-1.4274,-1.4214,-1.4009,-1.4039,-1.4039,-1.4039,-1.4039,-1.4294,-1.4984,-1.5534,-1.5784,-1.5784,-1.5784,-1.5784,-1.5784,-1.5784,-1.5784,-1.5784,-1.5784,-1.5784,-1.5784,-1.5784,-1.5784,-1.5784,-1.5784,-1.5784,-1.5784,-1.5784,-1.5784,-1.5784,-1.5784,-1.5784,-1.5784,-1.5784,-1.5784,-1.5784,-1.5784,-1.5784,-1.5784,-0.7988,-0.7988,-0.7988,-0.7988,-0.7988,-0.7988,-0.7988,-0.7988,-0.7988,-0.7988,-0.7988,-0.7988,-0.7988,-0.7988,-0.7988,-0.7988,-0.7988,-0.7988,-0.7988,-0.7988,-0.7988,-0.7988,-0.7978,-0.7911,-0.7834,-0.7831,-0.7824,-0.7811,-0.7824,-0.7756,-0.7614,-0.7475,-0.7443,-0.7412,-0.7224,-0.7109,-0.7095,-0.7095,-0.7095,-0.7095,-0.7095,-0.7095,-0.7095,-0.7095,-0.7095,-0.7115,-0.7316,-0.7426,-0.7438,-0.7733,-0.7923,-0.7988,-0.7988,-0.8825,-0.9801,-0.9801,-1.0632,-1.1556,-1.1556,-1.0681,-0.9801,-0.9801,-1.0681,-1.1556,-1.1556,-1.175,-1.1853,-1.175,-1.1799,-1.1896,-1.1896,-1.1896,-1.1896,-1.1896,-1.1896,-1.1896,-1.1896,-1.1896,-1.1896,-1.1896,-1.1896,-1.1896,-1.1896,-1.1896,-1.2431,-1.3632,-1.4806,-1.5439,-1.5439,-1.5439,-1.5439,-1.5439,-1.5439,-1.5439,-1.5439,-1.5439,-1.5588,-1.5784,-1.5784,-1.5784,-1.5784,-1.5683,-1.5683,-1.5778,-1.5683,-1.5635,-1.5635,-1.5635,-1.554,-1.5439,-1.5439,-1.5439,-1.5439,-1.5439,-1.5439,-1.5439,-0.7988,-0.7988,-0.7988,-0.7988,-0.7988,-0.7988,-0.7988,-0.7988,-0.7988,-0.7988,-0.7988,-0.7988,-0.7988,-0.7988,-0.7988,-0.7988,-0.7988,-0.7988,-0.7988,-0.7988,-0.7988,-0.7988,-0.7877,-0.7899,-0.7938,-0.7941,-0.788,-0.7811,-0.788,-0.7864,-0.7767,-0.7733,-0.7594,-0.7415,-0.7336,-0.7255,-0.7095,-0.7095,-0.7095,-0.7095,-0.7095,-0.7095,-0.7095,-0.7095,-0.7095,-0.7115,-0.7316,-0.7448,-0.7594,-0.7889,-0.7961,-0.7988,-0.7988,-0.8187,-0.8432,-0.8432,-0.8627,-0.8821,-0.8821,-0.8627,-0.8432,-0.8432,-0.8627,-0.8821,-0.8821,-1.0435,-1.1604,-1.0632,-1.1214,-1.1896,-1.1896,-1.1896,-1.1896,-1.1896,-1.1896,-1.1896,-1.1896,-1.1896,-1.1896,-1.1896,-1.1896,-1.1896,-1.1896,-1.1896,-1.2042,-1.2334,-1.2576,-1.277,-1.277,-1.277,-1.277,-1.277,-1.277,-1.277,-1.277,-1.277,-1.3788,-1.5784,-1.5784,-1.5784,-1.5784,-1.4752,-1.4854,-1.573,-1.4752,-1.4316,-1.4316,-1.4316,-1.3686,-1.277,-1.277,-1.277,-1.277,-1.277,-1.277,-1.277,-0.7988,-0.7988,-0.7988,-0.7988,-0.7988,-0.7988,-0.7988,-0.7988,-0.7988,-0.7988,-0.7988,-0.7988,-0.7988,-0.7988,-0.7988,-0.7988,-0.7988,-0.7988,-0.7988,-0.7988,-0.7988,-0.7988,-0.7914,-0.7874,-0.788,-0.7951,-0.7951,-0.787,-0.7951,-0.7948,-0.7919,-0.7845,-0.7729,-0.7577,-0.7434,-0.7326,-0.7244,-0.7129,-0.7095,-0.7095,-0.7095,-0.7095,-0.7095,-0.7095,-0.7095,-0.7115,-0.7316,-0.7512,-0.7736,-0.7914,-0.7988,-0.7988,-0.7988,-0.7988,-0.7988,-0.7988,-0.7988,-0.7988,-0.7988,-0.7988,-0.7988,-0.7988,-0.7988,-0.7988,-0.7988,-0.9069,-0.985,-0.9167,-0.9558,-1.0047,-1.0047,-1.0047,-1.0047,-1.0047,-1.0047,-1.0047,-1.0047,-1.0047,-1.0047,-1.0047,-1.0047,-1.0047,-1.0047,-1.0632,-1.0974,-1.0974,-1.1556,-1.1896,-1.1896,-1.1896,-1.1896,-1.1896,-1.1896,-1.1896,-1.1896,-1.1896,-1.2576,-1.3932,-1.3932,-1.3932,-1.3932,-1.3253,-1.3301,-1.3884,-1.3253,-1.2963,-1.2963,-1.2963,-1.2528,-1.1896,-1.1896,-1.1896,-1.1896,-1.1896,-1.1896,-1.1799,-0.7988,-0.7988,-0.7988,-0.7988,-0.7988,-0.7988,-0.7988,-0.7988,-0.7988,-0.7988,-0.7988,-0.7988,-0.7988,-0.7988,-0.7988,-0.7988,-0.7988,-0.7988,-0.7988,-0.7988,-0.7988,-0.7988,-0.7988,-0.7931,-0.7851,-0.7924,-0.7978,-0.7951,-0.7978,-0.7988,-0.7985,-0.7909,-0.7834,-0.7801,-0.7556,-0.7463,-0.7409,-0.7234,-0.7122,-0.7095,-0.7095,-0.7095,-0.7095,-0.7095,-0.7112,-0.7156,-0.7356,-0.76,-0.7868,-0.7948,-0.7988,-0.7988,-0.7988,-0.7988,-0.7988,-0.7988,-0.7988,-0.7988,-0.7988,-0.7988,-0.7988,-0.7988,-0.7988,-0.7988,-0.7988,-0.7988,-0.7988,-0.7988,-0.7988,-0.7988,-0.7988,-0.7988,-0.7988,-0.7988,-0.7988,-0.7988,-0.7988,-0.7988,-0.7988,-0.7988,-0.7988,-0.7988,-0.7988,-0.9019,-0.9657,-0.9657,-1.0632,-1.1214,-1.1214,-1.1214,-1.1214,-1.1214,-1.1214,-1.1214,-1.1214,-1.1214,-1.1214,-1.1214,-1.1214,-1.1458,-1.1896,-1.1653,-1.1702,-1.1896,-1.1653,-1.156,-1.156,-1.156,-1.1458,-1.1214,-1.1214,-1.1214,-1.1214,-1.1214,-1.1214,-1.1068,-0.7988,-0.7988,-0.7988,-0.7988,-0.7988,-0.7988,-0.7988,-0.7988,-0.7988,-0.7988,-0.7988,-0.7988,-0.7988,-0.7988,-0.7988,-0.7988,-0.7988,-0.7988,-0.7988,-0.7988,-0.7988,-0.7988,-0.7988,-0.7978,-0.7961,-0.7978,-0.7924,-0.7841,-0.7924,-0.7988,-0.7988,-0.7968,-0.7887,-0.7811,-0.777,-0.7611,-0.7415,-0.7395,-0.7261,-0.7095,-0.7095,-0.7095,-0.7095,-0.7095,-0.7224,-0.736,-0.7512,-0.7756,-0.7961,-0.7982,-0.7988,-0.7988,-0.7988,-0.7988,-0.7988,-0.7988,-0.7988,-0.7988,-0.7988,-0.7988,-0.7988,-0.7988,-0.7988,-0.7988,-0.7988,-0.7988,-0.7988,-0.7988,-0.7988,-0.7988,-0.7988,-0.7988,-0.7988,-0.7988,-0.7988,-0.7988,-0.7988,-0.7988,-0.7988,-0.7988,-0.7988,-0.7988,-0.7988,-0.8187,-0.8283,-0.8283,-0.8432,-0.8528,-0.8528,-0.8528,-0.8528,-0.8528,-0.8528,-0.8528,-0.8528,-0.8528,-0.8528,-0.8528,-0.8528,-0.9702,-1.1848,-1.0779,-1.0877,-1.1853,-1.073,-1.0243,-1.0243,-1.0243,-0.9558,-0.8528,-0.8528,-0.8528,-0.8528,-0.8528,-0.8528,-0.8478,-0.7988,-0.7988,-0.7988,-0.7988,-0.7988,-0.7988,-0.7988,-0.7988,-0.7988,-0.7988,-0.7988,-0.7988,-0.7988,-0.7988,-0.7988,-0.7988,-0.7988,-0.7988,-0.7988,-0.7988,-0.7988,-0.7988,-0.7988,-0.7988,-0.7988,-0.7988,-0.7958,-0.7891,-0.7958,-0.7988,-0.7988,-0.7988,-0.7955,-0.7884,-0.7848,-0.774,-0.7607,-0.7441,-0.7333,-0.7261,-0.7132,-0.7095,-0.7105,-0.7238,-0.7312,-0.7446,-0.7634,-0.7801,-0.7877,-0.7961,-0.7988,-0.7988,-0.7988,-0.7988,-0.7988,-0.7988,-0.7988,-0.7988,-0.7988,-0.7988,-0.7988,-0.7988,-0.7988,-0.7988,-0.7988,-0.7988,-0.7988,-0.7988,-0.7988,-0.7988,-0.7988,-0.7988,-0.7988,-0.7988,-0.7988,-0.7988,-0.7988,-0.7988,-0.7988,-0.7988,-0.7988,-0.7988,-0.7988,-0.7988,-0.7988,-0.7988,-0.7988,-0.7988,-0.7988,-0.7988,-0.7988,-0.7988,-0.7988,-0.7988,-0.7988,-0.7988,-0.7988,-0.7988,-0.7988,-0.8627,-0.9702,-0.9118,-0.9167,-0.9702,-0.9118,-0.8874,-0.8874,-0.8874,-0.8531,-0.7988,-0.7988,-0.7988,-0.7988,-0.7988,-0.7988,-0.7988]}]]